     2              OBSERVATION DATA    GPS                 RINEX VERSION / TYPE
teqc 2000Feb29 Duncan Agnew 20000517 23:51:11UTC            PGM / RUN BY / DATE
                                                            COMMENT
L2: 1 -> 1; 5 -> 5; 60 -> 9                                 COMMENT
L2: 1 -> 1; 5 -> 5; 60 -> 9                                 COMMENT
L2: 1 -> 1; 5 -> 5; 60 -> 9                                 COMMENT
L2: 1 -> 1; 5 -> 5; 60 -> 9                                 COMMENT
L2: 1 -> 1; 5 -> 5; 60 -> 9                                 COMMENT
Original Marker Name: 0806                                  COMMENT
Campaign Name: CSRC Post Hector                             COMMENT
4-Character Station Name: 0806                              COMMENT
6-Character Antenna Code: TRMCMP                            COMMENT
Vertical Measurement Point: BPA                             COMMENT
Vertical Offset to Rinex Ref. Point: 0.0000                 COMMENT
Radial Measurement Point: RRP                               COMMENT
Radial Offset to Rinex Ref. Point: 0.0000                   COMMENT
Antenna Height from Field Measurement: 2.0000 m             COMMENT
Additional Antenna Identification Info.:                    COMMENT
Model 22020.00+GP                                           COMMENT
Original XYZ: -2413938.1495 -4614655.6849 3671691.6755      COMMENT
New XYZ position is based on association with SCEC monument COMMENT
E1F4A4W2+0011. Position of that monument is believed to be  COMMENT
valid to within 1 m horizontally; vertical accuracy         COMMENT
should be no worse than 3-times this value.                 COMMENT
                                                            COMMENT
Revised Rinex header created by UCSD GPS archive for        COMMENT
GSAC on 16-Jun-2000 (2000:168) 22:50:04 GMT                 COMMENT
For assistance contact dagnew@ucsd.edu                      COMMENT
or anderson@python.ucsd.edu                                 COMMENT
                                                            COMMENT
HPGN CA 0806 1991                                           MARKER NAME
0806                                                        MARKER NUMBER
-Unknown- NATIONAL GEODETIC SURVEY                          OBSERVER / AGENCY
11369 TRIMBLE 4000 SSE NP 7.29; SP 3.07                     REC # / TYPE / VERS
26291 TR GEOD L1/L2 GP                                      ANT # / TYPE
 -2413940.7139 -4614655.6107  3671688.6837                  APPROX POSITION XYZ
        2.0000        0.0000        0.0000                  ANTENNA: DELTA H/E/N
     1     1     0                                          WAVELENGTH FACT L1/2
     7    C1    L1    L2    P1    P2    S1    S2            # / TYPES OF OBSERV
     0                                                      INTERVAL
  2000     5    11    18    57   45.000000                  TIME OF FIRST OBS
  2000     5    12     0    30   15.000000                  TIME OF LAST OBS
                                                            END OF HEADER
 00  5 11 18 57 45.0000000  0  7G 4G 5G 6G10G17G24G30
  24444129.1024     172533.92854
         7.0004
  20540423.7734      55658.61157     18742.88057                  20540427.7234
        23.2504         29.5004
  22776629.5234    -135294.50456    -39521.05455                  22776634.2814
        14.0004         11.5004
  21260625.0314     -87412.76357    -27799.53656                  21260630.1644
        21.7504         24.7504
  24534366.4844    -232267.44254   -146268.84254                  24534376.9184
         7.0004          3.5004
  21501586.2344     112020.55557     39012.64056                  21501591.0274
        20.2504         21.7504
  20914382.3834     -85125.92157    -28264.41557                  20914385.5234
        23.7504         32.5004
 00  5 11 18 58  0.0000000  0  7G 4G 5G 6G10G17G24G30
  24452921.1644     218737.75644
         7.0004
  20543320.2894      70880.74647     30604.28547                  20543324.2974
        23.2504         29.0004
  22769737.6644    -171510.02546    -67740.89945                  22769742.7274
        14.0004         11.7504
  21256231.8524    -110498.45247    -45788.34746                  21256236.9024
        21.5004         25.2504
  24525302.9534    -279901.35545   -183386.00443                  24525314.2424
         7.7504          3.2504
  21507319.9304     142151.12847     62491.00846                  21507324.4884
        20.5004         22.0004
  20910101.2344    -107624.03247    -45795.39347                  20910104.3754
        23.7504         32.2504
 00  5 11 18 58 15.0000000  0  7G 4G 5G 6G10G17G24G30
  24461716.4454     264954.45044     28808.84752                  24461723.2194
         7.0004          2.2504
  20546246.1174      86255.02247     42584.23447                  20546250.0664
        23.7504         29.2504
  22762852.8284    -207691.88846    -95934.51945                  22762857.9494
        14.0004         11.2504
  21251869.5554    -133422.50047    -63651.20446                  21251874.5234
        21.2504         24.7504
  24516249.6334    -327473.85644   -220455.30043                  24516259.6094
         6.7504          3.0004
  21513067.3134     172353.08147     86024.99646                  21513071.9304
        20.5004         21.7504
  20905848.4454    -129970.99447    -63208.58847                  20905851.4924
        23.5004         32.0004
 00  5 11 18 58 30.0000000  0  7G 4G 5G 6G10G17G24G30
  24470513.3594     311185.17844     64832.78742                  24470518.2704
         6.5004          2.0004
  20549200.8834     101782.67047     54683.69247                  20549204.6214
        23.7504         29.7504
  22755974.0084    -243838.74046   -124100.85045                  22755979.2234
        14.0004         11.2504
  21247538.2424    -156183.33747    -81386.88446                  21247543.3874
        21.2504         24.7504
  24507209.1484    -374983.47045   -257475.58643                  24507218.7734
         7.5004          3.0004
  21518828.2114     202627.15947    109615.18346                  21518832.5824
        20.2504         22.0004
  20901625.3674    -152165.32947    -80502.85847                  20901628.4964
        23.5004         31.7504
 00  5 11 18 58 45.0000000  0  7G 4G 5G 6G10G17G24G30
  24479313.6484     357429.52544    100867.27642                  24479318.1604
         6.2504          2.2504
  20552185.0004     117463.35047     66902.39347                  20552188.8204
        23.7504         29.7504
  22749102.2584    -279950.66846   -152239.97646                  22749107.2734
        14.0004         12.0004
  21243238.0634    -178781.00747    -98995.42546                  21243243.1844
        21.2504         24.7504
  24498178.8134    -422430.39244   -294447.02343                  24498188.9304
         6.2504          3.0004
  21524602.9064     232973.01847    133261.30246                  21524607.3594
        20.5004         21.5004
  20897430.8674    -174207.13247    -97678.27147                  20897433.9844
        23.5004         31.7504
 00  5 11 18 59  0.0000000  0  7G 4G 5G 6G10G17G24G30
  24488116.4384     403687.02144    136912.05842                  24488121.7234
         6.2504          1.7504
  20555197.9844     133296.73447     79240.08847                  20555201.9344
        23.7504         29.7504
  22742236.6954    -316027.90546   -180352.07245                  22742241.7584
        14.2504         11.7504
  21238968.8284    -201215.48347   -116476.79946                  21238973.7624
        21.2504         25.0004
  24489161.9534    -469814.61444   -331369.58744                  24489171.0514
         7.2504          3.5004
  21530391.1414     263390.23447    156963.02646                  21530395.4654
        20.5004         22.0004
  20893265.4144    -196096.34847   -114734.78647                  20893268.6724
        23.7504         31.5004
 00  5 11 18 59 15.0000000  0  7G 4G 5G 6G10G17G24G30
  24496920.2034     449954.49643    172964.49441                  24496926.0864
         5.7504          1.2504
  20558239.4844     149279.51747     91694.19847                  20558243.2584
        24.0004         30.2504
  22735377.6724    -352073.61746   -208439.59945                  22735382.1484
        14.5004         11.7504
  21234730.3134    -223489.88147   -133833.44146                  21234735.2584
        21.2504         24.7504
  24480156.0314    -517139.40543   -368245.88644                  24480165.3754
         6.0004          3.5004
  21536192.0634     293875.28547    180717.60346                  21536196.8094
        20.7504         22.0004
  20889128.4144    -217836.02847   -131674.77847                  20889131.6374
        23.5004         31.5004
 00  5 11 18 59 30.0000000  0  7G 4G 5G 6G10G17G24G30
  24505725.0704     496226.66343    209020.78442                  24505731.3524
         5.5004          1.7504
  20561308.3204     165406.75747    104260.86847                  20561312.3054
        24.0004         30.0004
  22728523.4384    -388092.46446   -236506.18946                  22728527.9844
        14.2504         12.0004
  21230521.1174    -245608.56747   -151068.74746                  21230526.1214
        21.0004         24.5004
  24471161.8754    -564409.18544   -405079.30344                  24471171.6054
         6.7504          3.5004
  21542005.3364     324423.11347    204521.10546                  21542009.8594
        20.5004         22.0004
  20885018.9924    -239430.70147   -148501.77747                  20885022.2384
        23.5004         31.2504
 00  5 11 18 59 45.0000000  0  7G 4G 5G 6G10G17G24G30
  24514530.9774     542500.86242    245078.47941                  24514537.0354
         4.7504          1.2504
  20564404.2194     181675.60247    116937.88247                  20564408.1564
        24.0004         30.0004
  22721673.7274    -424087.09446   -264553.91345                  22721678.3794
        14.2504         11.7504
  21226341.1644    -267574.21147   -168184.80146                  21226346.3674
        21.0004         24.7504
  24462176.3284    -611626.74943   -441871.99343                  24462187.5354
         6.0004          3.0004
  21547829.8364     355030.72047    228371.18246                  21547834.4304
        20.5004         22.0004
  20880936.9454    -260882.96347   -165217.81347                  20880940.2974
        23.5004         31.5004
 00  5 11 19  0  0.0000000  0  7G 4G 5G 6G10G17G24G30
  24523336.0554     588772.01743    281133.83241                  24523339.3484
         5.0004          0.7504
  20567526.2814     198081.31247    129721.54247                  20567530.1254
        24.2504         30.2504
  22714828.1414    -460062.18246   -292586.40846                  22714832.3834
        14.2504         12.2504
  21222189.4694    -289391.35847   -185185.14446                  21222194.7304
        21.0004         24.5004
  24453199.6024    -658796.57144   -478627.55143                  24453210.8674
         6.7504          3.2504
  21553664.8054     385693.14747    252263.97846                  21553669.4224
        20.5004         21.7504
  20876880.8754    -282197.20647   -181826.29847                  20876883.9574
        23.7504         31.5004
 00  5 11 19  0 15.0000000  0  7G 4G 5G 6G10G17G24G30
  24532141.8984     635047.51442    317192.71841                  24532147.3714
         4.2504          1.2504
  20570675.5314     214631.08047    142617.45747                  20570679.2704
        24.0004         30.2504
  22707987.2194    -496010.31846   -320597.90146                  22707992.0004
        14.5004         12.7504
  21218067.2974    -311052.44547   -202063.88446                  21218072.5704
        21.0004         24.7504
  24444235.7584    -705911.28644   -515340.12144                  24444247.8444
         7.0004          3.5004
  21559511.4384     416417.53747    276205.05546                  21559516.0084
        20.5004         21.7504
  20872852.7584    -303365.88547   -198321.35747                  20872855.8284
        24.2504         32.2504
 00  5 11 19  0 30.0000000  0  7G 4G 5G 6G10G17G24G30
  24540948.0394     681319.35343    353248.55842                  24540954.3324
         5.0004          1.5004
  20573850.6414     231317.18647    155619.61047                  20573854.6254
        24.0004         30.2504
  22701149.8984    -531939.08446   -348594.30746                  22701154.5744
        14.2504         12.5004
  21213973.8054    -332564.86647   -218826.77246                  21213979.1484
        21.0004         24.7504
  24435277.5864    -752978.20044   -552015.46943                  24435287.8554
         7.0004          3.2504
  21565368.5944     447195.96247    300188.24146                  21565373.1994
        20.5004         22.0004
  20868850.7114    -324396.52847   -214708.85547                  20868853.7464
        24.2504         32.5004
 00  5 11 19  0 45.0000000  0  7G 4G 5G 6G10G17G24G30
  24549753.1094     727592.57143    389305.54242                  24549758.5474
         5.0004          1.5004
  20577053.0394     248144.60647    168731.87447                  20577056.9774
        23.7504         30.2504
  22694317.8594    -567843.28746   -376571.56646                  22694322.9224
        14.2504         12.5004
  21209909.4844    -353923.22047   -235469.62046                  21209914.6414
        21.2504         25.0004
  24426330.9924    -799992.35044   -588649.66143                  24426341.9654
         6.7504          3.2504
  21571236.6484     478033.29347    324217.32246                  21571241.1254
        20.5004         21.5004
  20864875.8284    -345283.82747   -230984.65547                  20864878.7464
        24.5004         32.5004
 00  5 11 19  1  0.0000000  0  7G 4G 5G 6G10G17G24G30
  24558558.9694     773860.87043    425358.72941                  24558563.7624
         5.2504          1.2504
  20580280.6954     265107.20547    181949.47647                  20580284.6454
        23.7504         29.2504
  22687489.1254    -603728.90046   -404534.34246                  22687494.1994
        14.5004         12.7504
  21205873.2584    -375133.42847   -251997.02546                  21205878.5084
        21.0004         25.2504
  24417394.1724    -846959.56444   -625247.34643                  24417402.7304
         6.5004          3.0004
  21577114.5864     508923.09347    348287.29046                  21577119.2274
        20.2504         22.0004
  20860927.6884    -366033.48447   -247153.20547                  20860930.5704
        24.5004         32.5004
 00  5 11 19  1 15.0000000  0  7G 4G 5G 6G10G17G24G30
  24567362.5944     820130.09143    461412.64242                  24567367.2114
         5.2504          1.5004
  20583535.5004     282210.87347    195277.00147                  20583539.5314
        23.5004         29.7504
  22680664.7974    -639589.88446   -432477.93346                  22680670.1644
        14.5004         13.2504
  21201866.5004    -396189.32147   -268404.18646                  21201871.6454
        21.0004         25.2504
  24408465.4694    -893873.80044   -661803.68943                  24408475.1414
         7.0004          3.2504
  21583004.1334     539871.42647    372402.87346                  21583008.7384
        20.2504         21.7504
  20857006.3444    -386639.34247   -263209.70547                  20857009.2854
        24.5004         33.0004
 00  5 11 19  1 30.0000000  0  7G 4G 5G 6G10G17G24G30
  24576167.2664     866397.45743    497465.05041                  24576171.6134
         5.7504          1.2504
  20586816.5164     299452.95547    208712.37947                  20586820.5944
        23.2504         29.0004
  22673845.2344    -675428.69846   -460404.23646                  22673850.2504
        14.2504         13.0004
  21197888.5784    -417093.31547   -284692.98046                  21197893.5704
        21.0004         25.2504
  24399547.8674    -940737.44244   -698320.67043                  24399557.4574
         7.0004          3.0004
  21588903.7504     570875.12647    396561.59046                  21588908.5084
        20.5004         21.5004
  20853112.2194    -407103.65747   -279155.91047                  20853115.2194
        24.7504         33.0004
 00  5 11 19  1 45.0000000  0  7G 4G 5G 6G10G17G24G30
  24584970.5704     912661.68343    533515.05042                  24584975.6804
         5.7504          1.5004
  20590123.6334     316832.00747    222254.48447                  20590127.6414
        23.2504         29.0004
  22667029.1094    -711246.57846   -488314.23546                  22667033.9144
        14.2504         13.5004
  21193939.4304    -437846.36047   -300864.15346                  21193944.7034
        21.0004         25.0004
  24390639.7034    -987551.64444   -734799.09843                  24390650.1374
         6.7504          2.7504
  21594813.7034     601932.93447    420762.46746                  21594818.5664
        20.2504         21.2504
  20849244.5784    -427427.66847   -294992.78947                  20849247.2974
        25.0004         33.5004
 00  5 11 19  2  0.0000000  0  7G 4G 5G 6G10G17G24G30
  24593772.8914     958917.94243    569558.91941                  24593783.2304
         5.2504          1.2504
  20593455.7034     334343.37447    235899.69347                  20593459.7114
        23.0004         29.0004
  22660216.1484    -747047.92046   -516211.34546                  22660221.4804
        14.2504         12.7504
  21190018.2034    -458452.82947   -316921.11546                  21190023.4064
        21.0004         25.0004
  24381739.4534   -1034320.89444   -771242.53043                  24381749.9924
         6.5004          3.0004
  21600733.3364     633039.96147    445001.70746                  21600738.2704
        20.0004         21.5004
  20845403.0704    -447615.66447   -310723.68047                  20845405.8364
        25.0004         33.0004
 00  5 11 19  2 15.0000000  0  7G 4G 5G 6G10G17G24G30
  24602575.7344    1005170.05843    605599.37241                  24602582.7114
         6.0004          1.2504
  20596814.1254     351991.07747    249651.13747                  20596818.2734
        23.0004         28.7504
  22653407.5234    -782828.55346   -544092.32246                  22653412.9614
        14.0004         12.7504
  21186125.5394    -478908.52247   -332860.58947                  21186130.6484
        20.7504         25.7504
  24372848.5704   -1081040.98044   -807647.58743                  24372857.9614
         6.7504          3.0004
  21606662.7034     664200.02947    469282.27146                  21606667.4614
        20.2504         21.2504
  20841588.1484    -467663.45347   -326345.32047                  20841590.9614
        25.0004         33.2504
 00  5 11 19  2 30.0000000  0  7G 4G 5G 6G10G17G24G30
  24611374.7274    1051417.92144    641636.64342                  24611380.4924
         6.2504          1.5004
  20600198.4534     369774.89047    263508.64047                  20600202.7894
        22.7504         28.5004
  22646602.4224    -818588.49546   -571957.17646                  22646608.1764
        14.0004         12.7504
  21182261.5864    -499213.33847   -348682.49446                  21182266.7304
        21.0004         25.5004
  24363967.7424   -1127711.93244   -844014.41243                  24363977.8244
         6.2504          3.2504
  21612602.5864     695412.80147    493603.90446                  21612607.3914
        20.0004         21.2504
  20837799.8134    -487570.77547   -341857.51047                  20837802.6844
        24.7504         33.2504
 00  5 11 19  2 45.0000000  0  7G 4G 5G 6G10G17G24G30
  24620175.4144    1097660.65144    677669.85542                  24620180.9224
         6.7504          1.5004
  20603608.2894     387693.99347    277471.56347                  20603612.4964
        22.7504         28.7504
  22639800.9614    -854328.35246   -599806.37446                  22639806.2464
        14.0004         12.7504
  21178426.1414    -519367.70647   -364387.16846                  21178431.0864
        21.0004         25.5004
  24355095.2274   -1174334.17644   -880343.29543                  24355105.5434
         6.7504          2.7504
  21618551.7894     726677.34447    517965.87346                  21618556.4414
        20.2504         21.0004
  20834038.0474    -507338.08947   -357260.59547                  20834041.1054
        24.7504         33.2504
 00  5 11 19  3  0.0000000  0  7G 4G 5G 6G10G17G24G30
  24628974.5474    1143902.52845    713702.45942                  24628981.0514
         7.5004          2.0004
  20607044.8364     405752.77747    291543.32847                  20607049.0434
        23.0004         28.2504
  22633004.7504    -890043.60246   -627636.40746                  22633010.2464
        14.0004         12.5004
  21174620.5394    -539366.88647   -379970.91946                  21174625.6604
        21.0004         25.5004
  24346233.1644   -1220903.18944   -916630.64643                  24346242.0864
         7.0004          3.2504
  21624512.0084     757997.97447    542371.55846                  21624516.5784
        20.2504         21.0004
  20830304.1334    -526960.70747   -372550.93247                  20830307.0274
        24.7504         33.2504
 00  5 11 19  3 15.0000000  0  7G 4G 5G 6G10G17G24G30
  24637772.3754    1190134.63044    749727.41742                  24637779.8094
         6.5004          1.5004
  20610506.2114     423942.19047    305716.88047                  20610510.4534
        22.7504         28.5004
  22626211.3914    -925743.13946   -655454.18246                  22626216.5234
        14.0004         12.7504
  21170842.5864    -559219.62847   -395440.56046                  21170847.5314
        21.0004         25.2504
  24337380.2344   -1267427.82544   -952883.44843                  24337389.0394
         6.7504          3.2504
  21630481.2664     789365.51747    566813.78846                  21630485.7544
        20.5004         21.0004
  20826595.8914    -546447.48147   -387735.42047                  20826598.6454
        24.5004         33.0004
 00  5 11 19  3 30.0000000  0  7G 4G 5G 6G10G17G24G30
  24646568.8444    1236357.36844    785745.06242                  24646573.3794
         7.2504          1.7504
  20613992.6024     442262.90947    319992.75047                  20613996.7274
        22.7504         28.5004
  22619421.1024    -961425.95346   -683258.94646                  22619426.6094
        14.0004         13.0004
  21167092.9924    -578924.94547   -410795.32447                  21167098.1254
        21.0004         25.7504
  24328535.7504   -1313906.99945   -989100.86243                  24328546.1954
         7.5004          3.0004
  21636459.2114     820780.60447    591293.06546                  21636463.9574
        20.0004         20.2504
  20822913.6804    -565797.26847   -402813.16447                  20822916.5274
        24.5004         33.5004
 00  5 11 19  3 45.0000000  0  7G 4G 5G 6G10G17G24G30
  24655367.4064    1282594.78244    821774.17042                  24655372.2584
         6.5004          2.0004
  20617508.2034     460738.92647    334389.63347                  20617512.4224
        23.0004         28.5004
  22612638.6644    -997068.00746   -711031.93446                  22612643.6214
        14.2504         12.5004
  21163375.7034    -598458.67247   -426016.38446                  21163380.9304
        21.0004         25.5004
  24319703.4454   -1360316.73644  -1025264.12643                  24319713.4694
         7.2504          3.0004
  21642450.7114     852266.94746    615827.86946                  21642455.3284
        19.7504         20.2504
  20819262.0704    -584985.90247   -417765.33147                  20819265.0234
        24.5004         33.0004
 00  5 11 19  4  0.0000000  0  7G 4G 5G 6G10G17G24G30
  24664168.8914    1328843.67244    857812.24742                  24664174.1764
         6.2504          2.0004
  20621053.2504     479367.11747    348905.09147                  20621057.4104
        23.0004         29.0004
  22605863.4454   -1032672.22446   -738775.45146                  22605868.6134
        14.2504         12.5004
  21159690.5784    -617823.60147   -441105.91847                  21159695.7704
        21.0004         25.7504
  24310884.4614   -1406659.88644  -1061375.53344                  24310895.5044
         7.2504          3.5004
  21648455.3364     883821.28946    640415.65746                  21648460.1174
        19.7504         20.2504
  20815640.8984    -604016.22647   -432594.14247                  20815643.8754
        24.5004         33.0004
 00  5 11 19  4 15.0000000  0  7G 4G 5G 6G10G17G24G30
  24672968.1414    1375088.39544    893847.02942                  24672974.7504
         6.7504          2.0004
  20624624.2894     498131.99047    363527.05447                  20624628.4964
        23.2504         29.0004
  22599092.6644   -1068253.85346   -766501.36146                  22599097.6214
        14.7504         13.0004
  21156035.0084    -637034.92747   -456075.75047                  21156040.1414
        21.0004         25.7504
  24302076.6564   -1452951.63345  -1097446.84443                  24302086.1294
         8.2504          3.2504
  21654470.1254     915428.07046    665044.30946                  21654475.0594
        19.5004         20.2504
  20812046.6724    -622903.51947   -447311.50047                  20812049.6134
        24.2504         33.0004
 00  5 11 19  4 30.0000000  0  7G 4G 5G 6G10G17G24G30
  24681767.2274    1421328.10643    929877.90942                  24681774.8954
         5.7504          1.7504
  20628220.8834     517032.68047    378254.84847                  20628225.1134
        23.2504         29.5004
  22592325.5234   -1103813.49246   -794210.14246                  22592330.9144
        14.7504         13.0004
  21152408.1174    -656093.19847   -470926.32847                  21152413.2034
        21.0004         26.0004
  24293276.7894   -1499192.63145  -1133478.62744                  24293285.4774
         8.0004          3.7504
  21660494.6804     947086.23046    689712.99646                  21660499.5314
        19.7504         20.2504
  20808479.7114    -641648.15547   -461917.69847                  20808482.7234
        24.2504         33.0004
 00  5 11 19  4 45.0000000  0  7G 4G 5G 6G10G17G24G30
  24690566.6024    1467564.42243    965906.16442                  24690573.5664
         5.7504          2.0004
  20631843.6724     536070.68647    393089.63947                  20631848.1134
        23.5004         29.5004
  22585563.6094   -1139349.41046   -821900.43546                  22585568.7074
        14.7504         13.2504
  21148810.9534    -674996.55147   -485656.18647                  21148816.0274
        21.0004         26.0004
  24284486.7034   -1545381.09445  -1169469.49343                  24284497.3954
         7.7504          3.0004
  21666528.7504     978797.25446    714422.87146                  21666533.6484
        19.5004         20.0004
  20804940.2814    -660248.31047   -476411.31447                  20804943.3874
        24.2504         33.0004
 00  5 11 19  5  0.0000000  0  7G 4G 5G 6G10G17G24G30
  24699363.4614    1513794.69143   1001929.72142                  24699369.4384
         5.5004          1.7504
  20635492.2114     555243.57247    408029.54047                  20635496.5354
        23.5004         29.7504
  22578805.4534   -1174863.80046   -849573.94746                  22578810.2584
        15.0004         13.5004
  21145243.0474    -693747.14947   -500267.01646                  21145248.1094
        21.0004         25.5004
  24275706.8594   -1591519.26045  -1205421.17944                  24275716.3914
         8.2504          3.7504
  21672572.8984    1010558.47246    739171.86346                  21672577.9734
        19.7504         19.7504
  20801427.9144    -678706.01847   -490793.93447                  20801430.9964
        24.2504         32.7504
 00  5 11 19  5 15.0000000  0  7G 4G 5G 6G10G17G24G30
  24708159.3054    1560020.51843   1037949.74142                  24708166.3874
         5.2504          1.7504
  20639166.6954     574552.78947    423075.66847                  20639170.6914
        23.7504         30.0004
  22572051.9304   -1210355.01546   -877229.41546                  22572057.0864
        14.7504         13.2504
  21141704.1254    -712343.15847   -514757.39147                  21141709.3284
        21.0004         26.2504
  24266936.5394   -1637605.39245  -1241332.27844                  24266945.5784
         8.2504          3.7504
  21678626.6804    1042371.48346    763961.21546                  21678631.5084
        19.7504         20.2504
  20797942.9064    -697019.39547   -505064.08947                  20797945.8594
        24.2504         32.7504
 00  5 11 19  5 30.0000000  0  7G 4G 5G 6G10G17G24G30
  24716955.6254    1606245.19243   1073968.93042                  24716963.0944
         5.7504          1.7504
  20642867.6804     594001.72447    438230.66647                  20642871.6994
        23.7504         30.0004
  22565302.9144   -1245819.48946   -904864.03546                  22565307.5664
        14.7504         13.2504
  21138195.5314    -730780.96247   -529124.48647                  21138200.8054
        21.0004         26.5004
  24258176.7814   -1683635.93345  -1277200.09344                  24258185.8554
         7.7504          3.5004
  21684690.9924    1074239.43646    788793.37146                  21684695.9734
        19.5004         20.0004
  20794486.1804    -715184.90747   -519219.02347                  20794489.1214
        24.2504         32.5004
 00  5 11 19  5 45.0000000  0  6G 5G 6G10G17G24G30
  20646594.7424     613587.05047    453491.94547                  20646598.7974
        23.5004         30.2504
  22558558.6804   -1281260.37046   -932480.27746                  22558563.7544
        15.0004         13.5004
  21134716.5164    -749063.45047   -543370.55547                  21134721.6604
        21.0004         26.0004
  24249427.3054   -1729613.96145  -1313026.97744                  24249436.0044
         8.0004          4.0004
  21690765.2274    1106158.88646    813665.66346                  21690770.0434
        19.7504         19.7504
  20791056.7974    -733205.57547   -533261.09247                  20791059.7854
        24.2504         32.7504
 00  5 11 19  6  0.0000000  0  6G 5G 6G10G17G24G30
  20650346.8364     633304.41347    468856.11147                  20650350.8794
        23.7504         30.0004
  22551818.2274   -1316681.76746   -960081.33246                  22551823.0784
        15.0004         13.5004
  21131266.0704    -767194.86347   -557498.90547                  21131271.1914
        21.2504         25.7504
  24240687.1484   -1775543.57745  -1348816.13344                  24240696.3404
         8.7504          4.0004
  21696848.0944    1138125.42346    838574.63646                  21696853.0634
        19.7504         20.0004
  20787654.3204    -751085.51247   -547193.49847                  20787657.3554
        24.2504         32.5004
 00  5 11 19  6 15.0000000  0  6G 5G 6G10G17G24G30
  20654124.1724     653154.71547    484323.85947                  20654128.3094
        23.7504         29.5004
  22545081.7034   -1352082.61546   -987666.37646                  22545086.6724
        15.0004         13.5004
  21127844.8204    -785173.88947   -571508.51447                  21127850.1174
        21.0004         25.7504
  24231956.6564   -1821423.70045  -1384566.73544                  24231966.1174
         8.5004          3.7504
  21702940.2424    1170139.68446    863520.80746                  21702945.0474
        19.7504         20.0004
  20784279.0004    -768823.40947   -561015.22747                  20784281.9884
        24.5004         33.0004
 00  5 11 19  6 30.0000000  0  6G 5G 6G10G17G24G30
  20657927.4144     673140.22747    499896.97047                  20657931.4574
        23.7504         29.7504
  22538349.1804   -1387460.47746  -1015233.50846                  22538354.0204
        15.0004         13.7504
  21124453.2034    -802997.96147   -585397.37547                  21124458.6524
        21.0004         26.0004
  24223235.9224   -1867251.75045  -1420276.76044                  24223245.3364
         8.7504          4.2504
  21709041.9454    1202203.87246    888505.87046                  21709046.8674
        19.5004         20.0004
  20780931.1884    -786416.59747   -574724.20047                  20780934.2114
        24.5004         33.0004
 00  5 11 19  6 45.0000000  0  6G 5G 6G10G17G24G30
  20661756.4694     693262.59947    515576.72447                  20661760.4534
        23.5004         29.5004
  22531621.8054   -1422813.39646  -1042781.21146                  22531626.5164
        14.5004         13.2504
  21121091.0394    -820665.10347   -599163.95746                  21121096.1954
        21.0004         25.5004
  24214524.7344   -1913025.88645  -1455944.79745                  24214534.4184
         7.7504          4.5004
  21715153.1564    1234319.64446    913531.13746                  21715157.9264
        19.5004         19.5004
  20777611.2974    -803863.23147   -588318.96947                  20777614.0984
        24.5004         32.5004
 00  5 11 19  7  0.0000000  0  6G 5G 6G10G17G24G30
  20665611.6254     713521.06747    531362.52747                  20665615.7274
        23.5004         29.2504
  22524899.0004   -1458141.94046  -1070309.90946                  22524904.2854
        14.7504         13.2504
  21117758.8444    -838175.69547   -612808.55647                  21117764.1764
        21.0004         26.5004
  24205824.1174   -1958746.59845  -1491571.18644                  24205833.5554
         7.7504          4.0004
  21721274.3834    1266486.04546    938595.85446                  21721279.3164
        19.5004         19.7504
  20774319.0474    -821163.73647   -601799.87447                  20774322.0354
        24.5004         33.0004
 00  5 11 19  7 15.0000000  0  6G 5G 6G10G17G24G30
  20669492.5474     733916.07447    547254.72347                  20669496.6844
        23.2504         29.2504
  22518180.7814   -1493445.43746  -1097819.09346                  22518185.9024
        14.2504         13.0004
  21114456.7894    -855529.12647   -626330.68747                  21114461.8874
        21.2504         26.2504
  24197134.2734   -2004413.12145  -1527155.34744                  24197143.6054
         8.2504          4.2504
  21727405.2194    1298703.49646    963700.34546                  21727410.3284
        19.5004         19.7504
  20771054.8524    -838317.25547   -615166.24047                  20771057.9104
        24.7504         33.7504
 00  5 11 19  7 30.0000000  0  6G 5G 6G10G17G24G30
  20673399.5554     754446.36747    563252.33447                  20673403.8204
        22.7504         29.2504
  22511467.4064   -1528724.85446  -1125309.51746                  22511472.5864
        14.2504         13.0004
  21111184.1954    -872726.27447   -639731.03747                  21111189.2934
        21.2504         26.0004
  24188454.7344   -2050026.50345  -1562698.09244                  24188463.6454
         7.7504          4.2504
  21733545.4384    1330970.61446    988843.54446                  21733550.3834
        19.2504         19.7504
  20767818.3754    -855324.81847   -628418.87847                  20767821.3634
        25.0004         34.0004
 00  5 11 19  7 45.0000000  0  6G 5G 6G10G17G24G30
  20677332.0784     775113.20447    579356.34647                  20677336.3674
        22.7504         29.0004
  22504758.9924   -1563978.69746  -1152780.00546                  22504763.6804
        14.5004         12.7504
  21107941.7344    -889765.61847   -653008.42747                  21107946.9964
        21.5004         25.7504
  24179785.0864   -2095585.18745  -1598198.26144                  24179793.7274
         8.2504          4.2504
  21739695.2664    1363288.58946   1014026.36746                  21739700.4804
        19.2504         19.2504
  20764610.1954    -872184.73347   -641556.46347                  20764613.1374
        25.0004         33.7504
 00  5 11 19  8  0.0000000  0  6G 5G 6G10G17G24G30
  20681290.9064     795916.99147    595567.07447                  20681295.4654
        22.7504         28.7504
  22498055.0784   -1599206.39146  -1180230.12446                  22498060.1994
        14.7504         13.0004
  21104729.3914    -906646.56747   -666162.39547                  21104734.3244
        21.5004         26.2504
  24171125.7504   -2141088.67645  -1633655.36445                  24171134.3444
         7.7504          4.5004
  21745855.0944    1395657.65946   1039249.00346                  21745860.3554
        19.0004         19.2504
  20761429.9454    -888896.43447   -654578.56247                  20761432.8874
        25.0004         34.2504
 00  5 11 19  8 15.0000000  0  6G 5G 6G10G17G24G30
  20685276.0944     816857.82247    611884.58447                  20685280.4774
        22.7504         28.5004
  22491356.6024   -1634407.63346  -1207659.63746                  22491361.3014
        14.7504         13.5004
  21101547.1644    -923368.74547   -679192.64047                  21101552.1564
        21.2504         26.0004
  24162477.7734   -2186536.61645  -1669069.20444                  24162486.8244
         8.0004          4.0004
  21752024.4304    1428077.82746   1064511.45946                  21752029.5274
        19.2504         19.2504
  20758278.2814    -905459.52847   -667484.86047                  20758281.1994
        25.0004         34.5004
 00  5 11 19  8 30.0000000  0  6G 5G 6G10G17G24G30
  20689287.1954     837936.44947    628309.46647                  20689291.5084
        22.7504         28.7504
  22484663.5944   -1669581.39646  -1235067.72446                  22484668.0824
        15.0004         13.2504
  21098395.4924    -939931.03047   -692098.29847                  21098400.5204
        21.2504         26.7504
  24153839.0164   -2231927.98645  -1704439.00644                  24153848.1954
         7.5004          4.2504
  21758203.7344    1460549.78246   1089814.26846                  21758208.3054
        19.5004         19.5004
  20755154.8284    -921872.74347   -680274.37347                  20755157.8754
        25.0004         34.2504
 00  5 11 19  8 45.0000000  0  6G 5G 6G10G17G24G30
  20693324.6334     859153.89647    644842.52147                  20693328.9454
        22.7504         28.5004
  22477975.5864   -1704726.37746  -1262453.40046                  22477980.6954
        15.0004         13.2504
  21095274.4144    -956332.01347   -704878.26847                  21095279.3484
        21.2504         26.0004
  24145212.2734   -2277261.45445  -1739763.64045                  24145221.2424
         8.2504          4.5004
  21764392.7034    1493074.44346   1115158.14146                  21764397.5204
        19.2504         19.2504
  20752060.2114    -938134.85847   -692946.14247                  20752063.3164
        24.7504         33.5004
 00  5 11 19  9  0.0000000  0  6G 5G 6G10G17G24G30
  20697388.1884     880507.75047    661481.86347                  20697392.5004
        22.2504         28.5004
  22471292.5084   -1739844.87446  -1289818.42946                  22471297.1374
        15.0004         13.7504
  21092183.9454    -972573.84747   -717534.22547                  21092188.9384
        21.2504         26.2504
  24136595.8984   -2322539.36645  -1775045.00545                  24136605.3484
         7.7504          4.5004
  21770591.7894    1525649.36346   1140541.17746                  21770596.8054
        19.2504         19.0004
  20748993.9694    -954247.99947   -705501.82847                  20748996.9804
        25.0004         33.7504
 00  5 11 19  9 15.0000000  0  6G 5G 6G10G17G24G30
  20701478.0634     901999.74247    678228.85247                  20701482.3634
        22.7504         28.5004
  22464615.4844   -1774934.80346  -1317161.20046                  22464620.5234
        15.2504         13.7504
  21089123.7274    -988654.58047   -730064.64347                  21089128.8244
        21.2504         25.7504
  24127991.1024   -2367759.54445  -1810281.35245                  24127999.0044
         8.0004          4.7504
  21776800.2664    1558276.16646   1165964.64646                  21776805.1644
        19.2504         18.7504
  20745956.4924    -970209.97047   -717939.72347                  20745959.5394
        24.7504         33.7504
 00  5 11 19  9 30.0000000  0  6G 5G 6G10G17G24G30
  20705594.6644     923631.81347    695084.98847                  20705598.9414
        23.0004         28.2504
  22457943.9224   -1809993.94846  -1344479.98946                  22457948.5984
        15.5004         14.2504
  21086094.8364   -1004571.85047   -742467.68947                  21086099.8164
        21.5004         26.2504
  24119398.0314   -2412919.86845  -1845471.10745                  24119408.1604
         8.5004          4.5004
  21783019.5084    1590956.72446   1191429.99746                  21783024.4654
        19.2504         19.0004
  20742948.2664    -986018.51447   -730258.05947                  20742951.3014
        24.7504         33.2504
 00  5 11 19  9 45.0000000  0  6G 5G 6G10G17G24G30
  20709737.0164     945401.12647    712048.07047                  20709741.2464
        23.0004         28.7504
  22451277.6644   -1845025.03546  -1371776.91446                  22451282.3524
        15.7504         14.2504
  21083096.5784   -1020328.18047   -754745.33447                  21083101.5234
        21.7504         26.5004
  24110814.3364   -2458022.95745  -1880616.25044                  24110822.6134
         7.5004          4.0004
  21789248.1414    1623688.08146   1216934.93546                  21789252.8524
        19.5004         19.0004
  20739968.7114   -1001676.34747   -742458.96447                  20739971.8984
        24.5004         34.0004
 00  5 11 19 10  0.0000000  0  6G 5G 6G10G17G24G30
  20713905.3914     967305.79547    729116.62447                  20713909.5514
        23.0004         29.0004
  22444616.5554   -1880029.66646  -1399053.22146                  22444620.6914
        16.2504         14.7504
  21080128.5704   -1035925.22147   -766898.85247                  21080133.4924
        21.7504         26.2504
  24102242.2274   -2503070.42545  -1915718.04544                  24102251.4534
         7.7504          4.2504
  21795485.8134    1656468.14546   1242477.83046                  21795490.6294
        19.5004         19.0004
  20737017.3054   -1017184.96047   -754543.58647                  20737020.5634
        24.2504         33.2504
 00  5 11 19 10 15.0000000  0  6G 5G 6G10G17G24G30
  20718099.6174     989345.80747    746290.63547                  20718103.8364
        23.0004         29.2504
  22437960.6564   -1915007.60546  -1426308.73346                  22437965.2154
        16.2504         15.0004
  21077190.9144   -1051362.70347   -778928.04347                  21077195.8134
        21.5004         27.0004
  24093680.6644   -2548061.95745  -1950776.24845                  24093688.3444
         8.2504          4.5004
  21801732.9694    1689296.90846   1268058.66846                  21801737.7624
        19.7504         19.2504
  20734094.7734   -1032543.95947   -766511.63447                  20734097.9024
        24.2504         33.5004
 00  5 11 19 10 30.0000000  0  6G 5G 6G10G17G24G30
  20722319.7504    1011522.94947    763571.50747                  20722323.9694
        23.0004         29.0004
  22431309.8134   -1949956.83346  -1453541.87046                  22431314.2074
        16.5004         15.2504
  21074283.7424   -1066638.53947   -790831.27347                  21074288.6174
        21.5004         27.0004
  24085129.9384   -2592995.59745  -1985789.34245                  24085138.3094
         8.2504          4.5004
  21807989.6094    1722176.24946   1293678.92346                  21807994.2504
        19.7504         19.2504
  20731200.7194   -1047751.31847   -778361.51847                  20731203.9064
        24.2504         34.0004
 00  5 11 19 10 45.0000000  0  6G 5G 6G10G17G24G30
  20726566.1954    1033838.55747    780960.26647                  20726570.6024
        22.7504         28.7504
  22424665.0084   -1984875.77046  -1480751.40246                  22424669.6134
        16.2504         15.5004
  21071407.8984   -1081751.15747   -802607.32247                  21071412.9384
        21.5004         27.2504
  24076590.2034   -2637869.73845  -2020756.09144                  24076598.8914
         7.5004          4.2504
  21814256.3204    1755107.20947   1319339.39146                  21814260.9964
        20.0004         19.2504
  20728336.1564   -1062805.34947   -790091.92247                  20728339.2274
        24.5004         34.0004
 00  5 11 19 11  0.0000000  0  6G 5G 6G10G17G24G30
  20730839.1644    1056292.15247    798456.55347                  20730843.5824
        23.0004         29.0004
  22418025.7274   -2019764.62246  -1507937.49746                  22418030.4144
        16.2504         15.0004
  21068563.3204   -1096700.65347   -814256.26647                  21068568.3364
        21.2504         27.5004
  24068061.8284   -2682684.51245  -2055676.58845                  24068070.4804
         8.2504          4.5004
  21820532.7894    1788089.37946   1345039.76846                  21820537.5124
        19.7504         19.2504
  20725500.5234   -1077706.28447   -801703.03647                  20725503.7704
        24.5004         34.7504
 00  5 11 19 11 15.0000000  0  6G 5G 6G10G17G24G30
  20735138.5634    1078885.45147    816061.70147                  20735142.8754
        23.0004         28.7504
  22411392.6804   -2054621.29846  -1535098.51546                  22411397.2624
        16.2504         15.5004
  21065749.8914   -1111484.97847   -825776.50146                  21065754.9414
        21.5004         25.2504
  24059546.0004   -2727437.99045  -2090549.27344                  24059552.9414
         8.7504          4.0004
  21826819.0474    1821124.41846   1370781.34446                  21826823.9694
        19.7504         18.7504
  20722694.4774   -1092451.99847   -813193.19947                  20722697.5124
        24.2504         33.0004
 00  5 11 19 11 30.0000000  0  6G 5G 6G10G17G24G30
  20739463.9534    1101615.77847    833773.62247                  20739468.4414
        23.0004         28.7504
  22404765.2584   -2089448.32246  -1562236.42146                  22404770.0634
        16.0004         15.2504
  21062967.4224   -1126106.66147   -837169.99947                  21062972.6724
        21.5004         27.7504
  24051040.6334   -2772132.64745  -2125376.15045                  24051049.6844
         8.5004          4.7504
  21833114.9064    1854209.50246   1396561.91546                  21833119.7704
        19.7504         19.0004
  20719917.7344   -1107044.82647   -824564.23147                  20719920.8404
        24.5004         34.2504
 00  5 11 19 11 45.0000000  0  6G 5G 6G10G17G24G30
  20743815.3524    1124483.78647    851592.82647                  20743819.8754
        23.0004         29.0004
  22398143.5394   -2124244.77246  -1589350.50946                  22398148.4614
        15.7504         15.5004
  21060216.1484   -1140564.68247   -848435.96147                  21060221.4574
        21.7504         30.7504
  24042546.6334   -2816767.53845  -2160156.48244                  24042555.9534
         8.2504          4.2504
  21839420.4064    1887345.17546   1422381.90546                  21839424.9304
        19.5004         18.7504
  20717170.1724   -1121483.90747   -835815.46647                  20717173.2544
        24.5004         37.0004
 00  5 11 19 12  0.0000000  0  6G 5G 6G10G17G24G30
  20748193.2974    1147488.81947    869518.80447                  20748197.7624
        23.0004         28.7504
  22391527.8444   -2159011.06146  -1616441.09546                  22391532.7194
        15.5004         15.0004
  21057495.8914   -1154859.30647   -859574.61247                  21057501.2344
        21.5004         33.2504
  24034064.3054   -2861342.99645  -2194890.47745                  24034072.9804
         8.5004          4.7504
  21845735.5474    1920530.82346   1448240.84246                  21845740.3634
        19.5004         18.2504
  20714451.5554   -1135769.61647   -846947.18548                  20714454.5434
        24.7504         39.7504
 00  5 11 19 12 15.0000000  0  6G 5G 6G10G17G24G30
  20752596.8754    1170629.84447    887550.74847                  20752601.3874
        22.7504         28.7504
  22384917.6954   -2193747.99746  -1643508.80646                  22384922.3834
        15.5004         15.2504
  21054806.7814   -1168991.39447
        21.7504
  24025593.4454   -2905859.82445  -2229578.80445                  24025601.0314
         9.0004          4.5004
  21852059.5944    1953765.26146   1474137.78546                  21852064.4804
        19.2504         18.0004
  20711762.0944   -1149902.67647   -857959.87447                  20711764.4844
        24.7504         35.2504
 00  5 11 19 12 30.0000000  0  6G 5G 6G10G17G24G30
  20757027.0864    1193909.77047    905690.92847                  20757031.4344
        23.0004         28.5004
  22378313.7034   -2228452.39046  -1670551.16046                  22378318.7424
        15.5004         14.7504
  21052148.9384   -1182957.70847
        21.5004
  24017134.4694   -2950314.89245  -2264218.99245                  24017141.9264
         9.0004          5.0004
  21858393.9844    1987051.32646   1500074.95746                  21858398.8014
        19.2504         18.2504
  20709102.4224   -1163879.74047   -868851.17747                  20709105.2114
        24.5004         35.0004
 00  5 11 19 12 45.0000000  0  6G 5G 6G10G17G24G30
  20761483.5314    1217329.11847    923939.74547                  20761487.7384
        22.7504         28.2504
  22371715.9454   -2263123.43746  -1697567.53246                  22371720.6564
        15.5004         14.7504
  21049522.9614   -1196757.45247     -1426.47156                  21049527.7774
        21.7504         24.2504
  24008685.6094   -2994707.44545  -2298810.47345                  24008694.3914
         8.5004          4.5004
  21864737.8914    2020389.46146   1526052.70946                  21864742.7664
        19.0004         18.0004
  20706472.3674   -1177699.95947   -879620.16547                  20706475.1914
        24.5004         32.2504
 00  5 11 19 13  0.0000000  0  6G 5G 6G10G17G24G30
  20765966.2034    1240885.95347    942295.69947                  20765970.4574
        23.0004         28.5004
  22365124.1644   -2297762.81046  -1724559.21446                  22365129.0044
        15.7504         15.0004
  21046928.2974   -1210392.09847    -12050.86047                  21046933.0664
        21.7504         27.5004
  24000249.0234   -3039039.12645  -2333354.52545                  24000256.7034
         8.5004          5.0004
  21871091.6564    2053777.90446   1552069.65946                  21871096.7774
        19.0004         18.2504
  20703872.2814   -1191364.92447   -890268.17947                  20703875.3874
        24.5004         33.5004
 00  5 11 19 13 15.0000000  0  6G 5G 6G10G17G24G30
  20770475.0084    1264579.43847    960758.13447                  20770479.5904
        23.0004         28.2504
  22358538.6094   -2332371.09546  -1751526.68046                  22358543.5554
        15.7504         15.0004
  21044365.1024   -1223862.40447    -22547.17547                  21044369.9884
        21.7504         28.5004
  23991826.0004   -3083310.63845  -2367851.67245                  23991834.0314
         9.5004          4.7504
  21877454.4304    2087215.51446   1578124.92746                  21877459.3404
        19.0004         18.0004
  20701301.2194   -1204875.22147   -900795.68347                  20701304.3134
        24.5004         34.7504
 00  5 11 19 13 30.0000000  0  6G 5G 6G10G17G24G30
  20775009.7034    1288409.04947    979326.63747                  20775014.0744
        22.7504         28.5004
  22351958.4694   -2366948.57746  -1778470.15046                  22351963.1094
        15.7504         15.2504
  21041833.1094   -1237168.59647    -32915.62247                  21041837.9734
        21.7504         27.5004
  23983411.9224   -3127522.17945  -2402302.10445                  23983420.6684
         9.0004          5.0004
  21883826.8054    2120701.66746   1604218.02146                  21883831.7734
        19.0004         18.0004
  20698759.6954   -1218231.07247   -911202.84047                  20698762.7074
        24.5004         34.0004
 00  5 11 19 13 45.0000000  0  6G 5G 6G10G17G24G30
  20779570.1484    1312374.84747    998001.26447                  20779574.5434
        22.7504         28.5004
  22345384.6484   -2401494.95646  -1805389.38446                  22345389.1374
        16.2504         15.0004
  21039332.1334   -1250310.22647    -43155.83347                  21039336.9494
        21.7504         27.2504
  23975010.1954   -3171673.35145  -2436705.50445                  23975017.8874
         9.2504          4.5004
  21890208.1024    2154236.52746   1630349.06246                  21890213.0594
        18.7504         17.7504
  20696247.7034   -1231432.07547   -921489.33247                  20696250.6564
        24.7504         34.0004
 00  5 11 19 14  0.0000000  0  6G 5G 6G10G17G24G30
  20784157.5944    1336481.04147   1016785.28847                  20784162.0594
        22.7504         28.2504
  22338817.7814   -2436005.64246  -1832280.79946                  22338822.2934
        16.2504         15.2504
  21036863.6024   -1263282.74147    -53264.27247                  21036868.4414
        21.2504         26.2504
  23966621.1724   -3215759.61545  -2471058.31345                  23966629.6844
         9.7504          5.2504
  21896599.5634    2187824.24946   1656521.29346                  21896604.6604
        18.5004         17.2504
  20693765.7814   -1244473.65847   -931651.60247                  20693768.6174
        24.7504         32.7504
 00  5 11 19 14 15.0000000  0  6G 5G 6G10G17G24G30
  20788771.1334    1360725.10547   1035676.74147                  20788775.5744
        22.7504         28.5004
  22332256.9534   -2470482.86446  -1859146.14146                  22332261.0314
        16.5004         15.0004
  21034426.6644   -1276088.42447    -63242.70947                  21034431.6804
        21.2504         26.0004
  23958243.3054   -3259783.26345  -2505362.32945                  23958252.0864
         9.5004          5.2504
  21903000.9304    2221462.21546   1682732.68046                  21903005.9344
        18.5004         17.2504
  20691314.1724   -1257358.07947   -941691.40647                  20691317.0664
        25.0004         33.2504
 00  5 11 19 14 30.0000000  0  6G 5G 6G10G17G24G30
  20793410.3204    1385104.66647   1054673.77547                  20793414.7154
        22.7504         28.2504
  22325701.8834   -2504928.84246  -1885987.14146                  22325706.0434
        16.2504         15.5004
  21032021.2664   -1288729.51847    -73092.90047                  21032026.2704
        21.5004         26.7504
  23949876.8754   -3303746.55445  -2539619.32645                  23949884.2974
         9.5004          5.7504
  21909411.1094    2255147.95746   1708981.29246                  21909416.3714
        18.5004         17.5004
  20688891.8914   -1270087.44547   -951610.38847                  20688894.7274
        25.0004         33.7504
 00  5 11 19 14 45.0000000  0  6G 5G 6G10G17G24G30
  20798075.7114    1409620.69147   1073777.14747                  20798080.0824
        22.7504         28.2504
  22319152.9304   -2539342.24346  -1912802.75346                  22319157.1844
        16.0004         15.5004
  21029647.4224   -1301204.61047    -82813.73147                  21029652.4494
        21.5004         26.7504
  23941523.3834   -3347648.22545  -2573828.29945                  23941531.6604
         9.5004          5.5004
  21915830.4454    2288882.39446   1735267.85346                  21915835.6724
        18.2504         17.2504
  20686499.3674   -1282660.39447   -961407.49147                  20686502.2734
        25.0004         33.0004
 00  5 11 19 15  0.0000000  0  6G 5G 6G10G17G24G30
  20802766.9064    1434273.93447   1092987.44347                  20802771.3484
        22.7504         28.0004
  22312610.7974   -2573722.07546  -1939592.19946                  22312615.0274
        15.7504         15.0004
  21027305.2734   -1313512.73547    -92404.46847                  21027310.3134
        21.5004         26.5004
  23933181.1954   -3391487.16545  -2607988.39445                  23933188.8524
         9.7504          5.2504
  21922259.4224    2322666.28746   1761592.95046                  21922264.6724
        18.2504         17.2504
  20684136.6484   -1295075.82547   -971081.85147                  20684139.6484
        24.5004         32.5004
 00  5 11 19 15 15.0000000  0  6G 5G 6G10G17G24G30
  20807484.5864    1459065.69747   1112305.67247                  20807489.1564
        22.7504         27.7504
  22306075.1174   -2608066.70246  -1966354.22346                  22306079.4534
        15.7504         14.7504
  21024995.0004   -1325652.22147   -101863.78647                  21024999.9224
        21.7504         26.7504
  23924850.3364   -3435261.70745  -2642098.31645                  23924857.8054
         9.7504          5.5004
  21928697.7114    2356500.98846   1787957.63346                  21928703.0904
        18.2504         17.2504
  20681804.3674   -1307332.13447   -980632.21947                  20681807.2854
        24.5004         32.7504
 00  5 11 19 15 30.0000000  0  6G 5G 6G10G17G24G30
  20812228.5004    1483994.26047   1131730.50147                  20812232.9184
        22.5004         28.2504
  22299545.8364   -2642377.63846  -1993090.00046                  22299550.5234
        15.7504         15.0004
  21022716.8914   -1337624.50247   -111192.82347                  21022721.7544
        21.7504         27.2504
  23916532.0164   -3478973.50245  -2676159.33445                  23916540.1524
         9.5004          5.7504
  21935145.7274    2390384.58646   1814360.41446                  21935151.0234
        18.0004         17.0004
  20679502.0474   -1319430.68847   -990059.66347                  20679504.8834
        24.5004         32.7504
 00  5 11 19 15 45.0000000  0  6G 5G 6G10G17G24G30
  20816998.3524    1509059.88647   1151262.12747                  20817002.8054
        22.2504         27.7504
  22293023.0314   -2676654.39246  -2019799.12746                  22293027.9654
        15.7504         14.7504
  21020470.5314   -1349429.14647   -120391.23247                  21020475.3244
        21.7504         26.7504
  23908226.5784   -3522621.99045  -2710171.05345                  23908234.3754
         9.5004          5.7504
  21941602.7344    2424317.28146   1840801.46246                  21941608.1254
        18.0004         16.7504
  20677230.1334   -1331370.98447   -999363.79047                  20677232.9344
        24.5004         32.7504
 00  5 11 19 16  0.0000000  0  6G 5G 6G10G17G24G30
  20821794.4304    1534263.25047   1170901.08647                  20821799.0354
        22.2504         28.0004
  22286507.2194   -2710895.91546  -2046480.80846                  22286512.1294
        15.5004         15.0004
  21018256.0864   -1361065.08947   -129458.18747                  21018260.7274
        21.7504         27.0004
  23899932.3054   -3566206.16545  -2744132.62245                  23899939.8914
         9.2504          6.0004
  21948069.3524    2458299.73246   1867281.27346                  21948074.9304
        17.7504         16.5004
  20674988.1334   -1343152.07747  -1008543.85847                  20674991.1564
        24.2504         32.5004
 00  5 11 19 16 15.0000000  0  6G 5G 6G10G17G24G30
  20826616.5704    1559603.99947   1190647.10047                  20826621.2234
        22.2504         27.5004
  22279998.1564   -2745102.29146  -2073135.09646                  22280002.9384
        15.7504         15.2504
  21016074.2194   -1372532.40047   -138393.73647                  21016078.8954
        22.0004         27.2504
  23891650.8984   -3609726.14045  -2778044.17445                  23891658.9184
         9.7504          5.5004
  21954545.4774    2492331.55646   1893799.55946                  21954550.9264
        17.7504         16.2504
  20672776.5084   -1354773.86647  -1017599.79447                  20672779.6954
        24.2504         32.5004
 00  5 11 19 16 30.0000000  0  6G 5G 6G10G17G24G30
  20831464.8284    1585081.42147   1210499.61047                  20831469.3634
        22.2504         28.2504
  22273495.3594   -2779273.84346  -2099762.25946                  22273500.1764
        15.7504         15.2504
  21013923.9774   -1383831.43147   -147198.16147                  21013928.6764
        22.0004         27.5004
  23883381.6334   -3653182.29445  -2811906.00345                  23883388.9844
        10.0004          5.7504
  21961030.7974    2526412.06746   1920355.78746                  21961036.0594
        17.7504         16.2504
  20670595.1484   -1366236.87047  -1026532.00447                  20670598.3714
        24.0004         32.0004
 00  5 11 19 16 45.0000000  0  6G 5G 6G10G17G24G30
  20836339.1024    1610695.97547   1230458.97547                  20836343.6954
        22.5004         27.7504
  22266999.6884   -2813409.87846  -2126361.73746                  22267004.4574
        15.7504         15.7504
  21011805.8054   -1394961.48647   -155870.91747                  21011810.3874
        21.7504         26.7504
  23875123.5554   -3696573.91045  -2845717.53445                  23875131.8204
         9.7504          5.7504
  21967525.5004    2560541.69246   1946950.27346                  21967530.8094
        18.0004         16.2504
  20668444.1334   -1377540.29747  -1035339.86947                  20668447.3914
        24.0004         31.7504
 00  5 11 19 17  0.0000000  0  6G 5G 6G10G17G24G30
  20841239.5704    1636447.29747   1250524.91247                  20841244.2584
        22.5004         28.2504
  22260510.4144   -2847510.43846  -2152933.57746                  22260515.1724
        16.0004         16.0004
  21009719.9694   -1405922.75447   -164412.14547                  21009724.7034
        21.7504         27.0004
  23866879.2114   -3739901.04145  -2879478.82945                  23866886.9494
         9.7504          5.5004
  21974029.5554    2594720.01846   1973582.71646                  21974034.7704
        18.2504         16.5004
  20666323.4144   -1388684.18547  -1044023.41947                  20666326.5554
        24.2504         32.2504
 00  5 11 19 17 15.0000000  0  6G 5G 6G10G17G24G30
  20846165.9844    1662335.85247   1270697.78547                  20846170.6484
        22.2504         28.2504
  22254028.2034   -2881574.82346  -2179477.22846                  22254032.9024
        16.5004         16.5004
  21007666.4774   -1416714.46647   -172821.25847                  21007671.1174
        21.5004         26.7504
  23858646.6484   -3783163.04545  -2913189.36445                  23858654.9144
         9.7504          5.7504
  21980542.5704    2628947.33346   2000253.33146                  21980547.6454
        18.2504         16.7504
  20664233.4224   -1399667.61347  -1052581.93447                  20664236.4924
        24.2504         32.5004
 00  5 11 19 17 30.0000000  0  6G 5G 6G10G17G24G30
  20851118.3054    1688360.67047   1290976.83547                  20851122.8874
        22.5004         28.0004
  22247552.7424   -2915603.70546  -2205993.21446                  22247557.1724
        16.7504         17.2504
  21005644.9454   -1427337.32447   -181098.79647                  21005649.8554
        21.7504         26.5004
  23850425.8444   -3826360.67345  -2946849.75245                  23850433.4064
         9.2504          5.7504
  21987065.2194    2663222.78946   2026961.46046                  21987070.1644
        18.5004         17.0004
  20662173.7664   -1410491.34847  -1061016.01347                  20662176.8134
        24.2504         32.2504
 00  5 11 19 17 45.0000000  0  6G 5G 6G10G17G24G30
  20856096.8364    1714522.02047   1311362.27647                  20856101.3714
        22.7504         28.2504
  22241084.2114   -2949596.59846  -2232481.16346                  22241089.0274
        16.7504         16.7504
  21003655.7734   -1437790.71247   -189244.28447                  21003660.3914
        21.5004         27.2504
  23842218.8594   -3869493.30145  -2980459.49145                  23842225.3164
        10.0004          5.2504
  21993596.9774    2697546.54946   2053707.22846                  21993601.9454
        18.5004         16.7504
  20660144.6334   -1421154.83747  -1069325.22447                  20660147.5274
        24.2504         32.5004
 00  5 11 19 18  0.0000000  0  6G 5G 6G10G17G24G30
  20861101.1884    1740820.42047   1331854.50547                  20861105.9104
        22.7504         28.0004
  22234622.2894   -2983552.68946  -2258940.42746                  22234626.8834
        17.0004         17.7504
  21001699.0554   -1448073.87447   -197257.12147                  21001703.8714
        21.2504         27.0004
  23834022.8674   -3912560.22645  -3014018.01445                  23834030.3834
         9.5004          5.7504
  22000137.5704    2731918.99546   2080490.93246                  22000142.5514
        18.2504         16.5004
  20658145.9844   -1431657.28747  -1077508.95147                  20658148.9844
        24.2504         32.7504
 00  5 11 19 18 15.0000000  0  6G 5G 6G10G17G24G30
  20866131.5234    1767254.91147   1352452.78347                  20866135.9304
        22.7504         28.5004
  22228167.7814   -3017472.59146  -2285371.49546                  22228172.3054
        17.2504         17.7504
  20999774.2734   -1458187.46047   -205137.82047                  20999779.2894
        21.2504         26.7504
  23825839.5784   -3955562.06745  -3047525.82545                  23825847.6454
         9.2504          5.2504
  22006687.5704    2766339.30746   2107311.92946                  22006692.2814
        18.2504         16.7504
  20656178.1094   -1441999.34747  -1085567.70247                  20656181.2154
        24.5004         32.7504
 00  5 11 19 18 30.0000000  0  6G 5G 6G10G17G24G30
  20871187.7114    1793824.54947   1373156.37147                  20871192.1884
        22.7504         28.2504
  22221719.8054   -3051356.95746  -2311774.87246                  22221723.9414
        17.2504         17.2504
  20997881.7894   -1468132.18947   -212886.94447                  20997886.7934
        21.5004         27.2504
  23817669.3674   -3998499.49745  -3080983.46945                  23817677.2934
         9.2504          5.2504
  22013246.8754    2800806.49746   2134169.45846                  22013251.7854
        18.2504         16.5004
  20654240.4614   -1452181.63047  -1093501.94647                  20654243.5904
        24.2504         32.7504
 00  5 11 19 18 45.0000000  0  6G 5G 6G10G17G24G30
  20876269.4304    1820528.86747   1393964.90047                  20876274.0704
        22.7504         27.7504
  22215278.7814   -3085205.96746  -2338150.70546                  22215283.0704
        17.5004         17.5004
  20996021.5944   -1477908.20747   -220504.60947                  20996026.4104
        21.5004         27.0004
  23809510.2584   -4041372.70245  -3114391.05145                  23809518.3834
         9.0004          5.5004
  22019814.5784    2835319.95946   2161063.04446                  22019819.6644
        18.2504         16.0004
  20652333.1174   -1462204.30047  -1101311.82247                  20652336.2114
        24.2504         32.7504
 00  5 11 19 19  0.0000000  0  6G 5G 6G10G17G24G30
  20881376.7894    1847368.26347   1414878.68747                  20881381.4414
        22.7504         28.2504
  22208844.0554   -3119018.89046  -2364498.40946                  22208848.4844
        17.5004         17.5004
  20994193.4844   -1487514.92947   -227990.35147                  20994198.4534
        21.7504         27.2504
  23801363.2814   -4084181.06945  -3147748.11745                  23801371.3834
         8.7504          5.2504
  22026391.0394    2869880.14646   2187993.03546                  22026396.0664
        18.2504         16.5004
  20650456.4304   -1472066.62347  -1108996.74947                  20650459.6994
        24.2504         33.0004
 00  5 11 19 19 15.0000000  0  6G 5G 6G10G17G24G30
  20886509.8364    1874343.40347   1435898.25047                  20886514.5004
        22.7504         27.5004
  22202416.7734   -3152794.77646  -2390817.26146                  22202421.1684
        17.2504         17.5004
  20992397.8284   -1496951.31847   -235343.36347                  20992402.6914
        21.7504         27.0004
  23793230.1954   -4126923.50345  -3181053.81945                  23793237.8054
         8.5004          5.5004
  22032976.7344    2904487.66846   2214959.91546                  22032981.4454
        18.5004         16.0004
  20648610.4614   -1481767.65747  -1116555.99747                  20648613.8954
        24.2504         32.7504
 00  5 11 19 19 30.0000000  0  6G 5G 6G10G17G24G30
  20891668.7814    1901453.64647   1457023.08547                  20891673.5164
        22.7504         28.0004
  22195996.3674   -3186533.87946  -2417107.44646                  22196000.8444
        17.2504         17.0004
  20990634.5864   -1506217.59047   -242563.82547                  20990639.4614
        21.2504         27.2504
  23785108.7734   -4169600.31245  -3214308.36045                  23785115.6564
         9.2504          5.0004
  22039571.3364    2939141.96046   2241963.23446                  22039576.2704
        18.2504         16.2504
  20646794.9694   -1491307.60847  -1123989.72447                  20646798.2974
        24.2504         33.2504
 00  5 11 19 19 45.0000000  0  6G 5G 6G10G17G24G30
  20896853.4614    1928698.36747   1478252.70847                  20896858.0664
        22.7504         27.5004
  22189583.2034   -3220236.61746  -2443369.29946                  22189587.5044
        17.2504         17.2504
  20988903.3444   -1515314.36547   -249652.19947                  20988908.3244
        21.5004         27.0004
  23777000.2194   -4212212.05845  -3247512.22445                  23777008.0274
         9.2504          5.0004
  22046174.4064    2973842.32446   2269002.45846                  22046179.5394
        18.2504         16.0004
  20645010.1564   -1500686.93547  -1131298.29247                  20645013.4614
        24.2504         33.0004
 00  5 11 19 20  0.0000000  0  6G 5G 6G10G17G24G30
  20902063.0234    1956076.18647   1499586.04647                  20902067.6174
        22.7504         27.5004
  22183176.2664   -3253903.96646  -2469603.57046                  22183180.9884
        17.2504         16.7504
  20987204.4844   -1524242.69247   -256609.32947                  20987209.3714
        21.7504         27.5004
  23768903.4694   -4254759.74345  -3280666.16245                  23768911.3244
         9.0004          5.2504
  22052786.1724    3008587.35546   2296076.49346                  22052791.3874
        17.7504         15.7504
  20643255.6564   -1509906.69947  -1138482.52547                  20643258.8554
        24.2504         33.0004
 00  5 11 19 20 15.0000000  0  6G 5G 6G10G17G24G30
  20907298.6254    1983588.19547   1521023.94847                  20907303.3014
        22.5004         27.2504
  22176776.6254   -3287534.57946  -2495809.21546                  22176780.8324
        17.0004         16.7504
  20985537.7504   -1533001.06047   -263434.01247                  20985542.5434
        21.7504         27.2504
  23760818.9224   -4297241.96545  -3313769.07845                  23760826.3324
         9.0004          5.5004
  22059406.5784    3043378.21046   2323186.22346                  22059411.9804
        17.5004         15.2504
  20641531.9694   -1518965.44747  -1145541.28947                  20641535.2034
        24.2504         33.2504
 00  5 11 19 20 30.0000000  0  6G 5G 6G10G17G24G30
  20912559.6954    2011235.23847   1542567.06947                  20912564.3484
        22.2504         27.0004
  22170383.8914   -3321127.24946  -2521985.30146                  22170388.1684
        16.7504         16.2504
  20983903.6024   -1541588.41747   -270125.44547                  20983908.3714
        21.7504         27.7504
  23752747.4534   -4339657.64045  -3346820.17045                  23752754.8754
         8.5004          5.2504
  22066036.1804    3078215.68546   2350332.28446                  22066041.8054
        17.5004         15.2504
  20639839.0634   -1527861.91947  -1152473.60447                  20639842.3324
        24.2504         33.0004
 00  5 11 19 20 45.0000000  0  6G 5G 6G10G17G24G30
  20917846.0164    2039015.35447   1564213.88447                  20917850.6684
        22.0004         27.0004
  22163998.3754   -3354683.60246  -2548133.08546                  22164002.8404
        16.5004         16.2504
  20982301.7274   -1550006.46047   -276684.94247                  20982306.4494
        21.7504         27.5004
  23744689.0004   -4382008.42845  -3379820.68045                  23744696.4104
         9.0004          5.5004
  22072673.7424    3113097.77646   2377513.11346                  22072679.1914
        17.5004         15.0004
  20638176.6484   -1536597.81547  -1159280.79947                  20638179.8834
        24.2504         32.5004
 00  5 11 19 21  0.0000000  0  6G 5G 6G10G17G24G30
  20923157.7584    2066927.95847   1585963.93547                  20923162.4694
        22.2504         27.0004
  22157619.4774   -3388203.87446  -2574252.75546                  22157623.8954
        16.5004         16.0004
  20980731.9454   -1558255.41247   -283112.68547                  20980736.8674
        21.7504         27.5004
  23736642.1174   -4424294.61245  -3412770.85745                  23736649.3524
         9.0004          5.5004
  22079320.3444    3148023.92346   2404728.26846                  22079325.7464
        17.5004         15.0004
  20636544.7344   -1545173.48647  -1165963.14347                  20636547.8634
        24.2504         32.7504
 00  5 11 19 21 15.0000000  0  6G 5G 6G10G17G24G30
  20928494.7034    2094973.53847   1607817.60547                  20928499.3094
        22.2504         26.5004
  22151247.7894   -3421687.32446  -2600343.73046                  22151252.4654
        16.7504         16.2504
  20979194.3914   -1566334.61847   -289408.15447                  20979199.2304
        21.5004         27.0004
  23728607.5864   -4466515.45045  -3445670.10845                  23728616.3094
         9.2504          5.2504
  22085974.9774    3182994.59246   2431978.11446                  22085980.0984
        17.5004         14.7504
  20634943.5554   -1553588.11747  -1172520.00047                  20634946.6604
        24.2504         32.5004
 00  5 11 19 21 30.0000000  0  6G 5G 6G10G17G24G30
  20933856.9924    2123153.20347   1629775.75347                  20933861.5514
        22.0004         26.5004
  22144883.3834   -3455132.58746  -2626404.94846                  22144887.7074
        17.0004         16.5004
  20977689.6484   -1574242.80947   -295570.36847                  20977694.5704
        21.5004         27.2504
  23720585.3364   -4508669.55745  -3478517.38045                  23720593.1454
         9.0004          5.2504
  22092638.3054    3218010.79846   2459263.45146                  22092643.3674
        17.2504         15.0004
  20633373.0314   -1561840.21847  -1178950.21047                  20633376.1374
        24.2504         32.2504
 00  5 11 19 21 45.0000000  0  6G 5G 6G10G17G24G30
  20939244.7894    2151466.34647   1651837.91347                  20939249.4184
        21.7504         26.2504
  22138526.3054   -3488540.05046  -2652436.71246                  22138530.7234
        17.0004         16.7504
  20976217.2814   -1581980.24847   -301599.53047                  20976222.1454
        21.5004         27.2504
  23712576.4064   -4550757.40245  -3511312.99345                  23712584.3794
         9.2504          5.2504
  22099309.9774    3253072.02446   2486583.86646                  22099315.2034
        17.2504         14.5004
  20631833.6804   -1569930.08247  -1185253.99947                  20631836.6564
        24.2504         32.7504
 00  5 11 19 22  0.0000000  0  6G 5G 6G10G17G24G30
  20944657.9384    2179911.98047   1674003.30947                  20944662.6134
        21.7504         26.2504
  22132175.9694   -3521910.28246  -2678439.46846                  22132180.3164
        17.2504         16.5004
  20974777.3524   -1589547.59447   -307496.15047                  20974782.1564
        21.7504         27.5004
  23704580.3524   -4592779.61145  -3544057.49645                  23704587.5634
         9.2504          5.2504
  22105990.6414    3288177.13446   2513938.47346                  22105996.0084
        17.2504         14.7504
  20630324.9534   -1577858.54647  -1191432.02447                  20630328.0354
        24.2504         32.2504
 00  5 11 19 22 15.0000000  0  6G 5G 6G10G17G24G30
  20950096.2974    2208490.65347   1696272.37447                  20950101.1604
        21.5004         26.0004
  22125833.2734   -3555242.36846  -2704412.50246                  22125837.4104
        17.2504         17.2504
  20973369.8284   -1596944.03547   -313259.59747                  20973374.4694
        21.7504         27.0004
  23696595.6954   -4634735.23845  -3576750.07945                  23696602.5554
         9.5004          5.5004
  22112679.4534    3323326.78546   2541327.79046                  22112684.9494
        17.2504         14.2504
  20628847.1644   -1585624.74047  -1197483.60547                  20628850.2114
        24.0004         32.2504
 00  5 11 19 22 30.0000000  0  6G 5G 6G10G17G24G30
  20955559.8054    2237201.66847   1718644.56147                  20955564.3754
        21.5004         25.7504
  22119497.7114   -3588536.59646  -2730356.03546                  22119501.8014
        17.5004         17.5004
  20971994.6334   -1604169.99547   -318890.20447                  20971999.2734
        21.2504         27.0004
  23688624.0554   -4676624.71545  -3609391.14245                  23688631.2774
         9.7504          5.7504
  22119376.2274    3358520.34646   2568751.31946                  22119381.5594
        17.0004         14.2504
  20627400.1334   -1593228.96847  -1203408.97747                  20627403.3554
        24.0004         32.2504
 00  5 11 19 22 45.0000000  0  6G 5G 6G10G17G24G30
  20961048.6024    2266045.65847   1741120.36747                  20961053.1254
        21.5004         25.7504
  22113169.4534   -3621792.00346  -2756269.31446                  22113173.6844
        17.7504         17.7504
  20970652.3204   -1611224.55247   -324387.24547                  20970657.2894
        21.2504         27.0004
  23680666.0234   -4718447.07945  -3641979.90945                  23680674.6294
         9.7504          6.0004
  22126082.2424    3393758.39446   2596209.52246                  22126087.7734
        17.0004         14.5004
  20625984.1644   -1600670.19547  -1209207.33847                  20625987.3054
        24.0004         31.7504
 00  5 11 19 23  0.0000000  0  6G 5G 6G10G17G24G30
  20966562.8524    2295022.34747   1763699.57247                  20966567.4574
        21.5004         26.0004
  22106848.5784   -3655008.59046  -2782152.34546                  22106852.7734
        18.0004         18.2504
  20969342.3284   -1618107.81447   -329750.81547                  20969347.0514
        21.7504         27.0004
  23672720.4774   -4760202.38845  -3674516.40745                  23672727.9574
         9.7504          5.5004
  22132796.2274    3429040.71446   2623702.21646                  22132801.3834
        17.0004         14.2504
  20624599.3134   -1607948.43247  -1214878.69247                  20624602.4534
        24.0004         32.2504
 00  5 11 19 23 15.0000000  0  6G 5G 6G10G17G24G30
  20972102.1414    2324131.34447   1786381.87546                  20972106.7934
        21.5004         25.5004
  22100535.0084   -3688186.50046  -2808005.24046                  22100538.9454
        18.2504         18.5004
  20968065.1024   -1624819.84347   -334980.95447                  20968069.7424
        21.7504         27.0004
  23664787.0944   -4801890.80745  -3707000.80745                  23664793.7854
         9.7504          6.2504
  22139518.4454    3464366.84546   2651229.05146                  22139523.8714
        16.7504         14.2504
  20623245.1174   -1615063.83447  -1220423.16247                  20623248.3054
        24.2504         32.5004
 00  5 11 19 23 30.0000000  0  6G 5G 6G10G17G24G30
  20977666.5704    2353372.50147   1809167.15646                  20977671.3874
        21.2504         25.2504
  22094228.7894   -3721325.56546  -2833827.86646                  22094232.7974
        18.5004         19.5004
  20966820.4454   -1631360.39047   -340077.47847                  20966825.1914
        21.7504         27.2504
  23656867.0864   -4843512.13645  -3739432.92345                  23656874.9774
         9.7504          6.0004
  22146249.1334    3499736.67146   2678789.92646                  22146254.8054
        17.0004         14.0004
  20621921.8834   -1622016.35847  -1225840.71547                  20621924.9414
        24.2504         32.2504
 00  5 11 19 23 45.0000000  0  6G 5G 6G10G17G24G30
  20983256.2814    2382746.79047   1832056.18046                  20983261.1454
        21.2504         25.5004
  22087930.4064   -3754424.45046  -2859619.18246                  22087934.6024
        18.2504         19.2504
  20965608.8754   -1637728.28147   -345039.45947                  20965613.8674
        21.2504         27.0004
  23648959.7194   -4885065.04845  -3771811.71845                  23648967.9144
        10.2504          6.2504
  22152988.2424    3535151.12446   2706385.58646                  22152993.6564
        17.0004         14.2504
  20620630.4774   -1628804.53247  -1231130.19947                  20620633.5124
        24.5004         32.5004
 00  5 11 19 24  0.0000000  0  6G 5G 6G10G17G24G30
  20988871.0084    2412252.35047   1855047.49246                  20988875.7194
        21.2504         24.7504
  22081639.1094   -3787484.60546  -2885380.32346                  22081643.2934
        18.5004         19.7504
  20964429.4924   -1643925.15847   -349868.18047                  20964434.5434
        21.5004         27.2504
  23641065.0864   -4926551.24745  -3804138.54845                  23641072.4264
        10.0004          6.7504
  22159735.4924    3570608.43146   2734014.63146                  22159740.8134
        17.2504         14.0004
  20619369.6564   -1635429.95747  -1236292.87147                  20619372.6564
        24.2504         32.5004
 00  5 11 19 24 15.0000000  0  6G 5G 6G10G17G24G30
  20994510.9224    2441889.61347   1878141.43246                  20994515.6334
        21.5004         25.2504
  22075355.4924   -3820505.29946  -2911110.70846                  22075359.9104
        18.5004         19.5004
  20963282.9774   -1649950.34547   -354563.12347                  20963287.8984
        21.5004         27.0004
  23633183.1724   -4967969.91245  -3836412.72745                  23633190.8754
        10.0004          6.7504
  22166491.0394    3606108.98846   2761677.38446                  22166496.4774
        17.0004         14.2504
  20618140.0004   -1641891.96947  -1241328.20547                  20618143.0594
        24.2504         32.5004
 00  5 11 19 24 30.0000000  0  6G 5G 6G10G17G24G30
  21000175.4304    2471656.43847   1901336.32946                  21000180.2234
        21.5004         24.7504
  22069078.8834   -3853488.32746  -2936811.73946                  22069083.2664
        18.2504         20.0004
  20962168.7974   -1655805.75447   -359125.76547                  20962173.5664
        21.2504         27.7504
  23625314.2274   -5009322.81545  -3868635.68645                  23625321.9064
        10.2504          6.7504
  22173254.5704    3641650.71946   2789372.22146                  22173259.7504
        17.0004         13.7504
  20616940.8984   -1648192.42247  -1246237.64747                  20616943.8634
        24.5004         32.2504
 00  5 11 19 24 45.0000000  0  6G 5G 6G10G17G24G30
  21005864.7894    2501554.17447   1924633.23646                  21005869.8524
        21.5004         24.7504
  22062809.9224   -3886432.00146  -2962482.11346                  22062814.1994
        18.0004         19.5004
  20961087.1334   -1661489.82747   -363554.90547                  20961091.9384
        21.2504         26.7504
  23617457.5394   -5050608.43745  -3900806.21745                  23617464.1484
        10.7504          6.7504
  22180025.9224    3677234.89046   2817100.12246                  22180031.5004
        16.7504         14.2504
  20615773.0474   -1654329.60047  -1251019.86647                  20615775.9654
        24.5004         32.5004
 00  5 11 19 25  0.0000000  0  6G 5G 6G10G17G24G30
  21011579.0864    2531582.74247   1948032.09346                  21011583.9734
        21.2504         24.7504
  22056548.5164   -3919336.05246  -2988121.61246                  22056552.7934
        18.0004         19.2504
  20960038.2274   -1667002.29147   -367850.32047                  20960043.1374
        21.5004         27.5004
  23609614.4844   -5091826.54745  -3932924.13745                  23609621.4144
        10.7504          6.7504
  22186805.7034    3712861.54146   2844861.11946                  22186811.4224
        17.0004         14.0004
  20614636.2814   -1660303.24847  -1255674.65647                  20614639.3984
        24.5004         32.5004
 00  5 11 19 25 15.0000000  0  6G 5G 6G10G17G24G30
  21017318.3834    2561742.95347   1971533.52646                  21017323.2114
        21.2504         24.5004
  22050294.7584   -3952199.23046  -3013729.26046                  22050299.1644
        18.0004         18.7504
  20959022.0474   -1672342.00147   -372011.12747                  20959026.8284
        21.7504         27.5004
  23601783.3444   -5132976.01945  -3964988.57245                  23601790.3914
        10.7504          6.7504
  22193593.4534    3748531.51046   2872655.88346                  22193598.8794
        17.0004         13.7504
  20613530.7814   -1666112.17247  -1260201.09147                  20613533.9694
        24.2504         32.5004
 00  5 11 19 25 30.0000000  0  6G 5G 6G10G17G24G30
  21023082.4304    2592033.55547   1995136.55746                  21023087.2704
        21.0004         24.5004
  22044048.4454   -3985022.45246  -3039305.77246                  22044052.9924
        17.5004         18.5004
  20958038.4304   -1677509.96847   -376038.10347                  20958043.2234
        21.7504         27.5004
  23593966.0944   -5174057.78545  -3997000.24945                  23593973.0474
        10.2504          6.7504
  22200389.1644    3784243.52746   2900483.40346                  22200394.3204
        17.2504         14.5004
  20612456.6414   -1671757.40247  -1264599.97247                  20612459.8984
        24.2504         32.7504
 00  5 11 19 25 45.0000000  0  6G 5G 6G10G17G24G30
  21028871.7814    2622456.18247   2018842.47146                  21028876.8204
        21.0004         24.5004
  22037810.4774   -4017803.82446  -3064849.67146                  22037814.8594
        17.5004         18.0004
  20957088.1644   -1682504.42947   -379929.88447                  20957092.8284
        22.0004         27.7504
  23586161.1954   -5215069.96045  -4028957.70745                  23586168.0784
        10.2504          6.7504
  22207193.2894    3819999.20746   2928344.95446                  22207198.3754
        17.2504         14.7504
  20611413.9694   -1677236.98947  -1268869.77747                  20611417.1214
        24.2504         32.5004
 00  5 11 19 26  0.0000000  0  6G 5G 6G10G17G24G30
  21034685.6644    2653008.53747   2042649.46746                  21034690.7734
        21.0004         23.7504
  22031580.0314   -4050545.23146  -3090362.43546                  22031584.6024
        17.2504         18.0004
  20956170.4224   -1687327.30447   -383687.96147                  20956175.0164
        21.7504         27.7504
  23578369.3444   -5256014.54945  -4060862.49945                  23578376.6484
        10.0004          6.7504
  22214005.3364    3855796.39946   2956238.84346                  22214010.9844
        17.0004         14.2504
  20610402.3674   -1682552.90747  -1273012.05047                  20610405.4264
        24.2504         32.2504
 00  5 11 19 26 15.0000000  0  6G 5G 6G10G17G24G30
  21040524.3204    2683691.88447   2066558.53046                  21040529.1844
        21.0004         23.7504
  22025357.4384   -4083245.11846  -3115842.84546                  22025362.1134
        17.0004         18.2504
  20955285.4454   -1691977.14747   -387311.20647                  20955290.1564
        21.7504         27.7504
  23570591.3204   -5296889.97145  -4092713.39045                  23570598.5084
        10.0004          7.0004
  22220825.2584    3891636.16246   2984165.91146                  22220830.8954
        17.0004         14.0004
  20609422.3594   -1687703.65447  -1277025.62547                  20609425.6054
        24.0004         32.2504
 00  5 11 19 26 30.0000000  0  6G 5G 6G10G17G24G30
  21046388.2584    2714506.82247   2090570.13946                  21046393.0044
        21.0004         23.7504
  22019142.7194   -4115902.57146  -3141290.18746                  22019147.3244
        17.0004         17.7504
  20954433.6724   -1696453.10647   -390798.95847                  20954438.2664
        22.0004         27.7504
  23562825.9924   -5337695.42745  -4124509.76945                  23562832.8984
         9.5004          6.7504
  22227653.6414    3927519.30146   3012126.78046                  22227659.1954
        17.0004         14.0004
  20608473.5634   -1692688.39447  -1280909.83747                  20608476.6804
        24.2504         32.5004
 00  5 11 19 26 45.0000000  0  6G 5G 6G10G17G24G30
  21052277.3754    2745453.19847   2114684.16546                  21052282.2384
        21.0004         24.0004
  22012936.5554   -4148517.34046  -3166704.27446                  22012940.9734
        17.0004         17.0004
  20953615.2734   -1700755.03547   -394151.10447                  20953619.7974
        21.7504         27.7504
  23555074.4844   -5378430.69845  -4156251.45245                  23555082.0354
        10.2504          6.5004
  22234490.5004    3963445.61346   3040121.27946                  22234496.1024
        17.0004         14.0004
  20607556.6334   -1697506.91747  -1284664.53647                  20607559.7974
        23.7504         32.5004
 00  5 11 19 27  0.0000000  0  6G 5G 6G10G17G24G30
  21058191.2034    2776530.62647   2138900.30546                  21058195.9964
        20.7504         23.7504
  22006738.1254   -4181089.55246  -3192085.19346                  22006742.6724
        17.0004         17.7504
  20952829.7274   -1704883.17347   -397367.82747                  20952834.3554
        21.7504         27.5004
  23547336.2894   -5419095.92045  -4187938.54645                  23547343.3594
        10.5004          6.5004
  22241335.2034    3999414.61946   3068149.04946                  22241340.5474
        17.0004         14.0004
  20606671.3594   -1702159.39747  -1288289.84747                  20606674.5354
        23.7504         32.0004
 00  5 11 19 27 15.0000000  0  6G 5G 6G10G17G24G30
  21064130.1174    2807739.68647   2163219.01746                  21064135.1804
        20.5004         23.5004
  22000547.9384   -4213618.14946  -3217432.13246                  22000552.4494
        17.0004         17.5004
  20952077.2194   -1708836.52947   -400448.35647                  20952081.9774
        21.7504         27.7504
  23539611.0164   -5459690.13445  -4219570.33545                  23539618.2384
        10.2504          6.5004
  22248188.0704    4035427.16546   3096210.75446                  22248193.3674
        16.7504         14.2504
  20605817.8134   -1706644.88047  -1291785.03447                  20605821.1174
        24.0004         32.7504
 00  5 11 19 27 30.0000000  0  6G 5G 6G10G17G24G30
  21070093.9534    2839079.73647   2187639.79646                  21070099.0044
        20.5004         23.5004
  21994366.4614   -4246103.41946  -3242745.30146                  21994371.1134
        17.2504         17.7504
  20951358.0704   -1712615.49247   -403392.99847                  20951362.8164
        21.2504         27.2504
  23531900.0314   -5500213.67345  -4251147.02845                  23531906.7704
        10.2504          6.2504
  22255049.1724    4071482.46746   3124305.77246                  22255054.6454
        17.0004         14.0004
  20604995.8204   -1710963.71847  -1295150.36547                  20604998.9384
        23.7504         32.0004
 00  5 11 19 27 45.0000000  0  6G 5G 6G10G17G24G30
  21076082.5784    2870550.35747   2212162.32046                  21076087.6294
        20.5004         23.5004
  21988192.9144   -4278545.47146  -3268024.80746                  21988197.0744
        17.7504         18.2504
  20950672.0944   -1716220.26547   -406201.90647                  20950676.8754
        21.2504         27.5004
  23524200.8134   -5540666.74845  -4282668.81745                  23524208.1294
         9.7504          6.5004
  22261918.5394    4107580.15446   3152433.81846                  22261923.7424
        17.0004         14.2504
  20604205.8754   -1715116.12747  -1298386.00947                  20604209.1914
        24.0004         31.5004
 00  5 11 19 28  0.0000000  0  6G 5G 6G10G17G24G30
  21082096.4614    2902153.27847   2236787.93546                  21082101.2894
        20.2504         23.5004
  21982028.0864   -4310942.30846  -3293269.07446                  21982032.2584
        18.0004         18.5004
  20950019.6954   -1719648.91447   -408873.57347                  20950024.5824
        21.2504         26.7504
  23516517.6484   -5581047.42945  -4314134.20745                  23516524.7424
        10.2504          6.5004
  22268795.7734    4143722.01646   3180596.28246                  22268801.1054
        17.0004         13.7504
  20603447.5634   -1719100.08547  -1301490.39847                  20603450.9614
        24.0004         32.0004
 00  5 11 19 28 15.0000000  0  6G 5G 6G10G17G24G30
  21088135.4694    2933887.48147   2261515.84346                  21088140.3914
        20.5004         23.7504
  21975871.6564   -4343294.42946  -3318478.49246                  21975875.7114
        18.5004         19.0004
  20949400.5164   -1722902.13847   -411408.55147                  20949405.5204
        21.2504         26.7504
  23508846.8834   -5621356.29145  -4345543.64345                  23508853.3874
        10.5004          6.2504
  22275681.6334    4179906.98246   3208792.33946                  22275686.8954
        16.5004         13.7504
  20602721.3524   -1722916.24547  -1304464.03147                  20602724.4224
        24.2504         31.7504
 00  5 11 19 28 30.0000000  0  6G 5G 6G10G17G24G30
  21094199.2814    2965754.01847   2286346.87146                  21094204.3204
        20.5004         23.7504
  21969724.1564   -4375600.43646  -3343651.98746                  21969727.9774
        18.7504         19.2504
  20948815.2344   -1725978.70247   -413805.86847                  20948820.0984
        21.2504         27.0004
  23501190.4774   -5661591.90345  -4376895.98445                  23501196.3954
        10.5004          6.0004
  22282575.9924    4216136.31346   3237022.96146                  22282581.3714
        16.5004         13.7504
  20602027.4844   -1726563.10047  -1307305.74147                  20602030.5434
        24.0004         32.5004
 00  5 11 19 28 45.0000000  0  6G 5G 6G10G17G24G30
  21100288.4694    2997751.61747   2311280.02646                  21100293.4964
        20.7504         23.7504
  21963585.0004   -4407861.31646  -3368790.31146                  21963588.7624
        19.0004         20.0004
  20948262.8674   -1728879.57847   -416066.28047                  20948267.9304
        21.0004         26.2504
  23493546.8984   -5701755.31145  -4408192.06445                  23493553.1454
        10.2504          6.7504
  22289478.3204    4252408.78346   3265287.19946                  22289483.5124
        16.7504         13.5004
  20601365.7114   -1730041.77647  -1310016.39947                  20601368.8524
        24.0004         32.5004
 00  5 11 19 29  0.0000000  0  6G 5G 6G10G17G24G30
  21106402.1954    3029880.10247   2336315.17146                  21106407.3634
        20.5004         23.5004
  21957454.7664   -4440076.88946  -3393893.33646                  21957458.7624
        19.0004         20.2504
  20947744.5704   -1731604.76347   -418189.79547                  20947749.6804
        21.2504         27.2504
  23485917.8444   -5741846.43945  -4439431.82045                  23485923.8914
        10.7504          6.7504
  22296388.7894    4288724.15046   3293584.85946                  22296394.0864
        17.0004         13.7504
  20600735.6094   -1733352.04347  -1312595.83347                  20600738.8204
        24.2504         32.5004
 00  5 11 19 29 15.0000000  0  6G 5G 6G10G17G24G30
  21112540.7114    3062137.65047   2361450.88246                  21112545.7624
        20.2504         23.2504
  21951332.5084   -4472248.50846  -3418962.10746                  21951336.2704
        19.2504         20.5004
  20947259.0554   -1734155.77747   -420177.59047                  20947264.2584
        21.2504         27.0004
  23478302.9774   -5781866.68045  -4470616.35545                  23478309.4804
        10.7504          7.0004
  22303307.5314    4325080.80746   3321914.69746                  22303312.5234
        17.0004         14.0004
  20600137.5704   -1736495.39447  -1315045.19847                  20600140.6054
        24.5004         32.2504
 00  5 11 19 29 30.0000000  0  6G 5G 6G10G17G24G30
  21118704.0394    3094524.84047   2386687.61646                  21118709.3714
        20.5004         23.2504
  21945219.1884   -4504375.28146  -3443995.93746                  21945223.0554
        19.0004         20.2504
  20946806.9844   -1736531.75747   -422028.99647                  20946812.0004
        21.2504         27.5004
  23470700.7344   -5821815.18945  -4501744.98045                  23470707.3794
        10.7504          6.7504
  22310233.9144    4361479.26046   3350277.10246                  22310238.7894
        16.7504         13.7504
  20599571.1884   -1739471.12247  -1317363.95147                  20599574.1994
        24.5004         32.5004
 00  5 11 19 29 45.0000000  0  6G 5G 6G10G17G24G30
  21124891.8914    3127043.10447   2412026.48146                  21124897.0234
        20.5004         23.2504
  21939114.3984   -4536455.47246  -3468993.46646                  21939118.0784
        19.2504         21.0004
  20946388.4694   -1738731.10847   -423742.76747                  20946393.2854
        21.2504         27.5004
  23463112.0394   -5861690.31645  -4532816.42245                  23463118.2154
        10.5004          6.7504
  22317168.4844    4397920.98946   3378673.22846                  22317174.0164
        16.5004         13.5004
  20599037.4454   -1742277.57447  -1319550.80147                  20599040.4574
        24.5004         32.7504
 00  5 11 19 30  0.0000000  0  6G 5G 6G10G17G24G30
  21131105.2274    3159693.42547   2437468.24946                  21131110.3134
        20.5004         23.0004
  21933018.8674   -4568487.70446  -3493953.62846                  21933022.9224
        19.0004         20.7504
  20946003.7734   -1740752.58247   -425317.93447                  20946008.3794
        21.7504         27.5004
  23455539.6414   -5901490.72745  -4563829.66545                  23455545.7704
        11.0004          6.2504
  22324111.8364    4434407.02146   3407103.87446                  22324117.0744
        16.7504         13.2504
  20598535.7344   -1744913.29647  -1321604.61547                  20598538.7704
        24.5004         33.0004
 00  5 11 19 30 15.0000000  0  6G 5G 6G10G17G24G30
  21137342.2504    3192469.67747   2463008.15146                  21137347.2894
        20.5004         23.0004
  21926931.5944   -4600477.68246  -3518880.85946                  21926935.9304
        19.0004         20.7504
  20945651.7734   -1742602.03547   -426759.06047                  20945656.6604
        21.7504         27.7504
  23447977.6094   -5941222.32245  -4594789.27045                  23447984.2774
        10.5004          6.5004
  22331062.2504    4470931.12046   3435564.19146                  22331067.6294
        16.5004         13.0004
  20598065.5944   -1747384.08847  -1323529.91447                  20598068.6414
        24.5004         33.0004
 00  5 11 19 30 30.0000000  0  6G 5G 6G10G17G24G30
  21143603.7114    3225373.80347   2488647.68546                  21143608.5864
        20.5004         23.2504
  21920852.3594   -4632423.10846  -3543773.37746                  21920856.5434
        19.0004         21.0004
  20945333.0314   -1744277.27647   -428064.43747                  20945337.7074
        22.0004         28.2504
  23440430.2584   -5980882.76345  -4625693.43045                  23440436.9024
        10.7504          7.0004
  22338020.0784    4507495.45746   3464055.85646                  22338025.5044
        16.5004         12.7504
  20597627.2814   -1749687.85747  -1325325.05647                  20597630.2814
        24.5004         32.5004
 00  5 11 19 30 45.0000000  0  6G 5G 6G10G17G24G30
  21149889.5704    3258406.40747   2514387.34046                  21149894.6094
        20.2504         22.7504
  21914781.8054   -4664322.95946  -3568630.38346                  21914786.1054
        19.0004         21.5004
  20945047.6804   -1745777.42947   -429233.37747                  20945052.3094
        22.0004         28.0004
  23432897.4384   -6020471.18045  -4656541.47145                  23432904.0004
        10.7504          7.0004
  22344985.4844    4544100.63946   3492579.35146                  22344990.7464
        16.0004         12.7504
  20597220.6414   -1751823.68347  -1326989.34647                  20597223.6764
        24.7504         32.7504
 00  5 11 19 31  0.0000000  0  6G 5G 6G10G17G24G30
  21156200.4774    3291568.92747   2540228.22146                  21156205.6214
        20.2504         22.2504
  21908720.6564   -4696175.49146  -3593450.51946                  21908724.9224
        18.7504         20.7504
  20944795.7814   -1747100.91547   -430264.66247                  20944800.2934
        22.0004         28.0004
  23425378.5164   -6059985.90045  -4687332.08145                  23425385.3134
        11.0004          7.2504
  22351959.4534    4580748.02146   3521135.72346                  22351964.9144
        15.7504         12.2504
  20596846.6094   -1753789.92147  -1328521.48247                  20596849.7384
        24.5004         32.7504
 00  5 11 19 31 15.0000000  0  6G 5G 6G10G17G24G30
  21162535.3914    3324859.63247   2566168.98546                  21162540.7114
        20.2504         22.5004
  21902668.1094   -4727982.01646  -3618234.79946                  21902672.6564
        18.7504         20.7504
  20944577.3364   -1748249.19947   -431159.42147                  20944581.9414
        22.0004         28.0004
  23417871.7974   -6099428.29045  -4718066.33945                  23417878.8674
        10.5004          7.2504
  22358940.7344    4617436.04546   3549723.77446                  22358946.4774
        15.7504         12.2504
  20596504.4534   -1755587.94747  -1329922.54647                  20596507.5474
        24.5004         33.2504
 00  5 11 19 31 30.0000000  0  6G 5G 6G10G17G24G30
  21168894.3284    3358276.21847   2592207.84146                  21168899.5554
        20.2504         22.5004
  21896623.6254   -4759744.57646  -3642984.82646                  21896627.8794
        18.7504         20.7504
  20944391.7734   -1749224.49747   -431919.38747                  20944396.4144
        22.0004         28.2504
  23410379.6804   -6138800.44645  -4748745.86345                  23410386.3954
        10.7504          7.0004
  22365929.6644    4654162.50046   3578341.76745                  22365935.3134
        15.5004         11.5004
  20596193.9614   -1757219.83747  -1331194.15447                  20596196.9734
        24.5004         32.7504
 00  5 11 19 31 45.0000000  0  6G 5G 6G10G17G24G30
  21175277.3914    3391819.21247   2618345.19446                  21175282.8404
        20.2504         22.0004
  21890587.9064   -4791462.10746  -3667699.76446                  21890592.2544
        18.7504         21.0004
  20944239.2274   -1750025.79647   -432543.77047                  20944243.8674
        22.0004         27.7504
  23402901.0084   -6178101.39545  -4779369.90745                  23402908.3714
        11.0004          7.2504
  22372926.0784    4690927.96546   3606990.14946                  22372931.6214
        15.5004         12.0004
  20595915.1414   -1758684.67047  -1332335.58647                  20595918.2584
        24.5004         32.7504
 00  5 11 19 32  0.0000000  0  6G 5G 6G10G17G24G30
  21181684.7194    3425489.54447   2644581.77646                  21181690.2624
        20.0004         21.7504
  21884561.2114   -4823133.30846  -3692378.59546                  21884565.4534
        18.5004         20.2504
  20944120.2974   -1750651.84647   -433031.59247                  20944124.9384
        21.7504         27.7504
  23395436.5554   -6217329.87845  -4809937.48345                  23395442.8714
        11.0004          8.0004
  22379929.8054    4727733.47346   3635669.73945                  22379935.8524
        15.5004         11.7504
  20595668.3834   -1759981.22647  -1333345.89547                  20595671.2774
        24.5004         33.0004
 00  5 11 19 32 15.0000000  0  6G 5G 6G10G17G24G30
  21188116.2344    3459288.05647   2670918.23246                  21188121.5434
        20.0004         21.5004
  21878543.2504   -4854757.02646  -3717020.43846                  21878547.6454
        18.2504         19.7504
  20944034.4454   -1751101.66747   -433382.09847                  20944039.0634
        21.7504         27.5004
  23387984.9454   -6256484.74845  -4840447.69945                  23387991.7424
        10.7504          7.2504
  22386941.5634    4764579.85246   3664381.18546                  22386947.3404
        15.5004         12.0004
  20595454.1254   -1761108.46247  -1334224.26447                  20595457.1724
        24.5004         33.0004
 00  5 11 19 32 30.0000000  0  6G 5G 6G10G17G24G30
  21194572.2664    3493214.06547   2697354.03546                  21194577.2814
        20.0004         21.5004
  21872534.3054   -4886333.52046  -3741625.47046                  21872538.6414
        18.2504         19.5004
  20943982.4454   -1751375.78847   -433595.69347                  20943987.4384
        21.5004         27.2504
  23380548.3134   -6295566.35445  -4870900.81045                  23380555.0394
        11.5004          7.7504
  22393960.6804    4801466.56346   3693124.05546                  22393966.3874
        15.5004         12.0004
  20595271.4694   -1762066.61747  -1334970.88247                  20595274.7154
        24.5004         33.0004
 00  5 11 19 32 45.0000000  0  6G 5G 6G10G17G24G30
  21201052.3364    3527267.45346   2723889.10046                  21201057.3404
        19.7504         21.5004
  21866534.6564   -4917862.47246  -3766193.46146                  21866539.2624
        18.2504         20.0004
  20943963.8364   -1751473.93447   -433672.16647                  20943968.4534
        21.7504         27.5004
  23373125.0164   -6334574.61445  -4901296.78845                  23373131.2854
        11.0004          7.7504
  22400987.8754    4838393.37246   3721898.16645                  22400993.5234
        15.2504         11.7504
  20595121.5084   -1762855.68347  -1335585.74747                  20595124.6604
        24.5004         32.7504
 00  5 11 19 33  0.0000000  0  6G 5G 6G10G17G24G30
  21207556.8834    3561448.66546   2750523.75946                  21207561.9924
        19.7504         21.2504
  21860544.1564   -4949343.21146  -3790723.88346                  21860548.5164
        18.2504         19.5004
  20943978.6094   -1751395.63447   -433611.14547                  20943983.2034
        21.7504         27.5004
  23365715.7274   -6373508.92545  -4931635.14645                  23365721.9264
        11.0004          7.2504
  22408022.5554    4875360.84646   3750703.95945                  22408028.1684
        14.7504         11.5004
  20595003.6254   -1763474.86347  -1336068.22647                  20595006.7304
        24.5004         33.0004
 00  5 11 19 33 15.0000000  0  6G 5G 6G10G17G24G30
  21214085.8594    3595758.24246   2777258.45746                  21214091.2734
        19.5004         21.0004
  21854562.9144   -4980774.71246  -3815215.93946                  21854567.1564
        18.5004         20.0004
  20944027.1484   -1751140.11547   -433412.02947                  20944031.7304
        21.7504         27.2504
  23358320.9064   -6412368.35445  -4961915.15545                  23358327.2934
        11.5004          7.5004
  22415064.9924    4912369.51946   3779541.85545                  22415070.4654
        14.7504         11.5004
  20594918.1564   -1763923.43247  -1336417.76347                  20594921.3204
        24.7504         33.0004
 00  5 11 19 33 30.0000000  0  6G 5G 6G10G17G24G30
  21220639.5084    3630197.66646   2804094.32546                  21220644.8524
        19.5004         21.0004
  21848591.3834   -5012155.08446  -3839668.15246                  21848595.5784
        18.7504         19.5004
  20944109.7274   -1750705.63147   -433073.46747                  20944114.4024
        21.5004         27.2504
  23350940.8284   -6451151.02245  -4992135.34045                  23350947.7814
        11.2504          8.0004
  22422115.6884    4949421.13146   3808413.21845                  22422121.5234
        15.0004         11.5004
  20594865.9924   -1764199.47947  -1336632.87447                  20594869.0394
        25.0004         33.0004
 00  5 11 19 33 45.0000000  0  6G 5G 6G10G17G24G30
  21227217.0634    3664762.50546   2831027.91946                  21227222.5704
        19.7504         20.7504
  21842628.9064   -5043488.36146  -3864083.67346                  21842632.7974
        18.7504         20.0004
  20944225.7894   -1750096.32747   -432598.68447                  20944230.6644
        21.5004         27.5004
  23343575.2034   -6489860.99745  -5022298.88645                  23343581.5204
        11.7504          7.2504
  22429173.9844    4986511.27346   3837314.61045                  22429179.9614
        15.0004         11.2504
  20594845.2504   -1764307.12847  -1336716.76047                  20594848.2974
        24.7504         33.5004
 00  5 11 19 34  0.0000000  0  6G 5G 6G10G17G24G30
  21233818.8444    3699455.51746   2858061.39346                  21233824.1884
        19.5004         21.5004
  21836675.9924   -5074771.37846  -3888460.03146                  21836679.7194
        19.0004         20.2504
  20944375.6174   -1749309.23147   -431985.35747                  20944380.3874
        21.5004         27.5004
  23336222.3834   -6528495.23345  -5052403.41445                  23336229.2774
        10.7504          7.5004
  22436239.9064    5023642.72346   3866248.16345                  22436245.8954
        15.0004         11.5004
  20594857.4774   -1764243.49947  -1336667.18447                  20594860.5124
        24.7504         33.2504
 00  5 11 19 34 15.0000000  0  6G 5G 6G10G17G24G30
  21240444.8364    3734274.93046   2885193.35346                  21240450.2854
        19.5004         21.2504
  21830732.3364   -5106005.47046  -3912798.26346                  21830736.2624
        19.0004         20.0004
  20944558.8364   -1748345.85647   -431234.66947                  20944563.6884
        21.7504         27.2504
  23328884.4534   -6567055.14245  -5082450.01845                  23328891.1454
        11.0004          7.7504
  22443313.1644    5060813.78646   3895212.60845                  22443318.7424
        15.0004         11.5004
  20594901.9304   -1764009.98447  -1336485.23147                  20594904.9064
        24.7504         33.5004
 00  5 11 19 34 30.0000000  0  6G 5G 6G10G17G24G30
  21247094.6564    3769219.34046   2912422.71946                  21247100.2114
        19.5004         21.2504
  21824797.6334   -5137191.66046  -3937099.16846                  21824801.3834
        19.5004         20.5004
  20944775.4844   -1747207.26947   -430347.45547                  20944780.1724
        21.7504         27.7504
  23321561.3674   -6605541.96345  -5112439.70245                  23321568.1764
        11.0004          7.5004
  22450394.1644    5098023.21146   3924206.93645                  22450400.0594
        15.0004         11.2504
  20594978.2894   -1763607.72747  -1336171.79047                  20594981.4184
        24.5004         32.7504
 00  5 11 19 34 45.0000000  0  6G 5G 6G10G17G24G30
  21253768.1174    3804288.80846   2939749.53346                  21253773.5204
        19.7504         21.2504
  21818872.5634   -5168329.55546  -3961362.45046                  21818876.2424
        19.5004         21.0004
  20945025.6884   -1745893.35947   -429323.62647                  20945030.5164
        21.5004         27.5004
  23314251.0944   -6643955.31945  -5142372.10345                  23314257.1884
        11.0004          7.7504
  22457482.2424    5135271.06846   3953231.20645                  22457487.8554
        15.0004         11.2504
  20595086.8984   -1763036.50747  -1335726.69347                  20595090.1454
        24.5004         32.5004
 00  5 11 19 35  0.0000000  0  6G 5G 6G10G17G24G30
  21260465.7584    3839484.73946   2967174.88846                  21260470.9614
        19.7504         21.0004
  21812956.7974   -5199417.36546  -3985586.69446                  21812960.4414
        19.2504         20.5004
  20945309.1954   -1744402.38947   -428161.82747                  20945314.1414
        21.2504         27.5004
  23306955.5164   -6682293.39445  -5172245.86545                  23306961.9614
        11.0004          7.7504
  22464577.5084    5172558.74446   3982286.51045                  22464583.4614
        15.0004         11.5004
  20595228.3594   -1762294.52747  -1335148.52947                  20595231.6054
        24.2504         32.0004
 00  5 11 19 35 15.0000000  0  6G 5G 6G10G17G24G30
  21267187.3594    3874806.86146   2994698.57346                  21267192.8794
        19.7504         20.7504
  21807050.2274   -5230454.91646  -4009771.78046                  21807054.2234
        19.0004         21.0004
  20945626.5784   -1742734.39347   -426862.08447                  20945631.6764
        21.2504         27.2504
  23299674.6254   -6720556.15745  -5202060.94645                  23299681.3874
        11.2504          7.7504
  22471680.9844    5209886.16646   4011372.79845                  22471686.9964
        15.5004         11.0004
  20595402.0944   -1761381.70647  -1334437.24747                  20595405.5984
        24.2504         32.0004
 00  5 11 19 35 30.0000000  0  6G 5G 6G10G17G24G30
  21273933.2814    3910256.00646   3022321.23846                  21273938.7304
        19.7504         21.0004
  21801153.8134   -5261441.08046  -4033916.82946                  21801157.7034
        19.2504         20.7504
  20945978.0394   -1740888.40747   -425423.65047                  20945983.0434
        21.5004         27.7504
  23292407.5474   -6758742.50345  -5231816.46745                  23292413.8054
        11.0004          7.5004
  22478791.3834    5247254.18846   4040490.70645                  22478797.0314
        15.0004         11.5004
  20595608.4384   -1760297.07147  -1333592.08547                  20595611.8364
        24.2504         32.0004
 00  5 11 19 35 45.0000000  0  6G 5G 6G10G17G24G30
  21280702.7274    3945829.99446   3050041.17946                  21280708.2114
        19.7504         21.2504
  21795266.7194   -5292377.57446  -4058023.16946                  21795270.7734
        19.0004         20.5004
  20946362.7894   -1738866.30847   -423847.98847                  20946367.6994
        21.7504         27.7504
  23285155.1804   -6796854.32345  -5261513.92245                  23285162.1684
        11.5004          8.0004
  22485909.9534    5284660.65246   4069638.55545                  22485915.5904
        15.2504         11.2504
  20595847.0864   -1759042.55347  -1332614.54347                  20595850.4144
        24.2504         32.2504
 00  5 11 19 36  0.0000000  0  6G 5G 6G10G17G24G30
  21287495.7734    3981527.04846   3077857.02346                  21287501.1994
        19.7504         21.0004
  21789388.9224   -5323265.74146  -4082091.85046                  21789392.9304
        19.0004         20.7504
  20946780.6024   -1736669.62747   -422136.28847                  20946785.3834
        21.7504         27.7504
  23277916.5234   -6834893.09745  -5291154.45645                  23277923.7704
        11.5004          8.2504
  22493035.2734    5322104.04446   4098815.20645                  22493041.2274
        15.0004         11.2504
  20596117.9144   -1757619.53347  -1331505.70547                  20596121.2544
        24.2504         32.0004
 00  5 11 19 36 15.0000000  0  6G 5G 6G10G17G24G30
  21294312.5314    4017349.23246   3105770.36846                  21294317.6994
        19.7504         20.5004
  21783520.7974   -5354103.15746  -4106120.98246                  21783524.8874
        19.0004         21.2504
  20947232.4534   -1734296.23947   -420286.89147                  20947237.1524
        22.0004         28.0004
  23270692.7974   -6872856.41645  -5320736.21245                  23270698.7974
        11.5004          8.0004
  22500167.7424    5359586.33246   4128022.16445                  22500173.3554
        15.0004         10.7504
  20596421.2504   -1756025.75047  -1330263.80447                  20596424.6024
        24.2504         31.7504
 00  5 11 19 36 30.0000000  0  6G 5G 6G10G17G24G30
  21301153.7584    4053298.65246   3133782.85546                  21301159.0664
        19.7504         20.7504
  21777662.8524   -5384887.31346  -4130108.62146                  21777666.8834
        19.0004         21.0004
  20947718.1724   -1731743.74347   -418297.93747                  20947722.8954
        21.7504         28.2504
  23263483.3594   -6910741.85745  -5350257.25445                  23263490.1214
        11.5004          8.0004
  22507308.1804    5397109.71146   4157261.11845                  22507313.6764
        15.0004         11.0004
  20596757.4614   -1754258.83147  -1328886.99347                  20596760.9064
        23.7504         33.0004
 00  5 11 19 36 45.0000000  0  6G 5G 6G10G17G24G30
  21308018.4614    4089373.60946   3161893.16446                  21308023.7584
        19.7504         20.7504
  21771814.5864   -5415619.48146  -4154055.74346                  21771818.6414
        19.0004         21.5004
  20948237.8284   -1729013.68347   -416170.61447                  20948242.4224
        21.7504         28.0004
  23256288.8914   -6948550.79946  -5379718.70145                  23256295.2194
        12.0004          8.0004
  22514456.7114    5434672.50946   4186530.80645                  22514462.3014
        15.2504         11.2504
  20597126.4304   -1752320.16647  -1327376.35447                  20597129.8874
        24.2504         32.5004
 00  5 11 19 37  0.0000000  0  6G 5G 6G10G17G24G30
  21314907.0474    4125573.71646   3190100.99546                  21314912.3914
        19.7504         20.7504
  21765976.3284   -5446299.69846  -4177962.38646                  21765980.5824
        19.0004         21.5004
  20948791.0394   -1726106.27547   -413905.09747                  20948795.5164
        21.7504         27.7504
  23249108.2274   -6986283.42945  -5409120.69145                  23249114.8244
        11.7504          8.0004
  22521611.7344    5472274.47546   4215831.01645                  22521617.6884
        15.2504         11.2504
  20597527.9774   -1750210.01747  -1325732.09147                  20597531.0944
        24.2504         32.7504
 00  5 11 19 37 15.0000000  0  6G 5G 6G10G17G24G30
  21321819.7194    4161899.61646   3218406.84446                  21321825.1564
        19.7504         20.5004
  21760148.0234   -5476926.79046  -4201827.62746                  21760152.4534
        19.0004         21.7504
  20949378.1174   -1723020.40547   -411500.52047                  20949382.6764
        21.7504         27.2504
  23241942.4454   -7023938.67345  -5438462.38145                  23241948.4924
        11.5004          7.7504
  22528774.6564    5509916.48946   4245162.42245                  22528780.2344
        15.0004         11.5004
  20597962.5394   -1747927.35047  -1323953.39647                  20597965.8794
        24.2504         32.2504
 00  5 11 19 37 30.0000000  0  6G 5G 6G10G17G24G30
  21328756.5944    4198351.72546   3246811.03846                  21328761.9384
        19.7504         21.0004
  21754330.2274   -5507499.95846  -4225650.85446                  21754334.0824
        18.7504         21.7504
  20949999.5084   -1719755.47447   -408956.41547                  20950004.0664
        21.7504         27.5004
  23234791.4144   -7061515.86345  -5467743.24745                  23234797.5904
        11.5004          8.0004
  22535945.7734    5547598.89946   4274525.30345                  22535951.6684
        15.2504         11.0004
  20598429.7274   -1745471.39247  -1322039.66947                  20598433.1484
        24.2504         32.5004
 00  5 11 19 37 45.0000000  0  6G 5G 6G10G17G24G30
  21335716.9534    4234929.55246   3275313.19346                  21335722.2034
        19.7504         20.5004
  21748522.5634   -5538019.28646  -4249432.12246                  21748526.9574
        18.7504         22.0004
  20950654.6484   -1716311.83647   -406273.05947                  20950659.3834
        21.7504         27.5004
  23227655.4224   -7099015.18045  -5496963.41845                  23227661.5274
        11.5004          7.7504
  22543124.1644    5585321.45846   4303919.47845                  22543129.4264
        15.0004         11.0004
  20598930.1804   -1742842.43047  -1319991.13447                  20598933.4734
        24.2504         32.7504
 00  5 11 19 38  0.0000000  0  6G 5G 6G10G17G24G30
  21342701.3594    4271633.60646   3303913.70346                  21342706.4924
        19.7504         20.0004
  21742725.3284   -5568483.80446  -4273170.68846                  21742729.8164
        18.7504         22.5004
  20951344.2894   -1712688.78447   -403449.90147                  20951348.8834
        21.7504         27.2504
  23220535.0474   -7136435.76945  -5526122.27045                  23220541.8324
        11.7504          8.0004
  22550310.1644    5623084.67446   4333345.32045                  22550315.4844
        15.0004         10.7504
  20599463.3834   -1740039.70347  -1317807.20047                  20599466.5704
        24.5004         33.0004
 00  5 11 19 38 15.0000000  0  6G 5G 6G10G17G24G30
  21349710.3054    4308466.18146   3332614.36946                  21349715.3554
        19.7504         19.2504
  21736939.2504   -5598890.80346  -4296864.42846                  21736943.9144
        18.7504         22.2504
  20952068.3674   -1708883.80447   -400484.97947                  20952072.7384
        21.7504         27.5004
  23213429.8204   -7173775.03645  -5555217.72645                  23213435.9024
        11.7504          8.0004
  22557504.5784    5660890.85246   4362804.65545                  22557509.7934
        15.0004         10.7504
  20600030.2194   -1737060.61747  -1315485.83947                  20600033.4414
        24.5004         32.7504
 00  5 11 19 38 30.0000000  0  6G 5G 6G10G17G24G30
  21356744.0704    4345427.59246   3361415.41246                  21356749.6604
        19.7504         20.0004
  21731163.9534   -5629239.60646  -4320512.82546                  21731168.3954
        18.7504         22.5004
  20952827.1334   -1704896.31547   -397377.84147                  20952831.6094
        21.7504         27.2504
  23206339.4534   -7211032.26245  -5584249.28745                  23206345.1954
        11.7504          7.7504
  22564707.1954    5698740.49846   4392297.85545                  22564712.9144
        15.0004         10.7504
  20600630.8284   -1733904.62547  -1313026.63647                  20600633.9694
        24.2504         32.7504
 00  5 11 19 38 45.0000000  0  6G 5G 6G10G17G24G30
  21363801.9224    4382516.11246   3390315.51246                  21363807.2544
        19.7504         19.7504
  21725399.2584   -5659531.48246  -4344116.86246                  21725404.2274
        18.5004         22.0004
  20953620.2504   -1700727.76647   -394129.62147                  20953624.8204
        21.7504         27.2504
  23199265.4384   -7248208.94546  -5613218.06845                  23199271.9184
        12.0004          8.5004
  22571917.8754    5736632.00746   4421823.67545                  22571923.6414
        15.0004         10.2504
  20601264.8594   -1730573.06247  -1310430.62147                  20601268.1524
        24.5004         32.7504
 00  5 11 19 39  0.0000000  0  6G 5G 6G10G17G24G30
  21370883.6884    4419731.14346   3419314.18846                  21370888.8794
        19.7504         19.7504
  21719645.7814   -5689766.58846  -4367676.66146                  21719650.7734
        18.5004         22.2504
  20954448.0084   -1696378.61947   -390740.67847                  20954452.7194
        21.7504         27.5004
  23192206.0234   -7285305.35545  -5642124.30445                  23192212.0944
        11.5004          8.5004
  22579135.9614    5774564.99246   4451381.81445                  22579141.5864
        14.7504         10.7504
  20601932.1094   -1727066.24547  -1307698.04247                  20601935.3444
        24.2504         32.5004
 00  5 11 19 39 15.0000000  0  6G 5G 6G10G17G24G30
  21377990.0704    4457076.02046   3448414.04146                  21377995.4384
        19.7504         19.7504
  21713903.6954   -5719941.21446  -4391189.33646                  21713908.3594
        18.7504         22.0004
  20955310.5864   -1691845.39847   -387208.29747                  20955315.1564
        21.7504         27.5004
  23185163.4304   -7322317.82046  -5670965.12345                  23185169.7234
        12.0004          8.2504
  22586363.1094    5812542.63246   4480974.74245                  22586368.8984
        14.7504         10.5004
  20602633.4224   -1723380.79147  -1304826.26647                  20602636.6334
        24.5004         32.5004
 00  5 11 19 39 30.0000000  0  6G 5G 6G10G17G24G30
  21385121.3364    4494550.27046   3477614.70546                  21385126.7504
        19.5004         19.2504
  21708173.1884   -5750055.48746  -4414654.98246                  21708177.8984
        18.7504         22.5004
  20956208.2664   -1687128.33547   -383532.66547                  20956212.7544
        21.7504         28.0004
  23178134.9384   -7359246.48145  -5699740.64845                  23178141.2894
        11.7504          8.5004
  22593598.1954    5850564.65446   4510602.25645                  22593604.0664
        14.7504         10.7504
  20603368.6884   -1719516.92447  -1301815.47047                  20603371.7464
        24.5004         32.5004
 00  5 11 19 39 45.0000000  0  6G 5G 6G10G17G24G30
  21392276.8444    4532152.31846   3506914.95246                  21392282.1414
        19.7504         19.2504
  21702454.0784   -5780110.52846  -4438074.47046                  21702458.7664
        19.0004         22.2504
  20957140.6024   -1682228.79447   -379714.83747                  20957145.3834
        21.7504         27.2504
  23171123.4064   -7396092.65245  -5728451.88645                  23171129.6644
        11.7504          8.5004
  22600841.8834    5888629.50346   4540263.15345                  22600847.6604
        15.0004         10.2504
  20604137.7584   -1715475.86447  -1298666.60147                  20604140.8404
        24.5004         32.5004
 00  5 11 19 40  0.0000000  0  6G 5G 6G10G17G24G30
  21399456.1254    4569880.54546   3536313.52446                  21399461.7034
        19.5004         19.2504
  21696745.8914   -5810107.46746  -4461448.69346                  21696750.2384
        19.2504         22.5004
  20958107.5474   -1677148.19547   -375755.92247                  20958112.2234
        21.7504         27.5004
  23164126.9694   -7432857.63445  -5757099.86245                  23164133.2384
        11.7504          8.7504
  22608093.3204    5926735.85046   4569956.36745                  22608098.8284
        15.0004         10.7504
  20604940.2344   -1711258.91447  -1295380.67547                  20604943.3404
        24.5004         32.7504
 00  5 11 19 40 15.0000000  0  6G 5G 6G10G17G24G30
  21406660.2974    4607736.98446   3565811.99646                  21406665.5824
        19.5004         19.7504
  21691049.2114   -5840043.77346  -4484775.66046                  21691053.2424
        19.5004         23.0004
  20959108.9534   -1671884.25847   -371654.15247                  20959113.7704
        21.5004         27.0004
  23157146.9384   -7469539.00745  -5785682.69945                  23157153.3134
        11.7504          8.7504
  22615353.1484    5964885.67146   4599683.48845                  22615358.8914
        14.7504         10.2504
  20605776.7274   -1706863.68047  -1291955.82447                  20605779.7974
        24.5004         32.7504
 00  5 11 19 40 30.0000000  0  6G 5G 6G10G17G24G30
  21413888.3444    4645720.38046   3595409.40146                  21413893.8634
        19.7504         20.0004
  21685363.9144   -5869920.34546  -4508056.08646                  21685368.0394
        19.5004         22.7504
  20960145.4534   -1666437.91547   -367410.24447                  20960150.3524
        21.7504         27.5004
  23150182.4614   -7506137.69546  -5814201.10245                  23150188.6024
        12.2504          9.2504
  22622620.8364    6003077.89946   4629443.63445                  22622626.5664
        14.5004         10.2504
  20606646.8524   -1702291.28547  -1288392.93047                  20606649.9804
        24.2504         32.0004
 00  5 11 19 40 45.0000000  0  6G 5G 6G10G17G24G30
  21421140.7584    4683831.79346   3625106.55346                  21421145.8674
        19.7504         19.2504
  21679690.0784   -5899735.74246  -4531288.84046                  21679694.1914
        19.5004         22.7504
  20961216.8134   -1660807.89147   -363023.20647                  20961221.6054
        21.7504         27.2504
  23143234.2194   -7542652.34346  -5842654.00845                  23143240.5354
        12.2504          9.2504
  22629896.7734    6041313.69946   4659237.72745                  22629902.8204
        14.2504         10.0004
  20607550.6334   -1697540.56647  -1284691.07847                  20607553.8674
        24.2504         32.2504
 00  5 11 19 41  0.0000000  0  6G 5G 6G10G17G24G30
  21428417.6024    4722073.89347   3654905.53146                  21428423.0514
        20.2504         18.0004
  21674028.7664   -5929486.92846  -4554471.56646                  21674032.8204
        19.5004         22.7504
  20962323.7344   -1654991.44347   -358490.90447                  20962328.7034
        21.5004         27.5004
  23136302.2194   -7579079.97246  -5871039.11345                  23136308.5124
        12.5004          9.0004
  22637182.2034    6079595.74346   4689067.93945                  22637188.7194
        14.5004          6.0004
  20608489.3364   -1692608.45047  -1280847.88147                  20608492.5354
        24.5004         32.2504
 00  5 11 19 41 15.0000000  0  6G 5G 6G10G17G24G30
  21435720.1024    4760446.80447   3684806.46346                  21435725.4694
        20.0004         19.7504
  21668379.3914   -5959173.24646  -4577603.73746                  21668383.2344
        19.7504         22.5004
  20963465.8754   -1648988.25047   -353813.08647                  20963470.8094
        21.5004         27.2504
  23129386.1884   -7615420.14746  -5899356.08945                  23129392.6334
        12.2504          9.2504
  22644475.0944    6117924.35446   4718934.26445                  22644480.6484
        14.2504          9.7504
  20609462.5554   -1687494.47547  -1276862.97547                  20609465.8484
        24.2504         32.2504
 00  5 11 19 41 30.0000000  0  6G 5G 6G10G17G24G30
  21443047.0704    4798949.66746   3714808.64146                  21443052.6374
        19.7504         19.7504
  21662742.5474   -5988795.19646  -4600685.75846                  21662746.3204
        19.7504         22.5004
  20964643.8914   -1642799.16347   -348990.42147                  20964648.6954
        21.7504         27.5004
  23122488.2974   -7651673.47146  -5927605.37945                  23122494.6844
        12.5004          9.5004
  22651777.7504    6156298.70046   4748836.32645                  22651783.3164
        14.5004          9.5004
  20610470.1334   -1682199.39147  -1272736.94247                  20610473.4264
        24.2504         32.2504
 00  5 11 19 41 45.0000000  0  6G 5G 6G10G17G24G30
  21450399.0474    4837582.89746   3744912.41146                  21450404.5554
        19.7504         19.5004
  21657118.1254   -6018351.89146  -4623716.92946                  21657122.0514
        19.5004         22.2504
  20965857.0554   -1636423.30647   -344022.21447                  20965861.7544
        21.7504         27.5004
  23115606.0784   -7687839.17946  -5955786.39445                  23115612.0084
        12.7504          9.2504
  22659089.1804    6194719.28046   4778774.41345                  22659094.4184
        14.5004         10.0004
  20611512.3134   -1676722.50547  -1268469.25347                  20611515.5704
        24.2504         32.2504
 00  5 11 19 42  0.0000000  0  6G 5G 6G10G17G24G30
  21457775.5004    4876347.67546   3775118.68346                  21457781.1484
        19.5004         19.7504
  21651506.3364   -6047841.61146  -4646695.91046                  21651510.0634
        19.7504         22.5004
  20967106.0784   -1629859.28747   -338907.39147                  20967110.7544
        21.7504         27.7504
  23108740.5944   -7723915.62346  -5983897.84245                  23108747.3674
        12.5004          9.7504
  22666409.1884    6233187.52146   4808749.62445                  22666414.4144
        14.2504         10.0004
  20612589.3834   -1671062.23947  -1264058.66747                  20612592.6884
        24.0004         32.5004
 00  5 11 19 42 15.0000000  0  6G 5G 6G10G17G24G30
  21465177.0394    4915243.51946   3805427.08046                  21465182.8404
        19.5004         19.2504
  21645907.5394   -6077264.50746  -4669622.82446                  21645911.6054
        19.7504         22.2504
  20968390.9924   -1623107.44547   -333646.21347                  20968395.6564
        22.0004         27.2504
  23101892.1414   -7759903.10646  -6011939.99545                  23101898.2234
        12.5004          9.2504
  22673738.5164    6271703.06646   4838761.70745                  22673744.2234
        14.2504          9.5004
  20613701.6334   -1665218.89947  -1259505.42147                  20613704.8794
        24.2504         32.2504
 00  5 11 19 42 30.0000000  0  6G 5G 6G10G17G24G30
  21472603.5004    4954269.40746   3835836.80946                  21472609.3484
        19.5004         19.0004
  21640321.1414   -6106621.17946  -4692498.13846                  21640324.9024
        19.7504         22.5004
  20969711.4534   -1616168.62547   -328239.34147                  20969715.9884
        22.0004         28.0004
  23095061.4844   -7795802.31446  -6039913.33845                  23095067.4024
        12.5004         10.0004
  22681076.5634    6310264.97146   4868809.91145                  22681081.9414
        14.2504         10.0004
  20614847.9304   -1659193.41147  -1254810.24747                  20614851.1524
        24.2504         32.5004
 00  5 11 19 42 45.0000000  0  6G 5G 6G10G17G24G30
  21480054.7034    4993425.51346   3866348.01246                  21480060.3874
        19.5004         19.5004
  21634747.5944   -6135910.91146  -4715321.28546                  21634751.5314
        19.7504         22.5004
  20971067.4694   -1609042.43547   -322686.46147                  20971071.8634
        22.0004         27.7504
  23088246.4064   -7831612.65846  -6067817.45045                  23088252.4774
        12.5004          9.0004
  22688423.7114    6348873.57546   4898894.49445                  22688429.6764
        14.0004          9.2504
  20616029.4144   -1652985.15347  -1249972.65447                  20616032.6844
        24.0004         32.2504
 00  5 11 19 43  0.0000000  0  6G 5G 6G10G17G24G30
  21487531.1884    5032712.79846   3896961.42646                  21487536.9534
        19.2504         19.0004
  21629186.7974   -6165132.37446  -4738091.24146                  21629190.5354
        19.7504         22.5004
  20972459.3674   -1601727.73847   -316986.69547                  20972463.9494
        22.0004         27.7504
  23081448.4224   -7867332.89446  -6095651.35645                  23081454.5044
        12.5004          8.7504
  22695779.9064    6387529.87746   4929016.27445                  22695785.7544
        13.7504          9.2504
  20617245.8834   -1646592.96047  -1244991.73747                  20617249.1524
        24.2504         32.5004
 00  5 11 19 43 15.0000000  0  6G 5G 6G10G17G24G30
  21495032.6174    5072134.52546   3927679.59946                  21495038.4534
        19.0004         18.7504
  21623639.7194   -6194281.90547  -4760805.14846                  21623643.4574
        20.0004         23.0004
  20973888.0474   -1594220.98247   -311137.27847                  20973892.5944
        22.0004         28.0004
  23074670.2194   -7902959.49546  -6123412.28745                  23074676.2544
        13.0004          9.5004
  22703145.6724    6426237.26846   4959177.83645                  22703151.6134
        13.7504          9.2504
  20618498.0084   -1640013.35047  -1239864.78247                  20618501.2194
        24.0004         32.5004
 00  5 11 19 43 30.0000000  0  6G 5G 6G10G17G24G30
  21502559.1094    5111686.58246   3958499.33446                  21502565.0044
        18.7504         18.5004
  21618105.8204   -6223363.11046  -4783465.80846                  21618109.4654
        19.7504         22.5004
  20975352.2584   -1586526.11547   -305141.27747                  20975356.4884
        22.0004         27.5004
  23067906.5634   -7938496.28046  -6151103.24345                  23067912.5044
        12.5004          9.5004
  22710520.2584    6464991.80746   4989376.15245                  22710526.0004
        13.7504          9.0004
  20619785.0314   -1633250.12147  -1234594.74747                  20619788.3244
        23.7504         32.5004
 00  5 11 19 43 45.0000000  0  6G 5G 6G10G17G24G30
  21510110.4534    5151369.24146   3989420.83346                  21510116.2424
        18.7504         18.5004
  21612584.9534   -6252375.33147  -4806072.72146                  21612588.7974
        20.0004         22.5004
  20976852.4144   -1578642.65847   -298998.32147                  20976856.7854
        22.0004         27.2504
  23061161.7974   -7973942.60646  -6178723.69945                  23061168.2304
        12.5004          9.5004
  22717904.3054    6503793.91446   5019611.53045                  22717909.8014
        13.5004          9.0004
  20621106.9384   -1626302.81347  -1229181.27147                  20621110.4884
        23.5004         32.2504
 00  5 11 19 44  0.0000000  0  6G 5G 6G10G17G24G30
  21517686.7734    5191182.36946   4020444.00046                  21517692.5164
        18.5004         18.0004
  21607077.1724   -6281318.27347  -4828625.64646                  21607080.8874
        20.0004         22.7504
  20978388.3524   -1570570.72847   -292708.50547                  20978392.7234
        22.0004         27.5004
  23054433.3594   -8009298.32346  -6206273.56045                  23054439.3834
        12.5004          9.5004
  22725296.5634    6542643.37746   5049883.79945                  22725302.1524
        13.2504          9.0004
  20622463.9304   -1619171.38347  -1223624.32447                  20622467.4104
        23.5004         32.2504
 00  5 11 19 44 15.0000000  0  6G 5G 6G10G17G24G30
  21525287.5784    5231125.11046   4051568.16846                  21525293.5314
        18.7504         17.7504
  21601582.5394   -6310192.27046  -4851124.84846                  21601586.2304
        19.7504         22.7504
  20979960.2274   -1562310.89247   -286272.26547                  20979964.7384
        21.7504         27.5004
  23047723.4924   -8044563.96646  -6233753.21945                  23047730.0084
        12.7504          9.5004
  22732698.7974    6581539.53046   5080192.45845                  22732704.7624
        13.0004          8.7504
  20623856.2504   -1611856.32147  -1217924.29047                  20623859.8714
        23.7504         32.2504
 00  5 11 19 44 30.0000000  0  6G 5G 6G10G17G24G30
  21532913.2344    5271196.71046   4082792.72646                  21532919.0474
        18.7504         18.0004
  21596101.2114   -6338997.64246  -4873570.57846                  21596104.8914
        19.7504         22.5004
  20981567.6884   -1553863.60047   -279689.96247                  20981572.2234
        22.0004         27.2504
  23041029.8134   -8079739.87746  -6261162.97045                  23041036.1884
        13.0004          9.5004
  22740109.2114    6620481.84846   5110537.08045                  22740114.7894
        13.2504          8.2504
  20625282.7664   -1604358.21047  -1212081.62347                  20625286.2114
        23.7504         32.5004
 00  5 11 19 44 45.0000000  0  6G 5G 6G10G17G24G30
  21540562.8754    5311396.64046   4114117.30046                  21540568.6994
        18.7504         18.0004
  21590632.6094   -6367734.56847  -4895962.97046                  21590636.2894
        20.0004         22.2504
  20983210.6484   -1545229.33947   -272961.96047                  20983215.1254
        22.0004         27.0004
  23034352.5864   -8114826.32246  -6288503.00645                  23034358.6214
        13.0004          9.7504
  22747528.2034    6659469.90346   5140917.35445                  22747534.2384
        13.0004          8.5004
  20626744.5784   -1596677.31547  -1206096.51947                  20626748.1414
        23.7504         33.0004
 00  5 11 19 45  0.0000000  0  6G 5G 6G10G17G24G30
  21548236.6644    5351722.02046   4145539.62046                  21548242.6174
        18.7504         17.5004
  21585176.8914   -6396405.44846  -4918303.90246                  21585180.5124
        19.7504         22.2504
  20984888.8204   -1536410.62847   -266090.23747                  20984893.3444
        21.7504         27.2504
  23027692.6484   -8149825.81246  -6315775.29045                  23027698.8134
        13.2504          9.7504
  22754955.8984    6698500.89046   5171331.08145                  22754961.9924
        13.0004          8.5004
  20628240.3834   -1588816.27347  -1199971.04447                  20628244.1214
        23.7504         33.2504
 00  5 11 19 45 15.0000000  0  6G 5G 6G10G17G24G30
  21555935.1334    5392177.59646   4177063.39646                  21555940.9804
        18.7504         17.7504
  21579734.3364   -6425005.03846  -4940589.27946                  21579738.1334
        19.7504         23.0004
  20986603.0474   -1527402.55847   -259070.96247                  20986607.5704
        21.7504         27.5004
  23021049.5554   -8184733.30146  -6342975.85545                  23021055.6844
        13.0004          9.2504
  22762391.8364    6737579.73946   5201782.09545                  22762397.9774
        13.0004          8.5004
  20629771.7584   -1580770.10547  -1193701.31747                  20629775.4844
        24.0004         32.5004
 00  5 11 19 45 30.0000000  0  6G 5G 6G10G17G24G30
  21563657.7814    5432760.05846   4208686.04246                  21563663.5474
        18.7504         18.2504
  21574305.3984   -6453536.14646  -4962821.29646                  21574309.2194
        19.7504         22.5004
  20988352.7344   -1518208.36247   -251906.65247                  20988357.4454
        21.7504         27.5004
  23014424.1804   -8219551.77746  -6370107.08845                  23014430.4264
        13.2504          9.7504
  22769837.1254    6776703.24346   5232267.90245                  22769843.1254
        12.7504          8.2504
  20631337.6024   -1572541.83747  -1187289.69247                  20631341.2344
        24.0004         33.2504
 00  5 11 19 45 45.0000000  0  6G 5G 6G10G17G24G30
  21571404.2894    5473467.81446   4240406.32646                  21571410.2194
        18.7504         17.5004
  21568888.9064   -6481999.97046  -4985000.88346                  21568892.5984
        19.7504         23.5004
  20990137.3834   -1508829.47247   -244598.42247                  20990142.0704
        21.7504         27.5004
  23007814.3204   -8254282.47946  -6397169.91945                  23007820.7424
        13.0004         10.2504
  22777290.5864    6815869.93846   5262787.38945                  22777296.5634
        12.7504          8.2504
  20632937.6644   -1564132.75947  -1180737.17747                  20632941.0274
        24.0004         32.7504
 00  5 11 19 46  0.0000000  0  6G 5G 6G10G17G24G30
  21579174.6414    5514300.97546   4272224.31746                  21579180.5004
        18.7504         17.7504
  21563485.2274   -6510395.87947  -5007127.55546                  21563488.9654
        20.2504         23.5004
  20991957.5234   -1499265.47547   -237145.95747                  20991962.2344
        21.5004         27.2504
  23001222.2194   -8288925.02046  -6424164.06145                  23001228.2424
        13.2504         10.0004
  22784751.6804    6855080.10346   5293340.72745                  22784757.6914
        12.5004          8.2504
  20634572.5004   -1555542.65247  -1174043.60047                  20634576.0984
        24.2504         33.0004
 00  5 11 19 46 15.0000000  0  6G 5G 6G10G17G24G30
  21586969.0394    5555259.46246   4304139.96846                  21586974.7344
        19.0004         18.2504
  21558094.4064   -6538723.54247  -5029201.04646                  21558098.2274
        20.0004         23.7504
  20993812.5394   -1489516.38947   -229549.26347                  20993817.4844
        21.5004         26.7504
  22994646.8284   -8323479.21146  -6451089.35045                  22994653.0864
        13.0004         10.0004
  22792221.6334    6894333.75346   5323927.95545                  22792227.6684
        12.7504          8.2504
  20636241.4384   -1546771.31947  -1167208.81047                  20636244.7894
        24.2504         33.2504
 00  5 11 19 46 30.0000000  0  6G 5G 6G10G17G24G30
  21594786.8364    5596343.78846   4336153.67346                  21594792.7664
        19.2504         18.0004
  21552717.2274   -6566981.97047  -5051220.58346                  21552721.2814
        20.5004         24.0004
  20995703.1484   -1479581.41347   -221807.72247                  20995707.8244
        21.5004         27.5004
  22988088.3054   -8357944.16046  -6477945.10145                  22988094.6684
        13.2504         10.0004
  22799699.6484    6933631.51846   5354549.55145                  22799705.4614
        12.5004          8.2504
  20637945.2814   -1537817.97347  -1160232.18747                  20637948.6094
        24.7504         33.2504
 00  5 11 19 46 45.0000000  0  6G 5G 6G10G17G24G30
  21602628.8444    5637551.67846   4368263.66546                  21602634.5394
        18.5004         17.2504
  21547352.2974   -6595172.99947  -5073187.60146                  21547356.4454
        20.2504         23.7504
  20997628.6024   -1469462.67647   -213922.99247                  20997633.4414
        21.5004         27.7504
  22981546.1644   -8392321.81946  -6504732.83745                  22981552.4454
        13.0004         10.2504
  22807186.3984    6972971.39346   5385203.96045                  22807192.3164
        13.2504          8.0004
  20639683.2894   -1528684.60447  -1153115.29147                  20639686.4184
        24.5004         33.2504
 00  5 11 19 47  0.0000000  0  6G 5G 6G10G17G24G30
  21610493.6954    5678881.51146   4400468.63146                  21610499.4964
        18.2504         17.7504
  21542000.7344   -6623297.80347  -5095103.05746                  21542004.9654
        21.0004         24.2504
  20999588.9224   -1459161.58147   -205896.21047                  20999593.6454
        21.2504         27.0004
  22975020.7504   -8426613.41646  -6531453.53745                  22975026.5514
        13.2504         10.0004
  22814679.5634    7012351.72246   5415889.83745                  22814685.6684
        14.0004          8.7504
  20641455.6484   -1519372.63547  -1145859.26347                  20641458.7894
        24.0004         32.0004
 00  5 11 19 47 15.0000000  0  6G 5G 6G10G17G24G30
  21618381.4304    5720332.56046   4432768.11046                  21618387.2304
        18.5004         18.0004
  21536661.0084   -6651356.64647  -5116967.06546                  21536665.0984
        21.0004         24.0004
  21001583.8524   -1448678.54747   -197727.60247                  21001588.6094
        21.5004         27.0004
  22968511.9064   -8460819.38846  -6558107.47345                  22968518.1884
        13.0004         10.0004
  22822181.5634    7051771.95246   5446606.87145                  22822187.5984
        14.2504          8.7504
  20643261.1954   -1509882.69047  -1138464.50747                  20643264.5944
        24.0004         32.0004
 00  5 11 19 47 30.0000000  0  6G 5G 6G10G17G24G30
  21626292.6024    5761905.93146   4465162.89146                  21626298.5204
        18.2504         18.0004
  21531334.6334   -6679347.99047  -5138778.48646                  21531338.8524
        21.0004         24.7504
  21003613.4774   -1438012.56347   -189416.44247                  21003618.3404
        21.7504         27.2504
  22962018.8444   -8494938.37346  -6584693.64345                  22962024.9844
        13.0004         10.5004
  22829690.8594    7091233.40946   5477356.03245                  22829696.5314
        14.2504          9.2504
  20645101.3284   -1500213.31947  -1130929.94647                  20645104.6684
        24.0004         31.7504
 00  5 11 19 47 45.0000000  0  6G 5G 6G10G17G24G30
  21634226.3204    5803598.03846   4497650.19946                  21634232.2154
        18.2504         17.5004
  21526020.3204   -6707274.95047  -5160539.74346                  21526024.5744
        20.5004         24.5004
  21005677.0394   -1427167.03047   -180965.37547                  21005681.8204
        21.7504         27.5004
  22955542.5704   -8528973.62246  -6611214.57545                  22955548.6884
        13.2504         10.5004
  22837207.2664    7130732.55846   5508134.54845                  22837213.1484
        14.7504          9.2504
  20646974.8054   -1490367.89447  -1123258.19747                  20646978.0634
        24.0004         32.0004
 00  5 11 19 48  0.0000000  0  6G 5G 6G10G17G24G30
  21642182.9454    5845409.84046   4530230.77146                  21642188.8284
        18.2504         17.5004
  21520718.4774   -6735136.17347  -5182249.76746                  21520722.9654
        20.5004         24.5004
  21007775.3834   -1416140.65047   -172373.39247                  21007780.1524
        21.7504         26.7504
  22949081.8984   -8562923.77046  -6637669.17045                  22949087.8754
        13.2504         10.5004
  22844731.2814    7170270.55646   5538943.33645                  22844737.2114
        14.7504          9.0004
  20648882.2974   -1480345.33147  -1115448.42147                  20648885.6134
        23.7504         31.7504
 00  5 11 19 48 15.0000000  0  6G 5G 6G10G17G24G30
  21650162.3524    5887341.51246   4562904.74946                  21650168.3054
        18.5004         17.2504
  21515429.1884   -6762930.99347  -5203908.05146                  21515433.6054
        20.5004         24.2504
  21009908.3284   -1404933.07447   -163640.21447                  21009913.1454
        21.7504         27.0004
  22942637.8834   -8596788.33146  -6664057.08945                  22942643.8594
        13.2504         10.5004
  22852262.6174    7209847.74946   5569782.67145                  22852268.5944
        14.7504          8.5004
  20650823.1724   -1470145.09247  -1107500.19447                  20650826.5824
        23.7504         31.5004
 00  5 11 19 48 30.0000000  0  6G 5G 6G10G17G24G30
  21658164.3914    5929390.59846   4595670.22646                  21658170.1334
        18.2504         17.2504
  21510152.1954   -6790661.36447  -5225516.11846                  21510156.3444
        20.5004         24.0004
  21012075.0784   -1393546.74047   -154767.74447                  21012079.8954
        21.7504         27.2504
  22936209.0864   -8630569.45646  -6690379.98845                  22936215.4264
        13.2504         10.7504
  22859800.5634    7249461.72546   5600650.67445                  22859805.5784
        14.5004          8.7504
  20652797.7034   -1459769.44847  -1099415.29447                  20652801.2194
        23.7504         31.5004
 00  5 11 19 48 45.0000000  0  6G 5G 6G10G17G24G30
  21666188.1954    5971556.99446   4628527.09946                  21666193.9494
        18.2504         17.0004
  21504887.6174   -6818326.95147  -5247073.70646                  21504892.0124
        21.0004         24.2504
  21014275.9454   -1381981.53847   -145755.89647                  21014280.5394
        21.7504         27.2504
  22929796.3134   -8664266.96746  -6716637.74045                  22929802.3954
        13.0004         10.7504
  22867346.0004    7289112.53946   5631547.36645                  22867351.3204
        14.7504          9.0004
  20654805.4614   -1449218.19047  -1091193.54647                  20654808.9414
        23.7504         31.7504
 00  5 11 19 49  0.0000000  0  6G 5G 6G10G17G24G30
  21674234.4144    6013840.41246   4661475.16346                  21674240.3444
        18.0004         16.2504
  21499635.5394   -6845927.57247  -5268580.66446                  21499639.6524
        21.0004         24.2504
  21016510.8134   -1370237.50047   -136604.69847                  21016515.5234
        21.7504         27.2504
  22923400.0004   -8697880.87746  -6742830.33845                  22923406.0594
        13.2504         10.5004
  22874898.3674    7328800.17046   5662472.76145                  22874903.4304
        14.7504          8.7504
  20656846.7034   -1438491.60147  -1082835.17647                  20656850.1484
        24.2504         31.7504
 00  5 11 19 49 15.0000000  0  6G 5G 6G10G17G24G30
  21682302.7034    6056239.02846   4694512.99746                  21682308.5984
        18.0004         16.7504
  21494395.3674   -6873464.50947  -5290038.00346                  21494399.4344
        21.0004         24.7504
  21018779.2974   -1358316.16647   -127315.34747                  21018783.8674
        21.5004         26.7504
  22917019.1954   -8731412.61546  -6768958.92145                  22917025.2074
        13.2504         10.5004
  22882457.2114    7368522.90346   5693425.50845                  22882462.9654
        14.5004          8.2504
  20658920.9064   -1427591.03447  -1074341.24447                  20658924.1524
        24.2504         32.0004
 00  5 11 19 49 30.0000000  0  6G 5G 6G10G17G24G30
  21690392.5944    6098752.37446   4727640.22346                  21690398.5004
        17.7504         16.5004
  21489167.3594   -6900937.80047  -5311445.74946                  21489171.2274
        21.2504         24.5004
  21021081.6174   -1346217.97747   -117888.18947                  21021086.2114
        21.7504         27.2504
  22910653.6644   -8764862.28846  -6795023.53445                  22910659.8754
        12.7504         11.0004
  22890022.9224    7408280.37846   5724405.31645                  22890028.6414
        14.2504          8.7504
  20661028.2424   -1416516.73147  -1065711.93347                  20661031.6644
        24.2504         32.2504
 00  5 11 19 49 45.0000000  0  6G 5G 6G10G17G24G30
  21698504.5784    6141380.11246   4760856.58946                  21698510.4264
        17.7504         16.5004
  21483951.5394   -6928347.30047  -5332803.78846                  21483955.2894
        21.0004         24.2504
  21023417.3284   -1333943.05047   -108323.30947                  21023422.0394
        21.7504         27.0004
  22904304.5164   -8798229.87446  -6821024.19345                  22904310.6094
        13.2504         10.7504
  22897595.2114    7448072.34246   5755412.01145                  22897601.0354
        14.2504          8.5004
  20663168.8204   -1405268.83147  -1056947.34847                  20663172.2304
        24.2504         32.2504
 00  5 11 19 50  0.0000000  0  6G 5G 6G10G17G24G30
  21706637.8914    6184119.95146   4794160.30346                  21706643.8674
        17.7504         16.2504
  21478747.4694   -6955694.90647  -5354113.59546                  21478751.3014
        21.0004         24.2504
  21025786.6414   -1321493.55247    -98622.40647                  21025791.2584
        21.7504         26.7504
  22897969.9694   -8831517.46146  -6846962.52545                  22897976.0744
        13.5004         10.5004
  22905173.6334    7487896.65846   5786443.91645                  22905179.4804
        14.2504          8.5004
  20665342.0314   -1393849.43947  -1048049.13547                  20665345.5124
        24.2504         32.5004
 00  5 11 19 50 15.0000000  0  6G 5G 6G10G17G24G30
  21714792.3444    6226972.43446   4827551.79246                  21714798.0514
        17.7504         16.5004
  21473555.3444   -6982979.51847  -5375374.31846                  21473559.3404
        21.0004         24.0004
  21028188.6564   -1308868.72947    -88784.88447                  21028193.2384
        21.7504         27.0004
  22891650.8984   -8864724.12546  -6872837.78845                  22891656.8984
        13.2504         10.7504
  22912758.1254    7527754.02346   5817501.56345                  22912764.2424
        14.2504          8.5004
  20667547.6094   -1382257.81947  -1039016.72247                  20667550.9844
        24.2504         32.2504
 00  5 11 19 50 30.0000000  0  6G 5G 6G10G17G24G30
  21722968.1884    6269936.21446   4861030.00046                  21722974.0944
        17.5004         16.0004
  21468375.0704   -7010202.00747  -5396586.63546                  21468378.9494
        20.5004         24.0004
  21030624.3594   -1296069.79347    -78811.69147                  21030629.0824
        21.7504         27.2504
  22885347.4384   -8897850.77746  -6898650.72045                  22885353.4844
        13.2504         10.7504
  22920348.9614    7567643.53146   5848584.25345                  22920354.5394
        14.2504          8.2504
  20669786.0164   -1370495.01547  -1029850.91647                  20669789.3674
        24.5004         32.5004
 00  5 11 19 50 45.0000000  0  6G 5G 6G10G17G24G30
  21731165.1254    6313011.66846   4894595.23346                  21731170.8094
        17.2504         16.0004
  21463206.5084   -7037361.48247  -5417749.84346                  21463210.6564
        20.2504         23.5004
  21033093.0704   -1283096.13747    -68702.34547                  21033097.8164
        21.7504         26.5004
  22879058.6884   -8930896.74346  -6924400.77145                  22879065.0514
        13.5004         10.5004
  22927946.2664    7607565.50246   5879692.26345                  22927952.2304
        14.2504          8.0004
  20672057.3134   -1358560.34347  -1020551.19047                  20672060.8054
        24.2504         32.5004
 00  5 11 19 51  0.0000000  0  6G 5G 6G10G17G24G30
  21739383.5704    6356198.20646   4928247.02746                  21739389.4534
        17.5004         16.0004
  21458050.0394   -7064458.15347  -5438864.11846                  21458054.3164
        20.2504         23.2504
  21035595.1174   -1269948.23047    -58457.22947                  21035599.7704
        21.7504         27.0004
  22872784.7114   -8963862.37946  -6950088.21745                  22872791.0274
        13.0004         10.7504
  22935548.9774    7647519.48446   5910825.18945                  22935554.8014
        14.0004          8.0004
  20674360.9144   -1346454.40347  -1011118.00747                  20674364.4064
        24.2504         32.7504
 00  5 11 19 51 15.0000000  0  6G 5G 6G10G17G24G30
  21747622.4064    6399495.10946   4961984.81246                  21747628.1374
        17.2504         16.0004
  21452905.8054   -7091492.15847  -5459929.56146                  21452909.9774
        20.2504         23.2504
  21038130.1254   -1256626.54747    -48076.70047                  21038134.7194
        21.5004         26.7504
  22866527.3134   -8996747.89446  -6975713.24245                  22866533.5124
        13.7504         11.0004
  22943157.9304    7687505.07046   5941982.75345                  22943163.7774
        13.7504          8.0004
  20676697.2194   -1334177.67347  -1001551.73947                  20676700.7584
        24.5004         33.2504
 00  5 11 19 51 30.0000000  0  6G 5G 6G10G17G24G30
  21755882.3444    6442901.92246   4995808.24846                  21755888.1684
        17.0004         15.5004
  21447773.3834   -7118463.49347  -5480946.16446                  21447777.5784
        20.2504         23.0004
  21040698.1644   -1243131.38047    -37560.98747                  21040702.8524
        21.5004         27.2504
  22860284.6884   -9029553.49746  -7001276.00645                  22860290.8164
        14.0004         11.2504
  22950772.8754    7727521.91646   5973164.69045                  22950779.1214
        14.0004          8.2504
  20679065.8914   -1321730.33547   -991852.53147                  20679069.4304
        24.5004         32.7504
 00  5 11 19 51 45.0000000  0  6G 5G 6G10G17G24G30
  21764163.5004    6486418.73646   5029717.39646                  21764169.3714
        17.0004         15.5004
  21442652.8284   -7145371.72047  -5501913.60046                  21442657.0234
        20.5004         23.2504
  21043299.2274   -1229462.65947    -26910.03947                  21043303.8914
        21.7504         26.7504
  22854057.5314   -9062278.87046  -7026776.25045                  22854063.4494
        14.2504         11.2504
  22958394.2274    7767569.98146   6004370.92045                  22958400.4844
        13.7504          8.0004
  20681466.9304   -1309112.14347   -982020.19047                  20681470.4804
        24.5004         33.0004
 00  5 11 19 52  0.0000000  0  6G 5G 6G10G17G24G30
  21772465.5004    6530044.50846   5063711.44946                  21772471.5354
        17.2504         15.7504
  21437544.2584   -7172217.37047  -5522832.26946                  21437548.1844
        20.5004         23.7504
  21045933.1884   -1215621.25847    -16124.53347                  21045937.8874
        21.7504         27.0004
  22847845.2734   -9094924.64646  -7052214.47045                  22847851.2384
        14.5004         11.2504
  22966020.5314    7807648.65246   6035601.02445                  22966026.6484
        13.5004          8.2504
  20683900.5234   -1296323.88247   -972055.32647                  20683904.1454
        24.5004         33.0004
 00  5 11 19 52 15.0000000  0  6G 5G 6G10G17G24G30
  21780787.6954    6573779.36246   5097790.49646                  21780793.7544
        17.2504         15.7504
  21432447.9534   -7198999.85047  -5543701.72046                  21432451.8554
        20.5004         23.2504
  21048600.0234   -1201606.72847     -5204.12347                  21048604.8754
        21.5004         26.7504
  22841647.8054   -9127490.36746  -7077590.29945                  22841653.9104
        14.0004         11.2504
  22973653.1174    7847758.13346   6066855.14245                  22973659.5514
        13.2504          7.7504
  20686366.4454   -1283365.18147   -961957.65247                  20686369.8914
        24.5004         33.2504
 00  5 11 19 52 30.0000000  0  6G 5G 6G10G17G24G30
  21789130.8524    6617621.70146   5131953.29846                  21789136.8284
        17.2504         15.5004
  21427363.2584   -7225720.24447  -5564522.78946                  21427367.2774
        20.7504         23.7504
  21051299.6414   -1187420.67147      5849.94747                  21051304.4924
        21.7504         26.5004
  22835466.2344   -9159977.29046  -7102904.74445                  22835472.4574
        14.2504         11.5004
  22981291.4304    7887896.97246   6098132.11345                  22981297.0434
        13.2504          8.0004
  20688864.6884   -1270237.40147   -951728.22847                  20688868.2974
        24.5004         33.5004
 00  5 11 19 52 45.0000000  0  6G 5G 6G10G17G24G30
  21797494.1644    6661571.49446   5166199.83146                  21797499.9534
        17.2504         15.5004
  21422290.2974   -7252378.07947  -5585295.11046                  21422294.3054
        21.0004         23.7504
  21054031.7584   -1173062.89947     17037.81547                  21054036.6214
        21.7504         27.2504
  22829298.1804   -9192385.15746  -7128157.57145                  22829304.1914
        14.0004         11.5004
  22988935.3594    7928065.29646   6129432.07145                  22988941.1844
        13.2504          7.7504
  20691395.0704   -1256940.40247   -941366.94847                  20691398.5984
        24.7504         34.0004
 00  5 11 19 53  0.0000000  0  6G 5G 6G10G17G24G30
  21805878.2974    6705628.80946   5200530.13946                  21805884.1214
        17.2504         16.0004
  21417229.3984   -7278972.72247  -5606018.19646                  21417233.1604
        21.2504         24.5004
  21056796.6884   -1158533.10947     28359.72947                  21056801.4454
        22.0004         27.0004
  22823146.8834   -9224713.44846  -7153348.39445                  22823153.0124
        14.0004         11.7504
  22996584.9224    7968263.50146   6160755.30345                  22996590.7704
        13.2504          7.7504
  20693957.5944   -1243473.80447   -930873.51047                  20693961.0634
        24.7504         33.5004
 00  5 11 19 53 15.0000000  0  6G 5G 6G10G17G24G30
  21814282.3834    6749793.70446   5234944.28346                  21814288.3834
        17.0004         15.5004
  21412180.9224   -7305503.75847  -5626691.71646                  21412184.7304
        21.2504         24.5004
  21059594.3524   -1143830.96047     39815.95147                  21059599.1914
        22.0004         27.0004
  22817010.3364   -9256961.86446  -7178476.98445                  22817016.3834
        13.7504         11.2504
  23004240.2114    8008491.67946   6192101.90845                  23004245.9414
        13.2504          7.5004
  20696552.5314   -1229837.42947   -920247.78147                  20696556.1294
        25.0004         33.7504
 00  5 11 19 53 30.0000000  0  6G 5G 6G10G17G24G30
  21822706.7584    6794064.02146   5269440.57446                  21822712.6524
        17.0004         15.5004
  21407144.0004   -7331972.85047  -5647316.96746                  21407148.0084
        21.2504         24.2504
  21062424.6094   -1128958.61047     51404.79347                  21062429.4264
        21.7504         27.2504
  22810887.7194   -9289132.28546  -7203544.78745                  22810894.0474
        13.5004         11.5004
  23011900.6804    8048747.83246   6223470.28145                  23011906.5044
        13.2504          7.7504
  20699179.3594   -1216033.17147   -909491.23347                  20699182.8634
        24.7504         33.5004
 00  5 11 19 53 45.0000000  0  6G 5G 6G10G17G24G30
  21831151.4614    6838440.16746   5304019.32046                  21831157.4734
        17.0004         15.7504
  21402118.9384   -7358379.09047  -5667893.24946                  21402122.8284
        21.2504         25.0004
  21065287.2274   -1113915.51947     63126.67747                  21065292.1724
        21.7504         27.5004
  22804781.4384   -9321223.97946  -7228551.26545                  22804787.6484
        13.2504         11.2504
  23019565.7974    8089032.56746   6254860.94845                  23019571.5514
        13.2504          7.5004
  20701838.3204   -1202060.38047   -898603.35847                  20701841.6254
        24.5004         33.5004
 00  5 11 19 54  0.0000000  0  6G 5G 6G10G17G24G30
  21839616.2114    6882922.07146   5338680.48146                  21839622.0124
        17.0004         15.0004
  21397106.0234   -7384721.99947  -5688420.17346                  21397110.0314
        21.2504         24.7504
  21068182.4144   -1098701.62547     74981.65747                  21068187.3714
        21.7504         27.2504
  22798688.8834   -9353236.64846  -7253496.15445                  22798694.7894
        13.5004         11.2504
  23027238.0944    8129345.97646   6286273.96545                  23027244.1644
        13.2504          7.7504
  20704529.3834   -1187918.94547   -887584.07447                  20704532.9104
        24.7504         33.2504
 00  5 11 19 54 15.0000000  0  6G 5G 6G10G17G24G30
  21848100.9534    6927509.36246   5373423.76046                  21848106.9654
        17.2504         15.5004
  21392105.2114   -7411001.57347  -5708897.74846                  21392109.2304
        21.0004         24.7504
  21071110.0634   -1083317.18847     86969.52747                  21071114.8794
        21.7504         27.2504
  22792612.5634   -9385170.44246  -7278379.58345                  22792618.4344
        13.7504         11.0004
  23034914.4774    8169687.79146   6317709.11645                  23034920.3834
        13.5004          7.7504
  20707252.4384   -1173609.19447   -876433.63847                  20707255.8834
        24.7504         32.7504
 00  5 11 19 54 30.0000000  0  6G 5G 6G10G17G24G30
  21856605.6414    6972202.43246   5408249.46346                  21856611.4534
        17.0004         15.2504
  21387116.5234   -7437216.98647  -5729325.33146                  21387120.6604
        21.0004         24.7504
  21074070.0394   -1067761.57247     99090.78947                  21074074.8204
        21.7504         27.2504
  22786550.8524   -9417024.64246  -7303200.98445                  22786556.8634
        13.7504         11.5004
  23042596.7894    8210058.57646   6349166.82645                  23042602.7894
        13.5004          7.2504
  20710007.8284   -1159130.57747   -865151.61447                  20710011.1914
        24.5004         33.0004
 00  5 11 19 54 45.0000000  0  6G 5G 6G10G17G24G30
  21865130.5864    7017000.35546   5443156.87146                  21865136.3054
        17.2504         15.5004
  21382139.9224   -7463368.58247  -5749703.18046                  21382143.9534
        21.0004         25.2504
  21077062.6884   -1052035.61047    111344.78147                  21077067.5274
        21.7504         27.2504
  22780503.9534   -9448799.77546  -7327960.77245                  22780510.0474
        13.7504         11.2504
  23050285.1884    8250457.68546   6380646.61845                  23050291.0824
        13.5004          7.7504
  20712794.8364   -1144483.78447   -853738.54747                  20712798.2934
        24.5004         32.2504
 00  5 11 19 55  0.0000000  0  6G 5G 6G10G17G24G30
  21873675.3444    7061902.98846   5478145.86946                  21873681.2154
        17.0004         15.0004
  21377175.8524   -7489455.99447  -5770031.01946                  21377180.0004
        21.2504         25.2504
  21080087.7114   -1036139.24947    123731.55547                  21080092.6334
        21.5004         27.2504
  22774472.9844   -9480495.62846  -7352658.79845                  22774478.8674
        14.0004         11.7504
  23057977.8984    8290885.10646   6412148.45145                  23057983.7234
        13.2504          7.7504
  20715614.2664   -1129668.62347   -842194.28247                  20715617.7814
        24.5004         32.5004
 00  5 11 19 55 15.0000000  0  6G 5G 6G10G17G24G30
  21882240.2584    7106911.61446   5513217.45246                  21882246.1294
        17.0004         14.7504
  21372224.0164   -7515477.48047  -5790307.49146                  21372228.3164
        21.2504         25.5004
  21083145.2344   -1020071.02947    136252.23947                  21083150.2034
        21.7504         26.7504
  22768456.5784   -9512110.73746  -7377293.91045                  22768462.5904
        14.2504         11.7504
  23065676.4064    8331342.21246   6443673.44145                  23065682.0314
        13.2504          7.5004
  20718465.4224   -1114683.67647   -830517.71747                  20718468.9494
        24.2504         32.0004
 00  5 11 19 55 30.0000000  0  6G 5G 6G10G17G24G30
  21890825.1484    7152026.29546   5548371.68846                  21890831.0664
        16.7504         14.5004
  21367284.9844   -7541432.53347  -5810532.19046                  21367289.1094
        21.2504         25.5004
  21086235.5944   -1003830.74347    148907.00647                  21086240.4804
        21.7504         27.2504
  22762455.9144   -9543644.59646  -7401865.70045                  22762461.8204
        14.2504         11.2504
  23073380.8834    8371829.25046   6475221.74745                  23073386.7664
        13.0004          7.5004
  20721349.6564   -1099528.53947   -818708.53747                  20721353.1604
        24.5004         32.5004
 00  5 11 19 55 45.0000000  0  6G 5G 6G10G17G24G30
  21899430.5554    7197246.68746   5583608.28446                  21899436.6024
        16.7504         14.7504
  21362358.5314   -7567320.92047  -5830704.94746                  21362362.5984
        21.2504         25.5004
  21089358.7894    -987418.65047    161695.65147                  21089363.7464
        21.5004         26.7504
  22756470.2584   -9575097.15446  -7426374.14946                  22756476.5984
        14.2504         12.2504
  23081091.5314    8412346.28346   6506793.42045                  23081097.1214
        13.2504          7.5004
  20724266.0314   -1084203.32947   -806766.83047                  20724269.5354
        24.2504         32.5004
 00  5 11 19 56  0.0000000  0  6G 5G 6G10G17G24G30
  21908055.4694    7242570.66446   5618925.60046                  21908061.3984
        17.0004         15.0004
  21357444.4774   -7593144.28347  -5850827.03047                  21357448.5664
        21.2504         26.0004
  21092514.1024    -970836.67247    174616.66947                  21092518.9304
        22.0004         27.2504
  22750500.5784   -9606470.19046  -7450820.63046                  22750506.8244
        14.5004         12.0004
  23088806.7584    8452891.14246   6538386.77145                  23088812.8634
        13.2504          7.7504
  20727214.2504   -1068710.04247   -794694.15547                  20727217.9184
        24.2504         32.2504
 00  5 11 19 56 15.0000000  0  6G 5G 6G10G17G24G30
  21916700.3364    7288000.03146   5654325.04346                  21916706.3714
        17.0004         14.7504
  21352543.3914   -7618900.33547  -5870896.67147                  21352547.4344
        21.2504         26.5004
  21095702.3834    -954082.86947    187671.57747                  21095707.0234
        22.0004         27.5004
  22744545.5704   -9637761.62846  -7475203.52245                  22744551.3714
        14.7504         11.7504
  23096527.5474    8493465.87146   6570003.41845                  23096533.4534
        13.0004          7.7504
  20730194.9064   -1053046.73047   -782488.99547                  20730198.5394
        24.2504         32.2504
 00  5 11 19 56 30.0000000  0  6G 5G 6G10G17G24G30
  21925365.3134    7333533.52846   5689805.62546                  21925371.1484
        17.0004         14.5004
  21347654.9384   -7644589.87447  -5890914.47747                  21347659.0514
        21.2504         26.0004
  21098922.9924    -937158.41547    200859.46447                  21098927.6684
        22.0004         27.2504
  22738606.6884   -9668972.43246  -7499523.58346                  22738612.5824
        14.7504         12.2504
  23104254.3054    8534069.45346   6601642.52545                  23104260.4104
        13.2504          7.5004
  20733207.5784   -1037214.50947   -770152.21447                  20733211.0354
        24.5004         32.2504
 00  5 11 19 56 45.0000000  0  6G 5G 6G10G17G24G30
  21934050.4614    7379173.67146   5725369.29446                  21934056.4384
        17.0004         14.7504
  21342779.3754   -7670209.81947  -5910878.05747                  21342783.4184
        21.2504         26.0004
  21102176.5944    -920060.58547    214182.44247                  21102181.3404
        22.0004         27.2504
  22732683.2424   -9700099.65946  -7523778.53546                  22732689.2774
        14.5004         12.0004
  23111987.1724    8574704.54846   6633306.21345                  23111993.0554
        13.2504          7.5004
  20736253.0944   -1021210.67947   -757681.71947                  20736256.6334
        24.2504         32.5004
 00  5 11 19 57  0.0000000  0  6G 5G 6G10G17G24G30
  21942754.8984    7424915.89346   5761012.52046                  21942760.8054
        17.0004         14.0004
  21337916.6094   -7695764.26847  -5930790.59747                  21337920.5704
        21.2504         26.2504
  21105462.5084    -902793.86247    227637.02847                  21105467.3134
        22.0004         27.5004
  22726774.7584   -9731147.59346  -7547971.67946                  22726780.8524
        14.2504         12.0004
  23119724.8204    8615366.77246   6664991.01945                  23119730.9494
        13.5004          7.5004
  20739330.4304   -1005039.63647   -745080.92147                  20739333.9804
        24.0004         32.2504
 00  5 11 19 57 15.0000000  0  6G 5G 6G10G17G24G30
  21951479.1094    7470762.81346   5796737.32346                  21951485.0514
        16.5004         13.7504
  21333066.8754   -7721250.13847  -5950649.70947                  21333070.9304
        21.5004         26.2504
  21108780.7194    -885355.45547    241225.39647                  21108785.2074
        22.2504         27.5004
  22720882.4384   -9762113.36146  -7572100.80446                  22720888.4024
        14.2504         12.2504
  23127468.4384    8656058.89146   6696699.12845                  23127474.8954
        13.2504          7.5004
  20742440.0394    -988698.33447   -732347.45447                  20742443.6844
        24.0004         32.0004
 00  5 11 19 57 30.0000000  0  6G 5G 6G10G17G24G30
  21960223.4384    7516713.31646   5832542.83746                  21960229.4614
        16.5004         14.0004
  21328230.1414   -7746667.89447  -5970455.73647                  21328234.3484
        21.7504         26.5004
  21112131.7194    -867746.10047    254946.97147                  21112136.2194
        22.0004         27.0004
  22715005.5084   -9792997.62246  -7596166.42546                  22715011.5204
        14.2504         12.2504
  23135217.5164    8696780.00546   6728429.82045                  23135223.9614
        13.2504          7.7504
  20745581.9774    -972187.80647   -719482.12747                  20745585.6914
        24.0004         31.7504
 00  5 11 19 57 45.0000000  0  6G 5G 6G10G17G24G30
  21968986.9924    7562767.34746   5868429.02146                  21968993.0044
        16.2504         13.7504
  21323406.1804   -7772017.19347  -5990208.42247                  21323410.0234
        21.7504         26.5004
  21115515.0164    -849966.01547    268801.58147                  21115519.8324
        21.7504         26.7504
  22709143.0704   -9823800.12546  -7620168.33646                  22709149.1994
        14.0004         12.0004
  23142972.1564    8737530.34846   6760183.30145                  23142978.5554
        13.0004          7.2504
  20748755.8754    -955507.91847   -706484.82847                  20748759.3324
        24.2504         31.7504
 00  5 11 19 58  0.0000000  0  6G 5G 6G10G17G24G30
  21977770.2344    7608923.28146   5904394.61146                  21977776.1294
        16.2504         13.7504
  21318595.3134   -7797299.22847  -6009908.69647                  21318599.4024
        21.7504         26.5004
  21118930.8134    -832016.67847    282788.07347                  21118935.4534
        22.0004         27.2504
  22703297.1954   -9854522.15946  -7644107.53646                  22703303.2544
        14.0004         12.5004
  23150732.0084    8778308.38646   6791958.35945                  23150738.0434
        13.0004          7.2504
  20751962.0164    -938660.11347   -693356.68547                  20751965.5554
        24.0004         31.7504
 00  5 11 19 58 15.0000000  0  6G 5G 6G10G17G24G30
  21986572.0704    7655177.42246   5940436.73446                  21986578.0354
        16.2504         13.5004
  21313796.4454   -7822517.18247  -6029559.03147                  21313800.4884
        21.7504         27.0004
  21122378.1884    -813901.60247    296903.71547                  21122382.8634
        22.0004         27.0004
  22697466.0004   -9885167.10946  -7667986.67046                  22697472.0594
        14.0004         12.2504
  23158496.0634    8819110.53446   6823752.19145                  23158502.0274
        12.5004          7.0004
  20755199.4304    -921647.81947   -680100.37247                  20755202.9694
        24.0004         31.7504
 00  5 11 19 58 30.0000000  0  6G 5G 6G10G17G24G30
  21995393.9384    7701535.43046   5976559.77646                  21995400.0314
        16.0004         13.5004
  21309011.0864   -7847664.85247  -6049154.60747                  21309015.0944
        22.0004         27.2504
  21125857.9304    -795614.86447    311153.11247                  21125862.8164
        21.7504         27.0004
  22691650.1254   -9915728.98846  -7691801.08546                  22691656.3134
        14.0004         12.5004
  23166266.5944    8859942.65746   6855569.40345                  23166272.9454
        12.7504          7.2504
  20758469.1174    -904465.31447   -666711.42347                  20758472.6094
        24.2504         31.7504
 00  5 11 19 58 45.0000000  0  6G 5G 6G10G17G24G30
  22004235.0164    7747995.67946   6012762.50046                  22004241.0634
        15.7504         13.7504
  21304238.6094   -7872743.32747  -6068696.25747                  21304242.5944
        22.0004         27.2504
  21129370.2664    -777158.10447    325535.00247                  21129375.0234
        21.7504         27.0004
  22685849.6884   -9946209.10546  -7715551.78046                  22685855.7234
        14.0004         12.7504
  23174042.2584    8900803.48246   6887408.96045                  23174048.3054
        12.5004          7.0004
  20761770.7274    -887114.04547   -653190.96847                  20761774.3014
        24.2504         32.2504
 00  5 11 19 59  0.0000000  0  6G 5G 6G10G17G24G30
  22013096.6024    7794561.53246   6049047.50646                  22013102.6954
        15.7504         13.0004
  21299480.3754   -7897748.76447  -6088180.99947                  21299484.4184
        22.0004         27.0004
  21132915.4844    -758527.80247    340052.11547                  21132920.2774
        22.0004         26.7504
  22680065.7814   -9976603.72246  -7739235.85446                  22680071.6294
        14.2504         12.2504
  23181823.8364    8941696.34446   6919273.49545                  23181830.0944
        12.2504          7.0004
  20765105.6174    -869590.36047   -639536.17047                  20765109.1564
        24.2504         32.2504
 00  5 11 19 59 15.0000000  0  6G 5G 6G10G17G24G30
  22021976.8204    7841229.59746   6085412.15346                  22021982.9734
        15.5004         13.2504
  21294735.2734   -7922684.02747  -6107611.06147                  21294739.1994
        22.0004         27.5004
  21136493.0234    -739727.20447    354701.92747                  21136497.7234
        22.2504         27.0004
  22674297.7894  -10006915.88846  -7762855.67646                  22674303.8244
        14.2504         12.7504
  23189610.5864    8982618.21746   6951160.62845                  23189616.7854
        12.0004          6.5004
  20768472.4304    -851897.46547   -625749.51447                  20768476.0394
        24.5004         32.2504
 00  5 11 19 59 30.0000000  0  6G 5G 6G10G17G24G30
  22030877.4844    7888000.84146   6121857.19846                  22030883.4024
        15.5004         13.0004
  21290003.8594   -7947547.60447  -6126985.26547                  21290007.9384
        22.0004         27.2504
  21140103.2584    -720755.20747    369485.29947                  21140107.7234
        22.2504         27.2504
  22668545.3834  -10037144.28646  -7786410.21646                  22668551.5124
        14.5004         13.0004
  23197403.3984    9023570.22445   6983071.23645                  23197409.3054
        11.7504          6.7504
  20771871.8284    -834034.19847   -611830.10547                  20771875.3094
        24.2504         32.2504
 00  5 11 19 59 45.0000000  0  6G 5G 6G10G17G24G30
  22039797.3444    7934874.96346   6158382.41346                  22039803.4494
        15.5004         13.0004
  21285286.0944   -7972339.33547  -6146303.48547                  21285290.1844
        22.0004         27.0004
  21143745.9614    -701611.89747    384402.16347                  21143750.5664
        22.2504         27.2504
  22662809.3754  -10067288.87046  -7809899.46246                  22662815.3284
        15.0004         13.0004
  23205201.9774    9064552.19445   7015005.20345                  23205208.5864
        11.7504          6.7504
  20775303.5234    -816000.69347   -597778.04047                  20775306.9924
        24.5004         32.5004
 00  5 11 20  0  0.0000000  0  6G 5G 6G10G17G24G30
  22048736.7814    7981851.51646   6194987.44546                  22048742.6644
        15.5004         12.5004
  21280582.0164   -7997059.23247  -6165565.72647                  21280586.2464
        22.0004         26.5004
  21147421.5004    -682297.53247    399452.31747                  21147426.1414
        22.0004         27.5004
  22657088.6884  -10097349.84446  -7833323.57046                  22657094.6054
        15.0004         13.5004
  23213006.6334    9105563.97046   7046962.38345                  23213012.9734
        12.0004          6.5004
  20778767.6254    -797797.16347   -583593.49347                  20778771.0824
        24.5004         32.7504
 00  5 11 20  0 15.0000000  0  6G 5G 6G10G17G24G30
  22057695.6024    8028931.12046   6231672.76746                  22057701.7544
        15.0004         12.5004
  21275892.0004   -8021706.04347  -6184771.01747                  21275896.0904
        21.7504         27.0004
  21151129.7344    -662811.45347    414636.26947                  21151134.5394
        22.0004         26.7504
  22651384.2424  -10127326.18146  -7856681.70446                  22651390.1374
        15.0004         13.0004
  23220816.0554    9146606.37945   7078943.45745                  23220821.8444
        11.5004          6.7504
  20782263.9924    -779422.97147   -569275.95747                  20782267.4024
        24.5004         32.7504
 00  5 11 20  0 30.0000000  0  6G 5G 6G10G17G24G30
  22066674.4384    8076115.01646   6268439.36546                  22066680.4614
        15.0004         13.0004
  21271216.3054   -8046278.00247  -6203917.98747                  21271220.4654
        22.0004         27.0004
  21154870.6724    -643152.35647    429955.04347                  21154875.5704
        22.0004         27.0004
  22645696.2974  -10157216.35046  -7879972.70046                  22645702.3794
        15.2504         13.2504
  23228633.1094    9187680.83545   7110949.47845                  23228638.8634
        11.5004          6.5004
  20785793.1094    -760876.61047   -554824.26747                  20785796.6024
        24.5004         32.7504
 00  5 11 20  0 45.0000000  0  6G 5G 6G10G17G24G30
  22075672.6724    8123400.44146   6305285.07246                  22075678.7194
        15.0004         13.0004
  21266553.9224   -8070777.48247  -6223008.48047                  21266557.7074
        22.0004         27.0004
  21158644.1334    -623322.86047    445406.59547                  21158649.0084
        22.0004         27.0004
  22640024.5864  -10187022.85346  -7903198.51246                  22640030.4694
        15.0004         12.7504
  23236455.0234    9228784.71645   7142978.41745                  23236461.2464
        11.7504          5.5004
  20789354.7504    -742160.76347   -540240.50747                  20789358.3364
        24.5004         33.0004
 00  5 11 20  1  0.0000000  0  6G 5G 6G10G17G24G30
  22084690.5164    8170788.32546   6342210.62346                  22084696.7504
        15.0004         12.7504
  21261905.8594   -8095203.13747  -6242041.44747                  21261909.7154
        22.0004         27.0004
  21162450.1564    -603321.93447    460991.72547                  21162454.8914
        22.0004         27.0004
  22634368.6484  -10216744.48646  -7926358.19546                  22634374.5784
        15.0004         13.0004
  23244283.0784    9269919.09945   7175031.15745                  23244289.8054
        11.7504          6.0004
  20792948.8444    -723274.36047   -525523.84847                  20792952.2894
        24.5004         33.0004
 00  5 11 20  1 15.0000000  0  6G 5G 6G10G17G24G30
  22093727.9534    8218280.17346   6379217.16446                  22093733.9884
        15.2504         12.5004
  21257272.3444   -8119552.91747  -6261015.28447                  21257276.0944
        22.0004         26.7504
  21166289.2274    -583147.95747    476711.70847                  21166293.9264
        22.0004         26.7504
  22628728.8674  -10246379.31346  -7949450.22646                  22628734.9144
        14.7504         12.5004
  23252116.3054    9311085.71445   7207109.00245                  23252122.0234
        11.5004          6.0004
  20796575.5314    -704215.59547   -510672.88547                  20796579.0824
        24.5004         33.0004
 00  5 11 20  1 30.0000000  0  6G 5G 6G10G17G24G30
  22102784.8444    8265874.28146   6416303.39446                  22102790.7854
        15.5004         12.5004
  21252653.0634   -8143827.86947  -6279930.82047                  21252656.8834
        22.0004         26.7504
  21170160.5474    -562802.40247    492565.38347                  21170165.2934
        21.7504         26.7504
  22623105.9694  -10275928.59046  -7972475.58646                  22623112.0274
        14.7504         13.0004
  23259955.5164    9352283.18445   7239210.88545                  23259961.5514
        11.0004          5.5004
  20800235.1254    -684985.95447   -495688.76547                  20800238.7584
        24.2504         32.5004
 00  5 11 20  1 45.0000000  0  6G 5G 6G10G17G24G30
  22111861.0234    8313569.77846   6453468.64746                  22111867.3284
        15.2504         12.7504
  21248047.7034   -8168028.34347  -6298788.32147                  21248051.4884
        22.0004         27.0004
  21174064.9144    -542286.08547    508552.11847                  21174069.7194
        21.7504         26.5004
  22617499.1484  -10305392.96746  -7995434.81046                  22617505.0314
        14.5004         12.7504
  23267801.6254    9393510.77445   7271336.23645                  23267807.6724
        11.2504          6.0004
  20803926.5084    -665586.19647   -480572.09347                  20803930.0124
        24.2504         33.0004
 00  5 11 20  2  0.0000000  0  6G 5G 6G10G17G24G30
  22120957.4534    8361369.88846   6490715.39646                  22120963.6174
        15.2504         12.7504
  21243457.3204   -8192150.71647  -6317584.96447                  21243461.2234
        22.0004         26.7504
  21178002.0474    -521595.69947    524674.49747                  21178006.8874
        21.7504         26.7504
  22611908.9144  -10334768.94646  -8018325.13546                  22611914.9384
        14.5004         12.7504
  23275652.9304    9434771.83545   7303487.67845                  23275659.8364
        11.2504          6.5004
  20807651.3284    -646012.84747   -465320.15147                  20807654.9144
        24.2504         32.7504
 00  5 11 20  2 15.0000000  0  6G 5G 6G10G17G24G30
  22130072.6954    8409272.02346   6528041.64446                  22130078.7074
        15.2504         12.2504
  21238881.5234   -8216197.05747  -6336322.35847                  21238885.3324
        21.7504         27.0004
  21181972.0314    -500733.75647    540930.54747                  21181976.8954
        21.7504         27.0004
  22606335.0314  -10364058.74146  -8041148.31846                  22606341.2774
        14.5004         12.5004
  23283510.8444    9476063.94045   7335663.29845                  23283517.0204
        11.5004          5.2504
  20811408.3444    -626268.42947   -449934.91247                  20811411.8954
        24.0004         32.5004
 00  5 11 20  2 30.0000000  0  6G 5G 6G10G17G24G30
  22139207.7114    8457276.40446   6565447.57246                  22139214.0634
        15.2504         12.7504
  21234319.9384   -8240166.52347  -6354999.85147                  21234323.8284
        22.0004         27.0004
  21185974.6254    -479699.70347    557320.71847                  21185979.4774
        21.7504         26.7504
  22600778.0784  -10393261.67446  -8063903.80446                  22600784.1024
        14.2504         12.2504
  23291374.3834    9517387.69845   7367863.56445                  23291380.2304
        11.2504          5.5004
  20815198.4694    -606352.40847   -434415.95647                  20815202.0554
        24.0004         32.2504
 00  5 11 20  2 45.0000000  0  6G 5G 6G10G17G24G30
  22148362.9534    8505385.29346   6602934.92446                  22148369.3634
        15.5004         12.7504
  21229773.9694   -8264056.37447  -6373615.30847                  21229777.7894
        22.0004         27.2504
  21190010.5634    -458491.31747    573846.72947                  21190015.4734
        22.0004         27.0004
  22595238.0394  -10422375.26546  -8086589.68346                  22595243.8874
        14.7504         13.0004
  23299244.4614    9558745.51445   7400090.39445                  23299249.7704
        11.5004          5.5004
  20819021.1484    -586262.46447   -418761.47447                  20819024.8524
        23.7504         31.5004
 00  5 11 20  3  0.0000000  0  6G 5G 6G10G17G24G30
  22157537.8524    8553599.16446   6640504.09046                  22157544.1454
        15.5004         13.0004
  21225243.3594   -8287865.67947  -6392168.00047                  21225247.2384
        22.0004         27.0004
  21194079.5164    -437107.95847    590509.08347                  21194084.2854
        21.7504         26.7504
  22589714.7034  -10451398.75446  -8109205.34446                  22589720.6564
        15.0004         13.0004
  23307121.5084    9600138.09245   7432344.30845                  23307127.4614
        11.5004          5.5004
  20822877.6644    -565997.90847   -402970.93247                  20822881.3444
        23.7504         31.5004
 00  5 11 20  3 15.0000000  0  6G 5G 6G10G17G24G30
  22166732.3524    8601915.95346   6678153.45646                  22166738.4224
        15.5004         12.5004
  21220727.6564   -8311595.94247  -6410659.10147                  21220731.5704
        22.0004         27.2504
  21198181.5474    -415551.52347    607306.30147                  21198186.3164
        21.7504         26.5004
  22584208.5864  -10480333.82646  -8131752.10646                  22584214.4804
        15.0004         13.0004
  23315003.9774    9641563.52145   7464623.84945                  23315010.1174
        11.5004          5.2504
  20826766.7344    -545560.63247   -387045.80647                  20826770.4144
        23.7504         31.7504
 00  5 11 20  3 30.0000000  0  6G 5G 6G10G17G24G30
  22175946.5634    8650338.23146   6715885.01146                  22175952.3984
        15.5004         12.7504
  21216227.6094   -8335244.02347  -6429086.16947                  21216231.4184
        22.0004         27.5004
  21202316.9534    -393819.34747    624240.46047                  21202321.7584
        21.7504         26.7504
  22578719.9384  -10509177.50646  -8154227.65546                  22578725.6914
        15.0004         13.5004
  23322894.4694    9683024.64946   7496931.15345                  23322900.6564
        12.0004          5.5004
  20830689.1024    -524948.01247   -370984.04447                  20830692.9224
        23.5004         31.2504
 00  5 11 20  3 45.0000000  0  6G 5G 6G10G17G24G30
  22185180.4454    8698863.32146   6753696.67446                  22185186.7274
        15.2504         12.2504
  21211742.7504   -8358812.10547  -6447450.89647                  21211746.6644
        22.0004         27.5004
  21206485.6334    -371913.96147    641309.58647                  21206490.4264
        21.7504         26.5004
  22573248.2194  -10537932.17546  -8176633.85146                  22573253.9964
        15.0004         13.0004
  23330790.8444    9724519.01846   7529264.40445                  23330796.9384
        12.0004          5.5004
  20834644.5554    -504162.43947   -354787.51647                  20834648.1764
        23.7504         31.5004
 00  5 11 20  4  0.0000000  0  6G 5G 6G10G17G24G30
  22194434.2584    8747491.54446   6791588.71046                  22194440.3164
        15.2504         12.2504
  21207273.1954   -8382299.36547  -6465752.64447                  21207277.1684
        22.0004         27.2504
  21210687.1884    -349834.90247    658514.04247                  21210692.0044
        21.7504         26.2504
  22567793.5314  -10566597.24646  -8198970.23446                  22567799.4964
        15.2504         14.2504
  23338692.9224    9766047.01546   7561623.83045                  23338698.8984
        12.2504          6.0004
  20838632.9774    -483203.47747   -338455.87747                  20838636.6334
        24.0004         32.0004
 00  5 11 20  4 15.0000000  0  6G 5G 6G10G17G24G30
  22203707.9534    8796223.88846   6829561.87846                  22203714.1884
        15.2504         12.2504
  21202819.4534   -8405704.29347  -6483990.24147                  21202823.3324
        22.0004         27.5004
  21214921.8834    -327581.20347    675854.58147                  21214926.7814
        21.7504         26.2504
  22562355.6094  -10595171.46846  -8221235.82346                  22562361.5394
        15.5004         14.0004
  23346601.9304    9807609.92945   7594010.49545                  23346608.0124
        11.7504          5.7504
  20842654.4534    -462069.98947   -321988.24547                  20842658.0984
        23.7504         31.2504
 00  5 11 20  4 30.0000000  0  6G 5G 6G10G17G24G30
  22213000.5474    8845057.15846   6867613.68245                  22213006.5594
        15.0004         11.7504
  21198380.7734   -8429029.59347  -6502165.78447                  21198384.7344
        22.0004         27.7504
  21219189.2034    -305155.93747    693328.80647                  21219194.2194
        21.5004         26.5004
  22556935.1724  -10623657.59546  -8243432.76746                  22556941.0204
        15.7504         14.0004
  23354517.3984    9849204.77445   7626422.03045                  23354523.3404
        11.7504          5.5004
  20846708.7114    -440764.93047   -305386.92247                  20846712.4384
        24.0004         31.7504
 00  5 11 20  4 45.0000000  0  6G 5G 6G10G17G24G30
  22222312.8284    8893993.12346   6905745.51246                  22222318.8404
        15.0004         12.0004
  21193957.7274   -8452273.01147  -6520277.52847                  21193961.5594
        22.0004         28.0004
  21223489.6724    -282557.23447    710938.18247                  21223494.7114
        21.5004         25.7504
  22551531.2584  -10652053.55446  -8265559.45046                  22551537.3054
        15.5004         14.2504
  23362439.2584    9890833.56445   7658859.98245                  23362444.9184
        11.7504          5.7504
  20850795.9614    -419286.48647   -288650.49947                  20850799.6884
        24.0004         31.5004
 00  5 11 20  5  0.0000000  0  6G 5G 6G10G17G24G30
  22231644.5084    8943030.58646   6943956.42245                  22231650.5784
        15.0004         11.7504
  21189549.8054   -8475435.24947  -6538326.01547                  21189554.0354
        22.0004         27.2504
  21227822.8834    -259786.15747    728681.87247                  21227827.8754
        21.5004         26.2504
  22546144.8204  -10680360.21746  -8287616.55546                  22546150.8204
        15.5004         14.2504
  23370367.1174    9932495.13445   7691323.50445                  23370373.2704
        11.7504          5.7504
  20854916.1094    -397635.72947   -271779.79947                  20854919.9184
        24.0004         32.0004
 00  5 11 20  5 15.0000000  0  6G 5G 6G10G17G24G30
  22240995.3134    8992168.44246   6982245.57345                  22241001.1724
        14.7504         11.5004
  21185157.7504   -8498516.84347  -6556311.66547                  21185161.6414
        22.0004         27.2504
  21232188.6254    -236843.69347    746559.10947                  21232193.3594
        21.7504         26.0004
  22540775.0704  -10708578.31646  -8309604.63746                  22540780.9534
        15.5004         13.5004
  23378300.7424    9974188.74745   7723812.00545                  23378307.1644
        11.7504          6.0004
  20859068.5634    -375813.56447   -254775.53847                  20859072.0784
        24.0004         32.0004
 00  5 11 20  5 30.0000000  0  6G 5G 6G10G17G24G30
  22250365.6414    9041408.90046   7020614.65745                  22250371.9574
        14.7504         11.0004
  21180781.3594   -8521514.99247  -6574232.28947                  21180785.3324
        22.0004         27.5004
  21236587.7274    -213727.39947    764571.80247                  21236592.5204
        21.7504         26.2504
  22535422.6954  -10736705.24646  -8331521.69246                  22535428.6024
        15.2504         13.7504
  23386242.2734   10015916.87046   7756327.37145                  23386248.3204
        12.0004          6.0004
  20863254.5864    -353817.56147   -237635.82147                  20863258.2194
        24.2504         32.0004
 00  5 11 20  5 45.0000000  0  6G 5G 6G10G17G24G30
  22259755.0554    9090750.06246   7059062.22545                  22259761.4304
        14.7504         11.2504
  21176420.3834   -8544431.20647  -6592089.07247                  21176424.3444
        22.0004         27.5004
  21241019.3134    -190439.14547    782718.48847                  21241024.0354
        21.7504         26.0004
  22530087.2664  -10764742.70646  -8353369.03046                  22530093.1844
        15.5004         14.0004
  23394188.6644   10057677.77245   7788868.29045                  23394194.6414
        11.7504          5.7504
  20867473.0164    -331649.46947   -220362.00747                  20867476.7074
        24.0004         32.0004
 00  5 11 20  6  0.0000000  0  6G 5G 6G10G17G24G30
  22269162.8364    9140189.21746   7097586.14645                  22269168.9414
        14.7504         11.2504
  21172074.9064   -8567267.50147  -6609883.57947                  21172078.6804
        22.0004         27.5004
  21245483.0474    -166981.57247    800997.10747                  21245487.8164
        21.7504         25.7504
  22524768.6414  -10792693.02346  -8375148.46146                  22524774.6764
        15.2504         14.0004
  23402141.2274   10099468.95845   7821432.80845                  23402147.3674
        11.7504          6.0004
  20871723.7734    -309311.81047   -202956.06447                  20871727.4184
        24.0004         31.7504
 00  5 11 20  6 15.0000000  0  6G 5G 6G10G17G24G30
  22278589.2664    9189725.39046   7136185.65845                  22278595.4534
        14.5004         11.0004
  21167744.3054   -8590024.44047  -6627616.25247                  21167747.9964
        22.2504         27.5004
  21249979.0164    -143355.59747    819406.95746                  21249983.7504
        21.7504         25.5004
  22519466.1334  -10820556.87346  -8396860.48946                  22519471.8404
        15.0004         13.5004
  23410099.3364   10141289.60245   7854020.26945                  23410105.3594
        11.7504          6.0004
  20876006.4924    -286805.48747   -185418.69347                  20876010.2664
        23.7504         32.0004
 00  5 11 20  6 30.0000000  0  6G 5G 6G10G17G24G30
  22288034.3444    9239359.77746   7174861.69945                  22288040.4734
        14.5004         10.7504
  21163429.4454   -8612700.29347  -6645285.73347                  21163433.2424
        22.2504         27.7504
  21254507.0944    -119559.77947    837949.14246                  21254511.7344
        21.7504         25.5004
  22514180.5864  -10848332.67846  -8418503.95246                  22514186.5274
        15.0004         13.7504
  23418063.9384   10183141.21746   7886631.87345                  23418070.1134
        12.0004          5.7504
  20880321.6804    -264129.07747   -167748.78647                  20880325.5004
        24.0004         31.7504
 00  5 11 20  6 45.0000000  0  6G 5G 6G10G17G24G30
  22297497.2584    9289088.61046   7213611.34745                  22297503.3404
        14.7504         11.2504
  21159128.9304   -8635298.38747  -6662894.62847                  21159132.6094
        22.5004         28.0004
  21259067.0004     -95597.96647    856620.67646                  21259071.5234
        21.7504         25.5004
  22508910.9384  -10876023.97446  -8440081.54846                  22508916.9264
        15.0004         14.0004
  23426032.9534   10225020.15945   7919264.77045                  23426039.3754
        11.7504          6.0004
  20884668.6414    -241286.29247   -149949.24147                  20884672.3914
        24.2504         31.7504
 00  5 11 20  7  0.0000000  0  6G 5G 6G10G17G24G30
  22306978.4454    9338908.82246   7252432.19345                  22306984.5274
        14.7504         11.0004
  21154843.0314   -8657821.14747  -6680444.81847                  21154846.8404
        22.7504         28.0004
  21263657.9614     -71472.97947    875419.36647                  21263662.4144
        21.7504         25.7504
  22503657.0234  -10903633.40446  -8461595.35146                  22503663.0594
        15.0004         13.2504
  23434007.3204   10266923.71745   7951916.85045                  23434014.0124
        11.7504          6.0004
  20889046.4844    -218280.01147   -132022.29247                  20889050.1174
        24.2504         32.0004
 00  5 11 20  7 15.0000000  0  6G 5G 6G10G17G24G30
  22316475.6724    9388819.70246   7291323.69245                  22316482.1054
        14.5004         11.0004
  21150571.3204   -8680268.74347  -6697936.43847                  21150575.1294
        22.7504         28.2504
  21268279.5164     -47185.44047    894344.71846                  21268284.1334
        21.7504         25.5004
  22498418.6564  -10931161.32946  -8483045.65146                  22498424.7384
        15.0004         13.7504
  23441985.4614   10308851.20345   7984587.57045                  23441991.6954
        11.5004          6.0004
  20893455.4774    -195110.71747   -113968.32447                  20893459.0864
        24.0004         32.2504
 00  5 11 20  7 30.0000000  0  6G 5G 6G10G17G24G30
  22325990.5164    9438820.76146   7330285.44245                  22325996.5984
        14.5004         10.2504
  21146314.1884   -8702641.17447  -6715369.49547                  21146318.0784
        22.7504         28.5004
  21272932.0634     -22735.73347    913396.42046                  21272936.6564
        21.7504         25.5004
  22493195.7664  -10958607.97246  -8504432.61046                  22493201.6024
        15.2504         14.0004
  23449969.4614   10350802.56545   8017276.89845                  23449975.9304
        11.7504          5.7504
  20897895.5784    -171778.74747    -95787.59547                  20897899.2464
        24.2504         32.5004
 00  5 11 20  7 45.0000000  0  6G 5G 6G10G17G24G30
  22335522.7894    9488911.17146   7369316.83845                  22335529.2114
        14.2504         10.7504
  21142070.9924   -8724938.74047  -6732744.20647                  21142074.8364
        22.7504         28.5004
  21277615.4534       1875.35247    932573.88347                  21277620.1174
        21.7504         25.7504
  22487988.2664  -10985973.78846  -8525756.58246                  22487994.0784
        15.7504         14.2504
  23457955.8834   10392777.07845   8049984.25745                  23457961.9064
        11.5004          5.7504
  20902366.1644    -148284.91347    -77480.73847                  20902369.9024
        24.0004         32.2504
 00  5 11 20  8  0.0000000  0  6G 5G 6G10G17G24G30
  22345071.5084    9539088.81946   7408416.19545                  22345077.9304
        14.2504         10.7504
  21137842.0634   -8747163.06447  -6750061.84947                  21137846.0944
        22.7504         28.5004
  21282329.0084      26645.86647    951875.57346                  21282333.7774
        21.2504         25.2504
  22482795.4694  -11013260.52246  -8547018.93146                  22482801.4344
        15.7504         14.2504
  23465947.7974   10434772.99745   8082708.29245                  23465953.7854
        11.0004          5.2504
  20906867.4064    -124631.17747    -59049.28347                  20906871.1214
        24.2504         32.0004
 00  5 11 20  8 15.0000000  0  6G 5G 6G10G17G24G30
  22354636.2974    9589352.56346   7447582.64545                  22354642.3554
        14.0004         10.5004
  21133626.5314   -8769314.74947  -6767322.89347                  21133630.4574
        22.7504         28.5004
  21287073.0784      51574.78347    971300.69546                  21287077.9414
        21.2504         25.2504
  22477618.1644  -11040469.07446  -8568220.37646                  22477623.9064
        16.0004         15.0004
  23473944.0084   10476789.20345   8115448.16945                  23473949.9614
        11.0004          5.2504
  20911398.6724    -100818.39247    -40493.89247                  20911402.4924
        24.0004         32.0004
 00  5 11 20  8 30.0000000  0  6G 5G 6G10G17G24G30
  22364217.2114    9639701.11646   7486815.19345                  22364223.7734
        14.0004         10.0004
  21129424.9224   -8791394.42747  -6784527.82147                  21129428.7304
        23.0004         29.2504
  21291846.5634      76661.00747    990848.39646                  21291851.4734
        21.2504         25.0004
  22472455.2274  -11067600.36046  -8589361.60546                  22472460.9804
        16.2504         14.2504
  23481941.4304   10518824.79545   8148203.12445                  23481947.2194
        10.2504          5.2504
  20915960.2894     -76847.75847    -21815.50347                  20915964.0514
        24.0004         32.2504
 00  5 11 20  8 45.0000000  0  6G 5G 6G10G17G24G30
  22373814.6334    9690134.36046   7526113.71545                  22373820.9844
        14.0004         10.7504
  21125237.0164   -8813401.69947  -6801676.33847                  21125240.7304
        23.0004         29.5004
  21296650.4304     101904.46247   1010518.60746                  21296655.3524
        21.2504         25.0004
  22467307.0704  -11094654.08546  -8610442.39446                  22467313.0234
        16.2504         14.7504
  23489945.2814   10560879.81045   8180973.23045                  23489951.0354
        10.2504          5.2504
  20920551.7504     -52719.25447     -3014.10047                  20920555.6524
        23.7504         32.0004
 00  5 11 20  9  0.0000000  0  6G 5G 6G10G17G24G30
  22383427.6804    9740651.82446   7565477.86345                  22383434.1724
        14.0004         10.2504
  21121063.0704   -8835336.56847  -6818768.42947                  21121066.7734
        23.2504         29.0004
  21301483.9224     127304.66047   1030310.96146                  21301488.7274
        21.5004         25.0004
  22462173.6804  -11121630.43946  -8631462.89746                  22462179.6564
        16.5004         15.5004
  23497952.9614   10602954.11645   8213758.34845                  23497959.2664
        10.7504          4.7504
  20925173.3444     -28433.27647     15910.01247                  20925177.1524
        23.7504         31.7504
 00  5 11 20  9 15.0000000  0  6G 5G 6G10G17G24G30
  22393056.9224    9791252.32246   7604906.72545                  22393063.0274
        14.0004         10.0004
  21116902.5944   -8857199.74047  -6835804.66247                  21116906.1684
        23.2504         29.2504
  21306347.0474     152860.61347   1050224.68546                  21306352.0394
        21.5004         25.2504
  22457054.5164  -11148530.36446  -8652423.85246                  22457060.1414
        17.0004         15.2504
  23505961.6414   10645046.55945   8246557.59845                  23505967.5824
        10.2504          4.7504
  20929824.6174      -3990.82447     34956.05147                  20929828.4384
        24.0004         31.7504
 00  5 11 20  9 30.0000000  0  6G 5G 6G10G17G24G30
  22402701.3284    9841933.34246   7644398.32845                  22402707.3524
        13.7504         10.5004
  21112755.7274   -8878993.13947  -6852786.52147                  21112759.4304
        23.2504         29.2504
  21311239.4384     178569.90247   1070257.88546                  21311244.2304
        21.2504         25.5004
  22451949.7584  -11175355.91646  -8673326.84946                  22451955.6764
        16.5004         15.7504
  23513974.7274   10687155.06545   8279369.36745                  23513981.2544
        10.0004          4.7504
  20934505.0634      20605.73547     54122.16947                  20934508.8134
        23.7504         32.0004
 00  5 11 20  9 45.0000000  0  6G 5G 6G10G17G24G30
  22412360.5944    9892694.14246   7683952.08845                  22412366.9924
        13.7504         10.5004
  21108621.6484   -8900716.94847  -6869714.15747                  21108625.1294
        23.5004         29.5004
  21316160.7274     204431.75547   1090409.96846                  21316165.5554
        21.2504         25.5004
  22446859.2344  -11202107.54346  -8694172.23546                  22446865.0824
        16.5004         15.2504
  23521990.3594   10729278.97745   8312193.15945                  23521996.6524
        10.0004          4.7504
  20939214.8594      45355.89047     73407.97747                  20939218.7734
        23.7504         32.0004
 00  5 11 20 10  0.0000000  0  6G 5G 6G10G17G24G30
  22422035.7814    9943533.97046   7723567.42845                  22422042.3094
        13.5004         11.0004
  21104500.8364   -8922371.35247  -6886587.71247                  21104504.4574
        23.5004         29.2504
  21321110.9304     230445.60747   1110680.48846                  21321116.0744
        21.2504         24.7504
  22441782.5234  -11228785.69646  -8714960.37446                  22441788.3244
        16.2504         15.0004
  23530009.2894   10771417.79345   8345028.52845                  23530016.1604
         9.7504          4.5004
  20943954.0164      70258.96447     92812.94047                  20943958.0004
        23.5004         31.7504
 00  5 11 20 10 15.0000000  0  6G 5G 6G10G17G24G30
  22431724.8444    9994450.98546   7763242.92745                  22431731.3484
        13.5004         10.2504
  21100393.1484   -8943957.68747  -6903408.22747                  21100396.5824
        23.2504         29.5004
  21326089.7274     256609.69847   1131068.08046                  21326094.6134
        21.2504         25.0004
  22436719.1954  -11255391.88046  -8735692.42646                  22436724.9844
        16.2504         15.0004
  23538030.9774   10813570.01145   8377874.38244                  23538037.0704
         9.7504          4.2504
  20948721.6174      95313.27747    112335.75347                  20948725.6024
        23.7504         32.0004
 00  5 11 20 10 30.0000000  0  6G 5G 6G10G17G24G30
  22441428.3284   10045443.63546   7802977.34245                  22441434.5984
        13.5004         10.0004
  21096297.8914   -8965477.04847  -6920176.54647                  21096301.5004
        23.0004         29.0004
  21331097.2424     282922.48247   1151571.53746                  21331102.1054
        21.2504         24.7504
  22431669.6954  -11281927.28646  -8756369.33746                  22431675.5664
        16.2504         15.2504
  23546053.8444   10855734.17845   8410729.51344                  23546060.1604
         9.0004          4.2504
  20953517.7194     120517.35047    131975.26247                  20953521.5984
        24.0004         32.0004
 00  5 11 20 10 45.0000000  0  6G 5G 6G10G17G24G30
  22451146.1954   10096511.36246   7842770.26745                  22451153.4884
        13.5004         10.2504
  21092215.8834   -8986929.45547  -6936892.70247                  21092219.4454
        23.2504         29.0004
  21336132.4534     309383.40447   1172190.43046                  21336137.2704
        21.5004         25.0004
  22426634.0634  -11308392.28846  -8776991.37546                  22426639.9344
        16.2504         15.0004
  23554080.0004   10897909.95345   8443593.70844                  23554085.8364
         9.0004          4.0004
  20958342.3594     145870.63647    151731.04047                  20958346.1094
        24.2504         32.2504
 00  5 11 20 11  0.0000000  0  6G 5G 6G10G17G24G30
  22460878.8054   10147654.38646   7882621.87745                  22460885.5904
        13.7504         10.5004
  21088146.4694   -9008314.05847  -6953556.02547                  21088150.1604
        23.2504         29.2504
  21341196.1724     335992.92847   1192925.10946                  21341200.8954
        21.2504         25.0004
  22421610.9224  -11334786.25946  -8797558.07946                  22421616.6884
        16.0004         14.7504
  23562108.1414   10940097.88745   8476467.37044                  23562114.3874
         9.2504          3.7504
  20963195.5394     171373.57347    171603.43147                  20963199.2664
        24.2504         32.0004
 00  5 11 20 11 15.0000000  0  6G 5G 6G10G17G24G30
  22470624.4384   10198869.46246   7922529.59945                  22470630.8714
        13.5004         10.2504
  21084089.4454   -9029633.63347  -6970168.67647                  21084093.2544
        23.0004         29.2504
  21346287.4454     362748.05447   1213773.24846                  21346292.2154
        21.2504         24.7504
  22416601.5004  -11361112.09746  -8818071.68846                  22416607.1374
        16.0004         14.7504
  23570138.1954   10982294.92845   8509348.13244                  23570144.2074
         9.2504          3.7504
  20968076.5084     197023.19647    191590.11747                  20968080.3164
        24.2504         32.2504
 00  5 11 20 11 30.0000000  0  6G 5G 6G10G17G24G30
  22480384.9454   10250160.55346   7962496.57545                  22480391.7194
        13.2504         10.2504
  21080045.7504   -9050883.67747  -6986727.14347                  21080049.3954
        23.0004         29.2504
  21351407.1414     389652.62847   1234737.83946                  21351412.1334
        21.0004         24.2504
  22411605.5634  -11387365.54346  -8838528.88046                  22411611.4804
        16.2504         15.2504
  23578170.7734   11024505.22845   8542239.25044                  23578177.0314
         9.7504          3.5004
  20972986.1174     222823.46247    211694.18647                  20972990.1134
        24.5004         32.5004
 00  5 11 20 11 45.0000000  0  6G 5G 6G10G17G24G30
  22490158.8594   10301521.99346   8002518.37445                  22490165.3284
        13.2504         10.2504
  21076014.2034   -9072069.26547  -7003235.38447                  21076017.8244
        23.2504         29.5004
  21356554.4454     416701.17947   1255814.62146                  21356559.3554
        21.2504         24.5004
  22406622.8134  -11413551.78746  -8858933.71946                  22406628.7894
        16.5004         15.2504
  23586204.3054   11066723.51845   8575136.54144                  23586211.0664
        10.0004          4.2504
  20977923.3524     248768.88447    231911.37047                  20977927.2074
        24.5004         32.7504
 00  5 11 20 12  0.0000000  0  6G 5G 6G10G17G24G30
  22499945.7974   10352953.21046   8042594.52545                  22499952.4654
        13.2504          9.7504
  21071995.1334   -9093190.47047  -7019693.46047                  21071998.8364
        23.5004         29.2504
  21361728.9694     443893.12447   1277003.14046                  21361733.5394
        21.2504         24.5004
  22401651.9694  -11439671.13346  -8879286.42246                  22401657.4654
        16.2504         15.0004
  23594239.6414   11108949.23845   8608039.67244                  23594246.0274
        10.2504          4.2504
  20982888.3054     274858.99747    252241.29647                  20982892.0904
        24.5004         32.7504
 00  5 11 20 12 15.0000000  0  6G 5G 6G10G17G24G30
  22509746.5704   10404454.91946   8082725.60945                  22509752.8164
        13.2504         10.0004
  21067988.3754   -9114245.98547  -7036100.34247                  21067992.1134
        23.5004         30.0004
  21366931.0164     471229.27547   1298304.02346                  21366935.6914
        21.5004         24.5004
  22396694.2734  -11465722.50946  -8899586.16446                  22396700.0164
        16.5004         15.2504
  23602277.0634   11151183.49945   8640949.42745                  23602283.5554
        11.0004          5.0004
  20987880.5944     301094.65347    272684.63547                  20987884.3554
        24.5004         32.7504
 00  5 11 20 12 30.0000000  0  6G 5G 6G10G17G24G30
  22519560.4144   10456026.07046   8122910.81445                  22519567.3094
        13.2504         10.2504
  21063993.8364   -9135236.31347  -7052456.43647                  21063997.5634
        23.5004         29.7504
  21372160.0164     498708.74847   1319716.58746                  21372164.5044
        21.5004         24.7504
  22391749.8984  -11491706.63046  -8919833.50046                  22391755.6884
        17.0004         15.7504
  23610316.0864   11193425.45245   8673865.20845                  23610322.9304
        11.7504          4.5004
  20992900.7424     327475.04747    293240.75747                  20992904.6214
        24.5004         33.0004
 00  5 11 20 12 45.0000000  0  6G 5G 6G10G17G24G30
  22529387.0084   10507665.12446   8163148.92045                  22529393.8674
        13.2504         10.2504
  21060011.7894   -9156162.48047  -7068762.53447                  21060015.5044
        23.2504         29.2504
  21377416.1954     526330.12247   1341239.72346                  21377420.6484
        21.5004         24.5004
  22386817.9924  -11517624.79046  -8940029.44146                  22386823.7584
        16.5004         16.0004
  23618355.6414   11235673.82445   8706785.97945                  23618361.6764
        11.7504          4.7504
  20997948.1094     353998.59647    313908.42147                  20997952.0824
        24.2504         32.2504
 00  5 11 20 13  0.0000000  0  6G 5G 6G10G17G24G30
  22539226.7424   10559372.43446   8203440.21245                  22539233.7424
        13.0004         10.0004
  21056042.0634   -9177023.58847  -7085017.93047                  21056045.7664
        23.0004         29.5004
  21382699.4304     554093.68447   1362873.65746                  21382704.0474
        21.5004         24.7504
  22381898.6174  -11543476.26046  -8960173.41546                  22381904.5004
        17.0004         15.7504
  23626396.3204   11277929.24746   8739712.22745                  23626402.8834
        12.2504          4.7504
  21003022.6804     380665.81247    334688.04347                  21003026.3484
        24.2504         32.5004
 00  5 11 20 13 15.0000000  0  6G 5G 6G10G17G24G30
  22549079.2114   10611148.49046   8243785.07145                  22549086.3524
        13.2504         10.2504
  21052084.8674   -9197818.55747  -7101221.79647                  21052088.6054
        23.2504         29.7504
  21388009.8284     582000.08447   1384618.88446                  21388014.6914
        21.7504         24.5004
  22376992.0474  -11569260.16646  -8980264.74246                  22376997.7664
        17.0004         16.0004
  23634438.9224   11320192.43546   8772644.53145                  23634444.6524
        12.5004          4.7504
  21008124.7584     407477.30447    355580.08047                  21008128.5314
        24.2504         32.5004
 00  5 11 20 13 30.0000000  0  6G 5G 6G10G17G24G30
  22558944.8444   10662991.11646   8284181.80445                  22558951.7504
        13.5004         10.0004
  21048140.0234   -9218549.09547  -7117375.45447                  21048143.7384
        23.2504         29.5004
  21393347.0234     610047.22247   1406473.78746                  21393351.6644
        21.7504         24.5004
  22372097.8914  -11594978.41646  -9000304.90746                  22372104.0434
        16.5004         16.0004
  23642482.5784   11362461.39946   8805581.36645                  23642488.6954
        12.2504          4.7504
  21013254.0004     434431.06947    376582.98347                  21013257.9734
        24.2504         32.2504
 00  5 11 20 13 45.0000000  0  6G 5G 6G10G17G24G30
  22568823.2344   10714900.93946   8324630.90445                  22568829.7624
        13.7504          9.5004
  21044207.5164   -9239214.15547  -7133478.08647                  21044211.2894
        23.0004         29.2504
  21398711.1254     638235.77447   1428438.87446                  21398715.9184
        21.5004         24.2504
  22367216.6174  -11620630.07446  -9020293.18446                  22367222.4654
        16.5004         15.5004
  23650526.4454   11404736.99545   8838523.33345                  23650532.8204
        11.5004          5.0004
  21018410.1884     461527.84247    397697.32047                  21018414.0434
        24.2504         32.5004
 00  5 11 20 14  0.0000000  0  6G 5G 6G10G17G24G30
  22578714.0314   10766877.30446   8365131.84945                  22578721.2544
        13.7504         10.0004
  21040287.6644   -9259813.77747  -7149529.73447                  21040291.3324
        23.0004         29.5004
  21404102.0704     666565.29647   1450513.81046                  21404106.8754
        21.2504         25.0004
  22362347.6724  -11646215.46646  -9040229.82046                  22362353.5664
        16.5004         16.0004
  23658572.9534   11447018.80645   8871470.14545                  23658579.4924
        11.5004          5.2504
  21023593.4534     488766.97647    418922.58547                  21023596.9574
        24.2504         32.0004
 00  5 11 20 14 15.0000000  0  6G 5G 6G10G17G24G30
  22588617.0704   10818917.78846   8405682.74345                  22588624.0004
        13.7504         10.0004
  21036379.5474   -9280349.81047  -7165531.83047                  21036383.4614
        23.0004         29.5004
  21409519.2584     695033.23347   1472696.60146                  21409524.1214
        21.2504         24.2504
  22357491.1414  -11671736.67346  -9060116.44746                  22357497.0234
        16.5004         16.0004
  23666619.4694   11489304.70645   8904420.15745                  23666625.5514
        11.7504          5.2504
  21028803.9064     516146.29047    440257.08247                  21028807.7854
        24.2504         32.0004
 00  5 11 20 14 30.0000000  0  6G 5G 6G10G17G24G30
  22598532.2274   10871022.42946   8446283.65145                  22598538.7194
        13.5004         10.0004
  21032484.2664   -9300821.67347  -7181483.92547                  21032488.1094
        23.0004         29.5004
  21414963.0314     723639.76647   1494987.39346                  21414967.8134
        21.2504         24.5004
  22352647.1094  -11697193.40246  -9079952.82946                  22352652.8524
        16.5004         16.0004
  23674667.3754   11531594.86446   8937373.48045                  23674673.0594
        12.0004          4.7504
  21034040.5704     543665.92747    461700.92247                  21034044.4264
        23.7504         31.7504
 00  5 11 20 14 45.0000000  0  6G 5G 6G10G17G24G30
  22608459.2664   10923188.54246   8486932.45045                  22608466.1094
        13.2504          9.5004
  21028600.1804   -9321231.54847  -7197387.71547                  21028604.0004
        23.2504         29.2504
  21420432.6564     752382.30647   1517384.16846                  21420437.6954
        21.2504         24.2504
  22347814.3754  -11722587.98846  -9099740.78446                  22347820.1644
        16.7504         16.5004
  23682715.7584   11573886.93745   8970328.28145                  23682721.5124
        11.7504          5.2504
  21039303.7504     571323.22647    483252.03147                  21039307.8164
        23.5004         31.2504
 00  5 11 20 15  0.0000000  0  6G 5G 6G10G17G24G30
  22618397.8204   10975414.85046   8527628.13745                  22618404.7734
        13.2504          9.5004
  21024727.9844   -9341580.18047  -7213243.78647                  21024731.8404
        23.5004         29.5004
  21425927.7344     781259.61647   1539885.95146                  21425932.6684
        21.2504         24.5004
  22342993.7424  -11747921.40346  -9119481.07346                  22342999.5314
        16.7504         16.0004
  23690763.5944   11616179.92045   9003283.81045                  23690769.4414
        11.5004          5.5004
  21044592.6334     599117.07047    504909.53747                  21044596.7344
        23.5004         31.2504
 00  5 11 20 15 15.0000000  0  6G 5G 6G10G17G24G30
  22628347.7664   11027701.46446   8568370.84045                  22628355.1174
        13.0004          9.7504
  21020867.5004   -9361866.87847  -7229051.59047                  21020871.2504
        23.5004         30.0004
  21431448.5634     810272.00447   1562492.99546                  21431453.6024
        21.2504         24.2504
  22338184.7664  -11773193.21146  -9139173.36746                  22338190.8014
        16.7504         16.5004
  23698811.7194   11658474.07645   9036240.25745                  23698818.6374
        11.2504          5.7504
  21049907.6884     627047.67847    526673.61447                  21049911.7664
        23.5004         31.0004
 00  5 11 20 15 30.0000000  0  6G 5G 6G10G17G24G30
  22638309.0554   11080048.19546   8609160.37645                  22638315.9144
        13.0004          9.0004
  21017019.0784   -9382091.18847  -7244810.78847                  21017022.6524
        23.5004         29.5004
  21436995.1094     839419.39547   1585205.23946                  21437000.1724
        21.2504         24.2504
  22333387.1724  -11798403.12946  -9158817.42446                  22333392.9024
        17.0004         16.0004
  23706860.2034   11700769.63845   9069197.78345                  23706866.8364
        10.7504          5.2504
  21055248.9144     655115.09247    548544.29547                  21055252.8284
        23.5004         30.7504
 00  5 11 20 15 45.0000000  0  6G 5G 6G10G17G24G30
  22648281.0474   11132452.62246   8649994.87345                  22648288.3634
        13.0004          9.2504
  21013181.8834   -9402255.07347  -7260522.90047                  21013185.4454
        23.5004         30.0004
  21442566.9844     868699.42547   1608020.83246                  21442572.0004
        21.5004         24.5004
  22328601.2584  -11823553.34246  -9178414.96346                  22328607.1174
        17.0004         16.5004
  23714908.2974   11743064.36745   9102154.65745                  23714914.1334
        10.7504          5.0004
  21060615.4454     683316.95047    570519.73147                  21060619.5354
        23.5004         30.5004
 00  5 11 20 16  0.0000000  0  6G 5G 6G10G17G24G30
  22658264.3914   11184914.29846   8690873.97745                  22658271.7074
        12.7504          9.2504
  21009356.3134   -9422358.39047  -7276187.81947                  21009360.0164
        23.5004         29.5004
  21448163.9144     898111.64847   1630939.43646                  21448168.9654
        21.5004         24.7504
  22323826.7664  -11848643.93446  -9197966.04846                  22323832.3794
        17.2504         17.0004
  23722956.8444   11785358.01045   9135110.69945                  23722964.4414
        10.2504          5.2504
  21066007.5554     711652.91047    592599.66047                  21066011.7034
        23.2504         30.2504
 00  5 11 20 16 15.0000000  0  7G13G 5G 6G10G17G24G30
  25023417.8284      -1276.76343
         5.0004
  22668258.6804   11237433.97946   8731798.27745                  22668265.8554
        12.5004          9.2504
  21005542.5394   -9442399.78247  -7291804.47847                  21005546.2894
        23.5004         29.5004
  21453786.0704     927656.76047   1653961.58546                  21453791.0274
        21.5004         24.2504
  22319063.8134  -11873673.75046  -9217469.77546                  22319069.3914
        17.2504         16.7504
  23731004.5084   11827651.68845   9168066.75345                  23731010.5204
         9.7504          5.0004
  21071425.5234     740123.85147    614784.77347                  21071429.6374
        23.2504         30.2504
 00  5 11 20 16 30.0000000  0  7G13G 5G 6G10G17G24G30
  25023180.4304      -2527.67343
         5.0004
  22678263.8284   11290009.07246   8772765.76445                  22678271.2734
        12.5004          8.7504
  21001740.1334   -9462381.34347  -7307374.51747                  21001743.7774
        23.5004         29.0004
  21459433.3834     957332.44547   1677085.48446                  21459438.3984
        21.5004         24.5004
  22314311.9304  -11898645.10946  -9236927.94846                  22314317.6374
        17.2504         16.7504
  23739052.5314   11869943.02045   9201020.98145                  23739058.9304
         9.7504          5.0004
  21076868.5474     768727.37847    637073.20047                  21076872.6954
        23.2504         30.0004
 00  5 11 20 16 45.0000000  0  7G13G 5G 6G10G17G24G30
  25022965.5474      -3659.00343
         5.7504
  22688278.2664   11342638.09146   8813775.25045                  22688285.6414
        12.2504          8.2504
  20997949.1254   -9482304.04947  -7322898.69847                  20997952.8634
        23.5004         29.5004
  21465105.0084     987137.21147   1700309.96146                  21465110.1294
        21.2504         24.5004
  22309570.8754  -11923559.28146  -9256341.56046                  22309576.8284
        17.2504         16.5004
  23747100.5554   11912230.64645   9233972.30045                  23747107.1994
         9.7504          5.2504
  21082336.7114     797461.87647    659463.68247                  21082340.7194
        23.2504         30.2504
 00  5 11 20 17  0.0000000  0  7G13G 5G 6G10G17G24G30
  25022773.0474      -4670.26343      -201.88552                  25022781.3954
         5.5004          1.5004
  22698304.0474   11395321.11046   8854826.82845                  22698311.1764
        12.2504          8.5004
  20994169.0474   -9502167.34247  -7338376.57947                  20994172.6804
        23.0004         29.2504
  21470801.3594    1017071.10647   1723635.06446                  21470806.4574
        21.2504         24.5004
  22304840.8204  -11948415.82846  -9275710.27146                  22304846.4344
        17.5004         17.0004
  23755146.5944   11954514.89345   9266921.01545                  23755153.2274
         9.0004          4.7504
  21087829.5314     826327.61047    681956.42247                  21087833.4924
        23.5004         30.2504
 00  5 11 20 17 15.0000000  0  7G13G 5G 6G10G17G24G30
  25022603.7424      -5562.38143      -897.05542                  25022609.9534
         5.7504          1.7504
  22708339.4454   11448056.57246   8895919.26245                  22708347.0084
        12.0004          8.2504
  20990400.3134   -9521972.12147  -7353808.86747                  20990404.0864
        23.2504         29.0004
  21476521.7424    1047132.78447   1747059.73246                  21476526.7584
        21.2504         24.2504
  22300121.4144  -11973215.90946  -9295034.98146                  22300126.9454
        17.5004         17.0004
  23763191.8284   11996794.53245   9299866.14045                  23763198.4844
         8.5004          4.7504
  21093347.3054     855323.18047    704550.33747                  21093351.2544
        23.5004         30.2504
 00  5 11 20 17 30.0000000  0  7G13G 5G 6G10G17G24G30
  25022456.6174      -6333.52544     -1497.91642                  25022463.8164
         6.2504          1.7504
  22718385.0164   11500845.91246   8937053.68945                  22718392.3794
        12.0004          8.0004
  20986643.0554   -9541716.40147  -7369194.01247                  20986646.7704
        23.2504         29.2504
  21482267.1414    1077323.68547   1770585.09546                  21482272.0984
        21.2504         24.0004
  22295413.2734  -11997957.79446  -9314314.34346                  22295418.7814
        17.2504         17.0004
  23771237.3594   12039071.48545   9332809.16144                  23771244.0044
         8.2504          4.0004
  21098890.1484     884450.21447    727246.69047                  21098893.9694
        23.5004         30.5004
 00  5 11 20 17 45.0000000  0  7G13G 5G 6G10G17G24G30
  25022332.4224      -6984.74243     -2005.38042                  25022337.9884
         6.0004          1.7504
  22728440.2894   11553687.61945   8978228.91045                  22728447.5824
        11.7504          8.2504
  20982897.3284   -9561401.15547  -7384532.77447                  20982900.9734
        23.2504         29.2504
  21488036.4224    1107642.39147   1794210.04846                  21488041.5434
        21.2504         24.2504
  22290715.7584  -12022642.63046  -9333549.24946                  22290721.4654
        17.5004         17.0004
  23779280.5634   12081344.10945   9365748.80144                  23779286.7974
         8.2504          4.0004
  21104457.5944     913707.13547    750044.25747                  21104461.6134
        23.5004         30.2504
 00  5 11 20 18  0.0000000  0  7G13G 5G 6G10G17G24G30
  25022231.1174      -7518.38943     -2421.12042                  25022239.3484
         5.7504          2.0004
  22738505.0474   11606578.73945   9019442.63045                  22738512.3404
        11.7504          8.2504
  20979162.3754   -9581028.75347  -7399826.99747                  20979166.1134
        23.0004         29.2504
  21493829.6724    1138086.05847   1817932.37546                  21493834.8284
        21.5004         24.0004
  22286028.7114  -12047272.93946  -9352741.67046                  22286034.5594
        17.5004         17.2504
  23787323.8444   12123609.99745   9398683.21444                  23787331.4064
         8.2504          4.0004
  21110049.0944     943091.23547    772940.91947                  21110053.0904
        23.5004         30.2504
 00  5 11 20 18 15.0000000  0  7G13G 5G 6G10G17G24G30
  25022152.7734      -7931.67544     -2743.15042                  25022158.7504
         6.2504          1.7504
  22748579.7974   11659521.64845   9060696.71845                  22748586.9964
        11.7504          8.0004
  20975438.5234   -9600596.32547  -7415074.44747                  20975442.3324
        23.0004         29.2504
  21499647.1564    1168657.06947   1841753.93746                  21499652.0434
        21.2504         23.7504
  22281352.6724  -12071846.12546  -9371889.57846                  22281358.5784
        17.0004         16.7504
  23795366.0704   12165871.63245   9431614.27644                  23795372.9534
         8.2504          4.0004
  21115665.2734     972604.97147    795938.59547                  21115669.3524
        23.5004         30.0004
 00  5 11 20 18 30.0000000  0  7G13G 5G 6G10G17G24G30
  25022097.6724      -8222.28444     -2969.57742                  25022103.8834
         6.5004          1.5004
  22758665.3594   11712518.21446   9101992.60145                  22758672.8984
        12.0004          8.0004
  20971726.8674   -9620101.55947  -7430273.32447                  20971730.7114
        22.7504         29.2504
  21505489.0474    1199357.36247   1865676.22646                  21505493.9924
        21.2504         23.5004
  22276687.7344  -12096360.05046  -9390991.30246                  22276693.6294
        17.0004         17.0004
  23803408.5784   12208131.19345   9464543.74244                  23803415.6024
         8.7504          4.2504
  21121306.5554    1002250.07947    819038.64747                  21121310.6564
        23.2504         30.0004
 00  5 11 20 18 45.0000000  0  7G13G 5G 6G10G17G24G30
  25022065.2344      -8390.49444     -3100.68142                  25022073.1604
         6.7504          2.2504
  22768760.3754   11765567.73646   9143329.75245                  22768766.7624
        12.2504          7.7504
  20968027.2664   -9639544.49047  -7445423.65247                  20968031.2734
        22.7504         28.7504
  21511355.6954    1230186.32747   1889698.78646                  21511360.6764
        21.2504         23.5004
  22272033.9534  -12120815.01546  -9410047.09246                  22272039.8134
        17.2504         17.5004
  23811450.0314   12250388.15445   9497471.23444                  23811457.6764
         9.2504          4.0004
  21126972.8834    1032026.14847    842240.73747                  21126977.0784
        23.0004         29.7504
 00  5 11 20 19  0.0000000  0  7G13G 5G 6G10G17G24G30
  25022055.3364      -8438.38943     -3137.99342                  25022062.8164
         6.0004          1.7504
  22778865.0784   11818667.63146   9184706.16445                  22778871.9104
        12.2504          8.0004
  20964338.5004   -9658927.20847  -7460527.06447                  20964342.4614
        22.7504         28.7504
  21517246.3674    1261141.39647   1913819.60446                  21517251.3244
        21.5004         23.5004
  22267391.1564  -12145213.26546  -9429058.68046                  22267397.0514
        17.2504         17.0004
  23819489.1564   12292640.16545   9530394.78744                  23819496.5314
         9.0004          4.0004
  21132663.6884    1061930.66047    865542.91847                  21132667.9774
        23.0004         29.7504
 00  5 11 20 19 15.0000000  0  7G13G 5G 6G10G17G24G30
  25022069.4224      -8364.79743     -3080.61342                  25022077.8634
         5.5004          1.7504
  22788979.1484   11871818.64546   9226122.40145                  22788986.6994
        12.0004          8.2504
  20960661.9064   -9678248.42247  -7475582.54647                  20960665.6454
        22.7504         28.7504
  21523160.9924    1292223.32047   1938039.27846                  21523165.8554
        21.2504         23.5004
  22262759.4534  -12169553.76246  -9448025.26946                  22262765.1374
        17.0004         17.7504
  23827530.0784   12334888.33245   9563315.37344                  23827537.0434
         9.7504          4.2504
  21138378.8284    1091964.45347    888945.83147                  21138383.1054
        23.0004         29.7504
 00  5 11 20 19 30.0000000  0  7G13G 5G 6G10G17G24G30
  25022106.9774      -8169.85943     -2928.68142                  25022116.0634
         5.7504          2.0004
  22799103.3674   11925020.22446   9267578.03045                  22799110.7194
        12.2504          8.0004
  20956996.9844   -9697508.13847  -7490590.11147                  20957000.7704
        23.0004         28.5004
  21529099.8134    1323431.47547   1962357.30746                  21529104.7464
        21.0004         23.5004
  22258138.5394  -12193836.76946  -9466947.06246                  22258144.4804
        17.2504         17.7504
  23835568.3444   12377132.25045   9596232.66344                  23835574.3914
         9.5004          3.7504
  21144118.6174    1122127.06747    912449.12847                  21144122.9414
        23.0004         29.5004
 00  5 11 20 19 45.0000000  0  7G13G 5G 6G10G17G24G30
  25022167.7034      -7850.03644     -2679.43242                  25022172.2154
         6.2504          1.7504
  22809237.6804   11978275.43946   9309075.47445                  22809244.4774
        12.0004          8.0004
  20953344.3134   -9716702.71747  -7505546.92147                  20953348.1564
        23.0004         28.7504
  21535063.1644    1354769.18947   1986776.29646                  21535068.0864
        21.0004         23.0004
  22253528.8134  -12218058.94846  -9485821.44946                  22253534.5664
        17.2504         17.5004
  23843607.2504   12419375.28045   9629149.24644                  23843615.1884
        10.0004          4.0004
  21149883.7424    1152421.63747    936055.24647                  21149888.2074
        23.0004         29.2504
 00  5 11 20 20  0.0000000  0  7G13G 5G 6G10G17G24G30
  25022252.4064      -7408.78544     -2335.63742                  25022256.4264
         6.5004          1.7504
  22819381.4774   12031580.23246   9350611.52845                  22819388.3484
        12.0004          8.0004
  20949703.2974   -9735835.74147  -7520455.76147                  20949706.9064
        22.7504         28.5004
  21541050.5084    1386232.40747   2011293.07946                  21541055.5594
        20.7504         22.5004
  22248931.0554  -12242224.04846  -9504651.36346                  22248936.7384
        17.7504         18.0004
  23851644.9304   12461613.62345   9662062.18044                  23851651.2814
         9.7504          3.5004
  21155672.8674    1182844.21847    959761.11547                  21155677.2974
        22.7504         30.0004
 00  5 11 20 20 15.0000000  0  7G13G 5G 6G10G17G24G30
  25022359.0554      -6843.84243     -1895.35742                  25022367.3914
         6.0004          1.5004
  22829534.4454   12084936.35945   9392187.59945                  22829541.5514
        11.7504          8.0004
  20946074.7274   -9754904.79447  -7535314.75947                  20946078.2894
        23.0004         28.5004
  21547062.0474    1417822.99247   2035909.10746                  21547066.9804
        20.7504         23.0004
  22244343.6254  -12266329.79946  -9523435.03746                  22244349.2854
        18.0004         18.5004
  23859682.3834   12503849.36245   9694973.10344                  23859689.0164
        10.2504          4.0004
  21161486.7894    1213396.66447    983568.17447                  21161491.2544
        22.7504         29.5004
 00  5 11 20 20 30.0000000  0  8G13G 5G 6G26G10G17G24G30
  25022490.3524      -6152.96544     -1356.99842                  25022496.7384
         6.2504          1.7504
  22839698.3204   12138345.56846   9433805.01645                  22839705.5084
        12.0004          8.0004
  20942458.6564   -9773907.51647  -7550122.06847                  20942462.3014
        23.0004         28.7504
  24415026.0554     -37364.55042
         4.2504
  21553097.8914    1449542.87747   2060625.89246                  21553102.5784
        20.7504         22.5004
  22239767.9224  -12290374.16846  -9542170.87746                  22239773.4774
        18.0004         18.5004
  23867719.1334   12546084.56445   9727883.57244                  23867724.3014
        10.2504          3.5004
  21167325.9924    1244080.81847   1007477.86547                  21167330.2704
        23.2504         30.2504
 00  5 11 20 20 45.0000000  0  7G13G 5G 6G10G17G24G30
  25022646.3444      -5336.81944      -721.01642                  25022653.5084
         7.2504          2.2504
  22849871.7344   12191806.82846   9475462.99745                  22849879.6954
        12.0004          7.7504
  20938855.1954   -9792844.48447  -7564878.13847                  20938858.8284
        23.0004         28.5004
  21559158.4614    1481390.90547   2085442.52746                  21559163.5124
        20.5004         22.5004
  22235203.7424  -12314357.99646  -9560859.54446                  22235209.6024
        18.0004         18.0004
  23875756.1414   12588318.33745   9760792.96744                  23875761.6844
        10.0004          4.0004
  21173189.8444    1274895.67147   1031489.39947                  21173194.3324
        23.2504         30.0004
 00  5 11 20 21  0.0000000  0  8G13G 5G 6G26G10G17G24G30
  25022825.7974      -4394.36044        13.40442                  25022831.5394
         7.0004          2.0004
  22860055.2424   12245320.75045   9517162.02345                  22860063.2274
        11.7504          7.5004
  20935264.1954   -9811714.54447  -7579582.07547                  20935268.0514
        22.7504         28.7504
  24399790.0554     -29349.83652
         4.2504
  21565243.2584    1513367.72747   2110359.52546                  21565248.2274
        20.5004         22.5004
  22230651.8444  -12338280.39846  -9579500.34746                  22230657.1524
        18.0004         18.7504
  23883792.7194   12630551.55845   9793701.92044                  23883798.3204
        10.2504          4.0004
  21179078.7424    1305841.97047   1055603.35647                  21179082.8444
        23.5004         30.2504
 00  5 11 20 21 15.0000000  0  8G13G 5G 6G26G10G17G24G30
  25023029.8134      -3323.55044       847.78642                  25023036.5044
         7.0004          1.7504
  22870249.0004   12298888.75545   9558903.17745                  22870256.9144
        11.7504          7.7504
  20931686.5164   -9830515.68447  -7594232.30347                  20931690.3134
        22.7504         28.5004
  24392174.6024     -69369.15642
         4.0004
  21571353.3834    1545474.85547   2135378.05046                  21571358.4574
        20.5004         22.2504
  22226111.3134  -12362139.50346  -9598091.82846                  22226116.7974
        18.2504         18.2504
  23891830.0084   12672785.90945   9826611.79243                  23891836.3484
        10.2504          3.2504
  21184992.7194    1336921.17747   1079820.88047                  21184996.8444
        23.5004         30.5004
 00  5 11 20 21 30.0000000  0  8G13G 5G 6G26G10G17G24G30
  25023257.0554      -2125.97044      1780.98742                  25023265.4144
         6.7504          2.2504
  22880452.6024   12352508.68645   9600684.78845                  22880460.8674
        11.7504          7.7504
  20928121.5314   -9849249.34547  -7608829.95447                  20928125.3284
        22.7504         28.5004
  24384559.0234    -109382.17342
         4.0004
  21577487.3754    1577710.38847   2160496.63646                  21577492.2974
        20.5004         22.2504
  22221582.8984  -12385937.03146  -9616635.33046                  22221588.3834
        18.2504         18.2504
  23899866.6414   12715019.67945   9859521.14944                  23899873.1094
        10.5004          3.5004
  21190932.3284    1368131.50847   1104140.57747                  21190936.5234
        23.5004         30.0004
 00  5 11 20 21 45.0000000  0  8G13G 5G 6G26G10G17G24G30
  25023508.8594       -799.85543      2814.34542                  25023513.8754
         6.0004          1.7504
  22890666.6804   12406182.10845   9642508.09945                  22890674.2544
        11.7504          7.7504
  20924569.8984   -9867913.49147  -7623373.43747                  20924573.5434
        22.7504         28.5004
  24376947.2814    -149386.56842
         3.7504
  21583646.4304    1610075.69847   2185716.34846                  21583651.3524
        20.5004         22.5004
  22217066.5784  -12409671.22246  -9635129.47846                  22217072.0744
        18.2504         18.7504
  23907902.9844   12757254.67045   9892431.48144                  23907908.8444
         9.7504          3.5004
  21196896.4454    1399474.52147   1128563.66547                  21196900.5824
        23.5004         30.0004
 00  5 11 20 22  0.0000000  0  8G13G 5G 6G26G10G17G24G30
  25023785.8674        656.49743      3949.20442                  25023792.3594
         5.7504          2.0004
  22900890.3754   12459910.15345   9684373.96245                  22900898.1374
        11.5004          7.0004
  20921031.7974   -9886506.46747  -7637861.46447                  20921035.4184
        23.0004         28.7504
  24369335.5554    -189380.52642     -2076.00452                  24369351.5434
         4.5004          1.7504
  21589830.2504    1642572.00847   2211038.13846                  21589835.1954
        20.5004         22.5004
  22212562.2114  -12433340.58146  -9653573.10846                  22212567.7544
        18.5004         18.5004
  23915940.9844   12799492.13945   9925343.75944                  23915947.7584
        10.2504          3.5004
  21202886.2974    1430951.30347   1153090.98647                  21202890.6804
        23.2504         30.2504
 00  5 11 20 22 15.0000000  0  8G13G 5G 6G26G10G17G24G30
  25024087.0084       2241.44343      5184.18442                  25024095.5784
         6.0004          1.7504
  22911125.1804   12513690.82845   9726280.83045                  22911132.8834
        11.5004          7.5004
  20917506.8674   -9905029.82447  -7652295.24247                  20917510.6764
        23.0004         29.0004
  24361726.9304    -229365.48742    -33232.91742                  24361743.9024
         4.5004          2.0004
  21596038.6884    1675197.47447   2236460.56846                  21596043.7154
        20.5004         22.0004
  22208069.9064  -12456946.83146  -9671967.56746                  22208075.2154
        18.2504         18.2504
  23923978.5554   12841730.34245   9958256.57144                  23923985.4144
        10.2504          3.5004
  21208901.3754    1462559.80347   1177720.94647                  21208905.7114
        23.5004         30.0004
 00  5 11 20 22 30.0000000  0  8G13G 5G 6G26G10G17G24G30
  25024415.3524       3958.09244      6521.89042                  25024422.4344
         6.7504          2.0004
  22921369.4454   12567526.75245   9768230.74745                  22921377.4414
        11.2504          7.2504
  20913995.8054   -9923480.30547  -7666672.22947                  20913999.5434
        23.0004         29.0004
  24354120.2114    -269337.94142    -64380.01642                  24354137.2544
         4.2504          1.7504
  21602272.2894    1707954.85147   2261985.78346                  21602277.1644
        20.5004         22.2504
  22203590.5394  -12480486.94946  -9690310.48846                  22203596.0944
        18.0004         18.2504
  23932017.3204   12883972.25745   9991172.31143                  23932022.9694
        10.2504          3.0004
  21214941.8524    1494302.98247   1202455.84847                  21214946.1414
        23.5004         29.7504
 00  5 11 20 22 45.0000000  0  8G13G 5G 6G26G10G17G24G30
  25024767.5864       5807.51245      7962.99243                  25024773.1644
         8.2504          2.5004
  22931624.3444   12621418.47245   9810224.14845                  22931632.1174
        11.0004          7.2504
  20910498.9924   -9941856.82347  -7680991.58847                  20910502.8014
        23.0004         29.0004
  24346515.4144    -309296.67442    -95516.37842                  24346528.7664
         4.0004          1.5004
  21608530.9304    1740844.58547   2287614.14046                  21608535.8874
        20.7504         22.5004
  22199123.6804  -12503960.06846  -9708601.20046                  22199129.4224
        18.0004         18.5004
  23940057.0394   12926218.64845  10024091.54744                  23940063.8364
        10.7504          3.7504
  21221008.0864    1526181.33947   1227296.08747                  21221012.4924
        23.5004         30.0004
 00  5 11 20 23  0.0000000  0  8G13G 5G 6G26G10G17G24G30
  25025143.4844       7790.24444      9508.01642                  25025150.0234
         6.7504          2.2504
  22941891.1254   12675366.10845   9852261.13045                  22941899.3324
        11.0004          7.2504
  20907016.1174   -9960158.70947  -7695252.79447                  20907020.0204
        23.0004         29.2504
  24338914.4064    -349240.80843   -126641.46742                  24338929.0124
         5.0004          2.2504
  21614814.7274    1773866.89947   2313345.79846                  21614819.7074
        20.5004         22.2504
  22194669.6884  -12527365.75546  -9726839.36546                  22194675.4304
        17.7504         18.5004
  23948096.8594   12968470.02045  10057014.63044                  23948103.6564
        10.2504          3.7504
  21227100.1334    1558195.14247   1252241.86947                  21227104.5044
        23.2504         29.7504
 00  5 11 20 23 15.0000000  0  8G13G 5G 6G26G10G17G24G30
  25025545.5944       9906.15244     11156.77642                  25025553.6024
         6.5004          2.2504
  22952167.6484   12729369.19145   9894341.29145                  22952175.5984
        11.0004          7.0004
  20903547.6024   -9978385.86147  -7709455.76247                  20903551.4104
        23.2504         29.2504
  24331316.2274    -389169.98643   -157754.91742                  24331329.0274
         5.2504          2.0004
  21621123.8284    1807021.38747   2339180.45646                  21621128.9964
        20.5004         22.2504
  22190228.4064  -12550704.21046  -9745025.14446                  22190233.9964
        17.7504         18.7504
  23956137.9384   13010726.04445  10089941.34344                  23956144.6764
        10.5004          3.7504
  21233217.8364    1590343.88647   1277292.79747                  21233222.1484
        23.5004         29.7504
 00  5 11 20 23 30.0000000  0  8G13G 5G 6G26G10G17G24G30
  25025974.8914      12156.40044     12910.29342                  25025980.5634
         7.0004          2.0004
  22962454.1954   12783428.33145   9936465.13745                  22962462.1094
        10.7504          6.7504
  20900093.5634   -9996537.12547  -7723599.59747                  20900097.3244
        23.5004         29.2504
  24323721.7504    -429083.00243   -188855.63843                  24323735.4414
         5.7504          2.5004
  21627458.4694    1840308.63647   2365118.56246                  21627463.6604
        20.5004         22.0004
  22185800.2814  -12573974.47646  -9763157.78546                  22185805.7894
        17.7504         19.0004
  23964180.1174   13052987.55945  10122872.36544                  23964187.2234
        10.7504          3.5004
  21239361.4384    1622628.28947   1302449.43647                  21239365.7504
        23.2504         29.5004
 00  5 11 20 23 45.0000000  0  8G13G 5G 6G26G10G17G24G30
  25026428.1094      14540.15744     14767.74642                  25026435.6844
         7.0004          2.2504
  22972752.2194   12837542.30245   9978631.72745                  22972760.2734
        10.7504          7.0004
  20896653.8984  -10014613.21347  -7737684.85247                  20896657.6484
        23.5004         30.0004
  24316128.2664    -468980.33143   -219944.18942                  24316139.4264
         5.0004          2.0004
  21633817.7584    1873727.36047   2391159.11346                  21633822.8094
        20.2504         21.7504
  22181385.1024  -12597177.60346  -9781238.10546                  22181390.7274
        18.0004         19.5004
  23972223.8364   13095253.64045  10155806.90943                  23972231.1764
        10.2504          3.2504
  21245530.6414    1655047.17747   1327710.87047                  21245535.0704
        23.2504         29.5004
 00  5 11 20 24  0.0000000  0  8G13G 5G 6G26G10G17G24G30
  25026907.9454      17060.13044     16731.34442                  25026911.5664
         7.2504          2.2504
  22983061.0004   12891713.35245  10020842.76445                  22983069.2074
        11.0004          7.0004
  20893228.9614  -10032611.35047  -7751709.36747                  20893232.7704
        23.5004         29.7504
  24308539.8914    -508858.99143   -251018.30942                  24308555.7034
         6.0004          1.7504
  21640202.4064    1907279.93247   2417303.96346                  21640207.4694
        20.2504         21.2504
  22176982.5784  -12620310.97746  -9799264.09046                  22176988.1804
        17.7504         19.2504
  23980267.8054   13137526.76745  10188746.94444                  23980273.3244
         9.7504          3.5004
  21251725.6884    1687602.96947   1353078.97947                  21251730.1994
        23.2504         29.2504
 00  5 11 20 24 15.0000000  0  8G13G 5G 6G26G10G17G24G30
  25027413.2274      19714.60644     18799.77942                  25027418.4064
         7.2504          2.0004
  22993379.5864   12945939.36745  10063096.66045                  22993387.4774
        10.7504          7.5004
  20889818.5704  -10050533.06647  -7765674.33947                  20889822.3444
        23.5004         29.7504
  24300954.2504    -548720.26244   -282078.76542                  24300967.0984
         6.5004          2.2504
  21646612.3204    1940964.20847   2443551.43646                  21646617.5124
        20.0004         21.2504
  22172593.2194  -12643376.36146  -9817237.08046                  22172598.9964
        17.7504         19.2504
  23988313.1644   13179805.08645  10221691.05744                  23988319.8914
         9.0004          3.5004
  21257946.6884    1720293.44447   1378552.03147                  21257951.1644
        23.2504         29.7504
 00  5 11 20 24 30.0000000  0  9G13G 5G 6G26G10G17G24G23G30
  25027943.2344      22502.56544     20972.24042                  25027948.9184
         6.5004          2.0004
  23003709.1564   13000218.75845  10105392.13245                  23003717.9024
        11.0004          7.2504
  20886422.4924  -10068379.38847  -7779580.55847                  20886426.2894
        23.5004         29.7504
  24293372.5234    -588565.22843   -313126.56443                  24293388.7234
         6.0004          2.7504
  21653047.2114    1974778.77746   2469900.43646                  21653052.7774
        19.7504         20.7504
  22168217.0164  -12666374.97046  -9835158.03946                  22168222.8164
        18.0004         19.5004
  23996358.4534   13222087.42645  10254638.29243                  23996364.7464
         8.0004          3.0004
  24540588.8594     -26370.16354
         6.7504
  21264192.8204    1753117.36647   1404129.07147                  21264197.2384
        23.0004         29.2504
 00  5 11 20 24 45.0000000  0  9G13G 5G 6G26G10G17G24G23G30
  25028500.0704      25425.23945     23249.69842                  25028506.9774
         7.7504          2.0004
  23014048.5864   13054552.40745  10147729.88445                  23014057.1454
        11.2504          7.2504
  20883041.1644  -10086148.82147  -7793426.86247                  20883044.9614
        23.5004         30.0004
  24285793.2504    -628392.06144   -344160.20843                  24285806.4494
         6.2504          2.7504
  21659506.7584    2008724.65946   2496351.76246                  21659512.0784
        19.7504         21.0004
  22163853.4694  -12689305.59146  -9853026.02746                  22163859.0594
        18.2504         19.5004
  24004405.0084   13264374.85445  10287589.46443                  24004411.9964
         8.2504          3.2504
  24531183.8834     -75792.09244
         6.2504
  21270464.5634    1786075.58947   1429810.76347                  21270468.9924
        22.7504         29.2504
 00  5 11 20 25  0.0000000  0  9G13G 5G 6G26G10G17G24G23G30
  25029082.0234      28483.73745     25632.92842                  25029086.0434
         8.0004          2.2504
  23024398.6954   13108940.85445  10190110.32945                  23024406.8324
        11.0004          7.0004
  20879674.5634  -10103840.28347  -7807212.40947                  20879678.2774
        23.5004         30.0004
  24278217.5864    -668199.53544   -375178.79543                  24278229.8954
         7.0004          2.7504
  21665991.5864    2042802.33046   2522905.77946                  21665996.9304
        19.7504         20.7504
  22159503.0084  -12712167.37546  -9870840.37246                  22159508.5634
        18.2504         19.7504
  24012453.5164   13306668.24345  10320545.28143                  24012460.2774
         8.2504          3.2504
  24521784.6094    -125177.99643
         5.7504
  21276762.0554    1819168.61447   1455597.49447                  21276766.5664
        22.7504         28.7504
 00  5 11 20 25 15.0000000  0  9G13G 5G 6G26G10G17G24G23G30
  25029689.6024      31677.77244     28121.80742                  25029696.8244
         7.2504          2.2504
  23034758.7344   13163383.47045  10232532.99445                  23034767.5274
        11.0004          7.0004
  20876322.7034  -10121453.93847  -7820937.32747                  20876326.3244
        23.7504         29.7504
  24270646.1884    -707987.53145   -406182.23843                  24270660.3244
         7.5004          2.7504
  21672501.3754    2077011.13746   2549561.97946                  21672506.4734
        19.7504         21.0004
  22155165.5634  -12734960.61146  -9888601.30446                  22155171.0824
        18.2504         19.5004
  24020503.3204   13348967.09245  10353505.37043                  24020510.4264
         8.2504          3.2504
  24512395.0394    -174527.88044    -17940.13053                  24512413.7934
         6.7504          2.5004
  21283085.1024    1852395.98747   1481488.91347                  21283089.5314
        22.7504         28.5004
 00  5 11 20 25 30.0000000  0  9G13G 5G 6G26G10G17G24G23G30
  25030322.6174      35005.45444     30714.82543                  25030330.3324
         7.0004          2.5004
  23045128.6644   13217877.94945  10274996.05145                  23045137.4224
        10.7504          7.0004
  20872985.3674  -10138991.53647  -7834602.98247                  20872989.1414
        23.7504         30.2504
  24263078.4844    -747757.65745   -437171.70543                  24263092.4804
         7.5004          2.7504
  21679035.7814    2111348.86247   2576318.63446                  21679040.9844
        20.2504         21.2504
  22150840.7274  -12757687.31946  -9906310.40046                  22150846.3754
        18.2504         19.2504
  24028553.5634   13391269.47645  10386468.18143                  24028559.9144
         8.0004          3.2504
  24503010.8444    -223843.43844    -56367.58942                  24503029.1644
         7.0004          2.2504
  21289433.1954    1885755.37847   1507483.19747                  21289437.6134
        22.7504         28.5004
 00  5 11 20 25 45.0000000  0  9G13G 5G 6G26G10G17G24G23G30
  25030982.2034      38469.07745     33413.71342                  25030987.3594
         7.5004          1.7504
  23055509.3524   13272426.09645  10317500.95045                  23055518.5204
        10.7504          7.0004
  20869663.2504  -10156450.64047  -7848207.47247                  20869666.9064
        23.7504         30.7504
  24255513.0314    -787507.26644   -468145.17943                  24255527.4024
         7.0004          3.0004
  21685594.9534    2145817.43247   2603177.24846                  21685600.0044
        20.2504         21.2504
  22146529.0864  -12780345.34046  -9923965.97246                  22146534.7344
        18.2504         19.0004
  24036603.7974   13433577.37045  10419435.33643                  24036610.3594
         7.7504          3.2504
  24493630.8754    -273122.15844    -94766.30243                  24493650.0514
         6.2504          2.7504
  21295806.6484    1919248.69747   1533581.84547                  21295810.8914
        22.7504         28.5004
 00  5 11 20 26  0.0000000  0  9G13G 5G 6G26G10G17G24G23G30
  25031666.8984      42066.50445     36216.98942                  25031672.1374
         7.7504          2.2504
  23065899.3444   13327025.38045  10360045.67145                  23065908.2194
        11.0004          7.2504
  20866355.2034  -10173833.19147  -7861752.31047                  20866358.7774
        23.7504         30.2504
  24247953.4924    -827238.24245   -499104.15643                  24247967.3364
         8.0004          3.2504
  21692178.2034    2180414.29547   2630135.82846                  21692183.4884
        20.2504         21.2504
  22142229.9384  -12802936.89146  -9941569.75146                  22142235.6214
        18.5004         19.2504
  24044655.9844   13475888.62045  10452405.07643                  24044664.4144
         8.0004          3.2504
  24484261.2894    -322366.02244   -133137.87643                  24484278.8014
         6.5004          2.7504
  21302205.4144    1952873.46547   1559782.91647                  21302209.9264
        22.2504         28.0004
 00  5 11 20 26 15.0000000  0  9G13G 5G 6G26G10G17G24G23G30
  25032376.7584      45797.73844     39124.40042                  25032382.5704
         7.0004          2.0004
  23076299.0864   13381675.27345  10402629.85145                  23076308.0554
        11.2504          7.5004
  20863062.1644  -10191139.18647  -7875237.49547                  20863065.7154
        24.0004         30.2504
  24240396.4454    -866950.31645   -530048.37743                  24240409.6454
         8.0004          2.7504
  21698786.1644    2215139.03647   2657194.05846                  21698791.5204
        20.2504         21.2504
  22137943.6254  -12825462.17346  -9959121.88346                  22137949.1914
        18.2504         19.0004
  24052707.7194   13518203.01445  10485377.29044                  24052714.6374
         8.2504          3.5004
  24474896.8054    -371574.78644   -171482.12043                  24474914.7974
         6.2504          2.5004
  21308628.8134    1986629.33547   1586086.14947                  21308633.2304
        22.2504         27.7504
 00  5 11 20 26 30.0000000  0  9G13G 5G 6G26G10G17G24G23G30
  25033111.8754      49661.74344     42135.34742                  25033116.0824
         7.2504          2.0004
  23086707.1644   13436374.23645  10445252.26245                  23086715.6994
        11.0004          7.2504
  20859783.2894  -10208369.61147  -7888663.79247                  20859787.0274
        24.0004         30.7504
  24232841.9454    -906644.17944   -560978.50043                  24232855.8954
         7.0004          2.5004
  21705418.2584    2249990.11147   2684350.72246                  21705423.6724
        20.5004         21.0004
  22133669.4774  -12847922.42146  -9976623.34546                  22133675.0664
        18.2504         19.2504
  24060761.1254   13560519.35045  10518350.97643                  24060767.9964
         8.2504          3.2504
  24465538.3984    -420749.37443   -209799.60742                  24465556.9064
         6.0004          2.2504
  21315077.1644    2020514.80447   1612490.36847                  21315081.8164
        22.2504         27.7504
 00  5 11 20 26 45.0000000  0  9G13G 5G 6G26G10G17G24G23G30
  25033872.9064      53660.71945     45251.44942                  25033877.0784
         7.5004          2.0004
  23097126.0004   13491124.20845  10487914.39945                  23097134.7934
        11.0004          7.2504
  20856519.2424  -10225521.96147  -7902029.25347                  20856522.8984
        24.2504         30.5004
  24225292.7424    -946317.30045   -591892.37944                  24225305.7424
         8.2504          3.5004
  21712074.6724    2284969.38947   2711607.28946                  21712079.5354
        20.5004         21.5004
  22129408.2424  -12870315.33446  -9994072.33846                  22129413.8324
        18.0004         19.0004
  24068813.6024   13602839.64845  10551327.77144                  24068819.8954
         8.2504          3.5004
  24456188.0314    -469887.29043   -248088.53442                  24456207.7704
         6.0004          2.2504
  21321550.2894    2054531.79947   1638997.07247                  21321554.7774
        22.2504         27.7504
 00  5 11 20 27  0.0000000  0  9G13G 5G 6G26G10G17G24G23G30
  25034659.7814      57795.55844     48473.39942                  25034664.7504
         7.0004          1.7504
  23107555.6564   13545925.65745  10530616.67245                  23107564.6484
        11.2504          7.5004
  20853270.2424  -10242595.26147  -7915333.11547                  20853273.8754
        24.2504         30.7504
  24217748.3594    -985968.43045   -622789.08743                  24217760.7154
         8.5004          3.0004
  21718755.4144    2320077.44247   2738964.20246                  21718760.1484
        21.0004         21.5004
  22125159.8054  -12892640.17746 -10011468.29046                  22125165.5354
        18.0004         18.7504
  24076868.5004   13645164.72645  10584308.30544                  24076875.4884
         8.2504          3.5004
  24446844.1954    -518987.56744   -286348.19543                  24446863.8054
         6.2504          2.7504
  21328048.7734    2088680.87047   1665606.69247                  21328053.3674
        22.2504         27.5004
 00  5 11 20 27 15.0000000  0  9G13G 5G 6G26G10G17G24G23G30
  25035471.5634      62065.42544     51800.59242                  25035479.2774
         7.0004          2.2504
  23117992.4304   13600777.23645  10573357.98245                  23118001.6564
        11.2504          6.7504
  20850036.2344  -10259590.32747  -7928576.01847                  20850039.8794
        24.0004         30.7504
  24210205.0234   -1025598.22744   -653669.26343                  24210218.2934
         6.2504          2.5004
  21725460.6724    2355312.81147   2766420.32146                  21725465.6054
        21.0004         21.7504
  22120924.1254  -12914898.01546 -10028812.02746                  22120929.5044
        17.7504         18.7504
  24084922.1484   13687493.50945  10617291.72643                  24084929.2664
         7.7504          3.0004
  24437507.7584    -568050.88643   -324579.00642                  24437524.8594
         5.5004          2.2504
  21334571.8674    2122960.66247   1692318.17647                  21334576.4844
        22.2504         28.0004
 00  5 11 20 27 30.0000000  0  9G13G 5G 6G26G10G17G24G23G30
  25036310.5004      66472.44445     55234.65042                  25036317.3594
         7.5004          2.2504
  23128440.9454   13655680.60545  10616139.67345                  23128449.5864
        11.2504          7.0004
  20846817.6174  -10276504.87047  -7941756.17647                  20846821.4144
        24.0004         30.5004
  24202667.9384   -1065204.19245   -684530.84843                  24202681.3714
         7.5004          2.7504
  21732190.2664    2390677.38747   2793977.11946                  21732195.4454
        21.2504         21.5004
  22116701.8204  -12937086.77046 -10046101.93946                  22116707.5864
        17.7504         18.7504
  24092978.8444   13729828.04645  10650279.62544                  24092987.0274
         7.7504          3.5004
  24428179.0784    -617074.86643   -362779.20543                  24428197.4574
         6.0004          2.5004
  21341120.5084    2157373.02547   1719132.95847                  21341125.1484
        22.2504         27.7504
 00  5 11 20 27 45.0000000  0  9G13G 5G 6G26G10G17G24G23G30
  25037175.3914      71016.57445     58775.51742                  25037181.1804
         7.5004          2.0004
  23138899.2734   13710635.40345  10658961.41745                  23138907.7154
        11.2504          7.0004
  20843614.0164  -10293338.62847  -7954873.38347                  20843617.6484
        24.0004         30.7504
  24195136.6644   -1104786.07345   -715373.60943                  24195150.5904
         7.7504          3.0004
  21738944.4694    2426170.80547   2821634.31046                  21738949.4024
        21.2504         21.5004
  22112492.7194  -12959206.55746 -10063338.10746                  22112498.6374
        17.7504         18.5004
  24101036.0164   13772168.13345  10683271.82943                  24101043.6134
         8.0004          3.2504
  24418856.5634    -666059.26643   -400948.53042                  24418874.1334
         5.0004          2.0004
  21347694.0864    2191917.59647   1746050.76247                  21347698.8794
        22.2504         28.0004
 00  5 11 20 28  0.0000000  0  9G13G 5G 6G26G10G17G24G23G30
  25038065.6254      75697.93445     62423.32242                  25038071.3204
         7.5004          1.7504
  23149365.6884   13765641.20145  10701822.89945                  23149374.7624
        10.7504          6.7504
  20840426.2584  -10310091.43947  -7967927.51547                  20840429.8324
        24.2504         30.2504
  24187608.4844   -1144343.39244   -746197.24342                  24187622.5514
         6.7504          2.2504
  21745723.1954    2461792.81247   2849391.70546                  21745727.9534
        21.2504         21.7504
  22108296.5554  -12981257.36646 -10080520.52346                  22108302.1334
        18.0004         19.5004
  24109094.2194   13814513.69045  10716268.31244                  24109100.9574
         8.2504          3.5004
  24409543.3524    -715003.75743   -439086.78242                  24409563.0784
         5.0004          2.0004
  21354292.8444    2226594.12847   1773071.39347                  21354297.5314
        22.5004         27.7504
 00  5 11 20 28 15.0000000  0  9G13G 5G 6G26G10G17G24G23G30
  25038982.6414      80514.63044     66176.58442                  25038989.9574
         7.0004          2.0004
  23159843.2734   13820695.62745  10744722.27545                  23159852.3134
        11.0004          7.0004
  20837253.2274  -10326765.20147  -7980920.05047                  20837256.8364
        24.2504         31.0004
  24180085.4144   -1183877.70745   -777002.96742                  24180098.8954
         7.7504          2.2504
  21752525.7274    2497541.02347   2877247.43946                  21752530.6844
        21.0004         21.7504
  22104113.0704  -13003241.26146 -10097650.80246                  22104118.7074
        18.2504         19.7504
  24117153.1024   13856862.66145  10749267.44144                  24117161.4144
         8.2504          3.7504
  24400235.1954    -763910.26143   -477195.38442                  24400254.1604
         5.2504          2.0004
  21360916.2194    2261400.26247   1800193.00847                  21360920.8484
        22.7504         28.2504
 00  5 11 20 28 30.0000000  0  9G13G 5G 6G26G10G17G24G23G30
  25039925.9064      85468.55344     70036.78542                  25039932.5394
         7.0004          2.0004
  23170328.5864   13875800.16445  10787660.69945                  23170337.5784
        10.5004          6.7504
  20834095.7894  -10343357.85047  -7993849.37847                  20834099.2114
        24.2504         30.7504
  24172567.2274   -1223386.88645   -807789.16742                  24172579.6414
         7.7504          2.2504
  21759352.7114    2533416.96347   2905202.69946                  21759357.6914
        21.0004         21.5004
  22099942.7274  -13025156.37146 -10114727.48246                  22099948.4574
        18.5004         20.2504
  24125212.3364   13899216.79945  10782270.61344                  24125220.9414
         8.2504          3.7504
  24390937.4844    -812776.62343   -515272.81842                  24390957.7384
         5.0004          1.7504
  21367564.6804    2296337.52047   1827416.79847                  21367569.2504
        22.5004         28.5004
 00  5 11 20 28 45.0000000  0  9G13G 5G 6G26G10G17G24G23G30
  25040895.2974      90558.15745     74002.71142                  25040899.7504
         7.5004          2.0004
  23180824.5474   13930952.93045  10830636.69745                  23180834.3714
        10.5004          6.5004
  20830953.5314  -10359870.72247  -8006716.55147                  20830956.9064
        24.2504         30.7504
  24165053.2034   -1262872.12844   -838556.63942                  24165066.2624
         7.0004          1.7504
  21766203.7424    2569418.79047   2933256.05446                  21766208.4184
        21.0004         21.7504
  22095785.2114  -13047004.38046 -10131751.87746                  22095790.7774
        18.5004         20.5004
  24133273.3984   13941574.41145  10815276.47144                  24133281.0434
         9.0004          3.5004
  24381643.7894    -861603.98142   -553319.76641                  24381659.9654
         4.5004          1.2504
  21374237.8284    2331404.15247   1854741.40647                  21374242.5744
        22.7504         28.0004
 00  5 11 20 29  0.0000000  0  9G13G 5G 6G26G10G17G24G23G30
  25041889.3524      95788.93645     78078.65843                  25041895.9024
         7.5004          2.5004
  23191329.6644   13986158.91545  10873654.18145                  23191338.8914
        10.2504          6.5004
  20827827.5554  -10376298.30247  -8019517.26047                  20827831.0824
        24.2504         30.0004
  24157545.1884   -1302327.61844   -869300.93642                  24157555.3874
         6.7504          1.7504
  21773079.6884    2605551.47747   2961411.38446                  21773084.6564
        21.0004         21.5004
  22091641.4844  -13068780.01546 -10148719.88046                  22091646.8754
        18.7504         20.5004
  24141335.3524   13983940.83845  10848289.20144                  24141343.7704
         9.0004          3.7504
  24372361.6564    -910386.85143   -591332.03642                  24372380.7274
         5.2504          1.5004
  21380936.5634    2366605.18747   1882170.73647                  21380941.1564
        22.7504         28.0004
 00  5 11 20 29 15.0000000  0  9G13G 5G 6G26G10G17G24G23G30
  25042910.1174     101154.36844     82259.55742                  25042916.6564
         7.0004          2.0004
  23201843.4384   14041411.31945  10916707.81245                  23201853.0394
         9.7504          6.0004
  20824716.4384  -10392646.83947  -8032256.37447                  20824719.9534
        24.0004         30.2504
  24150040.0944   -1341759.41143   -900026.82642                  24150050.8094
         5.7504          2.2504
  21779978.8834    2641808.22747   2989663.38046                  21779983.8754
        20.7504         21.5004
  22087510.2734  -13090489.77146 -10165636.53846                  22087515.5124
        19.0004         20.7504
  24149398.3054   14026309.63945  10881303.82244                  24149405.9264
         9.2504          3.5004
  24363084.6884    -959131.44443   -629314.50942                  24363103.4534
         5.0004          1.5004
  21387659.2424    2401933.71447   1909699.41247                  21387663.8484
        23.0004         28.0004
 00  5 11 20 29 30.0000000  0  9G13G 5G 6G26G10G17G24G23G30
  25043957.5314     106656.71244     86547.09442                  25043965.6684
         7.2504          2.2504
  23212367.9614   14096711.88545  10959798.98145                  23212376.8134
        10.0004          5.7504
  20821620.8674  -10408913.99947  -8044932.07847                  20821624.4304
        23.7504         29.7504
  24142541.4844   -1381165.16243   -930732.39342                  24142554.1804
         5.5004          1.7504
  21786902.4304    2678190.79147   3018013.41246                  21786907.4804
        20.7504         21.5004
  22083392.1564  -13112131.55746 -10182500.24046                  22083397.4184
        18.7504         20.7504
  24157461.1484   14068682.74445  10914321.74044                  24157467.7934
         9.2504          4.0004
  24353817.3984   -1007835.27143   -667265.20642                  24353835.2384
         5.2504          2.0004
  21394406.6414    2437391.63047   1937328.90847                  21394411.1884
        23.0004         28.0004
 00  5 11 20 29 45.0000000  0  9G13G 5G 6G26G10G17G24G23G30
  25045030.0864     112293.52544     90939.42742                  25045037.0394
         6.7504          1.7504
  23222898.9694   14152057.81045  11002925.48445                  23222907.1294
         9.7504          5.7504
  20818540.5474  -10425102.02247  -8057546.12147                  20818544.0984
        23.7504         30.2504
  24135048.2344   -1420546.82544   -961419.10742                  24135063.2854
         6.5004          1.7504
  21793849.1334    2714696.40147   3046459.32846                  21793854.0554
        21.0004         21.0004
  22079285.9534  -13133707.86446 -10199312.92846                  22079291.3204
        18.7504         20.5004
  24165525.4694   14111057.51445  10947340.97844                  24165532.4104
         9.2504          4.2504
  24344555.5314   -1056500.65043   -705185.94742                  24344571.7664
         5.0004          1.7504
  21401178.3134    2472976.12647   1965057.03947                  21401182.5314
        23.0004         28.5004
 00  5 11 20 30  0.0000000  0  9G13G 5G 6G26G10G17G24G23G30
  25046128.2664     118065.57244     95437.16942                  25046132.3094
         6.7504          2.0004
  23233439.8204   14207449.40745  11046087.57745                  23233448.3794
         9.7504          5.5004
  20815475.1024  -10441210.05147  -8070097.82647                  20815478.6884
        23.7504         30.2504
  24127558.7584   -1459903.35044   -992086.26442                  24127567.0474
         6.7504          1.7504
  21800819.2664    2751325.43147   3075001.41346                  21800824.2464
        20.7504         20.7504
  22075192.6644  -13155218.11846 -10216074.13946                  22075198.0204
        18.7504         20.0004
  24173589.4694   14153434.66645  10980362.09644                  24173595.5744
         9.5004          4.2504
  24335303.2664   -1105126.61643   -743075.99442                  24335322.0314
         5.2504          2.0004
  21407973.8834    2508687.56847   1992884.09147                  21407978.3244
        22.7504         28.0004
 00  5 11 20 30 15.0000000  0  9G13G 5G 6G26G10G17G24G23G30
  25047252.4224     123971.44444    100039.10642                  25047259.9734
         6.7504          2.0004
  23243989.7274   14262884.89445  11089283.87645                  23243999.5044
         9.7504          5.7504
  20812424.6954  -10457239.30247  -8082588.14947                  20812428.2584
        23.7504         30.0004
  24120073.5634   -1499235.84243  -1022734.75642                  24120086.7274
         5.7504          1.7504
  21807812.7894    2788076.04347   3103638.24146                  21807818.0864
        20.5004         20.5004
  22071111.7424  -13176663.74946 -10232784.98746                  22071117.0864
        18.2504         20.0004
  24181654.3754   14195812.58845  11013383.79144                  24181661.8094
         9.7504          4.2504
  24326057.3204   -1153714.29543   -780936.20642                  24326076.8834
         5.7504          2.0004
  21414793.4844    2544524.25047   2020808.72947                  21414797.9024
        22.5004         28.0004
 00  5 11 20 30 30.0000000  0  9G13G 5G 6G26G10G17G24G23G30
  25048403.0864     130016.59744    104749.62942                  25048408.8164
         6.7504          1.7504
  23254548.1724   14318369.20445  11132518.20045                  23254558.1254
         9.7504          5.2504
  20809390.6334  -10473184.30447  -8095012.82447                  20809394.0434
        23.5004         29.5004
  24112594.1174   -1538538.48842  -1053360.06342                  24112612.3324
         4.7504          1.5004
  21814830.2734    2824953.31947   3132373.76246                  21814835.3714
        20.5004         20.7504
  22067043.8674  -13198039.49546 -10249441.39246                  22067049.1884
        18.2504         19.7504
  24189718.5944   14238196.68245  11046410.27944                  24189725.3444
         9.0004          4.0004
  24316817.9144   -1202258.12743   -818762.23342                  24316837.7934
         5.7504          2.0004
  21421637.6954    2580491.21147   2048834.88847                  21421642.3484
        22.7504         28.0004
 00  5 11 20 30 45.0000000  0  9G13G 5G 6G26G10G17G24G23G30
  25049578.4224     136193.69444    109562.94142                  25049582.1844
         7.0004          2.0004
  23265113.9844   14373894.65045  11175784.58845                  23265123.0824
         9.0004          5.5004
  20806371.0314  -10489052.15147  -8107377.37747                  20806374.4774
        23.7504         29.7504
  24105117.0864   -1577818.14441  -1083967.31841                  24105135.3954
         3.5004          1.2504
  21821870.4614    2861949.64247   3161202.05146                  21821875.7344
        20.2504         20.5004
  22062988.1724  -13219352.66146 -10266049.03146                  22062993.5514
        18.2504         19.2504
  24197783.8134   14280579.52145  11079435.82544                  24197791.1884
         9.0004          3.7504
  24307588.5164   -1250765.04444   -856559.52643                  24307606.5204
         6.2504          2.5004
  21428505.5084    2616580.78147   2076956.58247                  21428510.1484
        22.2504         27.5004
 00  5 11 20 31  0.0000000  0  9G13G 5G 6G26G10G17G24G23G30
  25050779.6884     142509.65444    114484.44442                  25050784.3054
         7.0004          2.2504
  23275689.0084   14429467.64645  11219088.00245                  23275698.7734
         9.0004          5.2504
  20803367.4924  -10504835.82347  -8119676.33947                  20803371.1604
        23.7504         29.5004
  24097650.5234   -1617067.74442  -1114551.15841                  24097663.2194
         4.5004          1.2504
  21828934.6954    2899071.53047   3190128.18346                  21828939.8984
        20.2504         21.0004
  22058945.6414  -13240596.50046 -10282602.64646                  22058951.1844
        18.2504         19.2504
  24205849.9924   14322967.88045  11112465.62844                  24205857.0394
         9.0004          4.2504
  24298365.4844   -1299228.05744   -894322.52642                  24298383.3134
         6.5004          2.2504
  21435397.4534    2652799.44647   2105178.86947                  21435402.0354
        22.2504         27.7504
 00  5 11 20 31 15.0000000  0  9G13G 5G 6G26G10G17G24G23G30
  25052007.0164     148962.39144    119512.58242                  25052014.9184
         6.2504          1.7504
  23286273.4224   14485085.75645  11262426.61245                  23286283.5274
         8.5004          5.0004
  20800379.5634  -10520537.19347  -8131911.16547                  20800383.0314
        24.0004         29.5004
  24090184.7664   -1656288.99842  -1145112.97242                  24090198.4454
         4.0004          1.5004
  21836022.1024    2936316.41947   3219150.15746                  21836027.5984
        20.2504         20.0004
  22054915.8134  -13261773.20546 -10299103.94746                  22054921.2734
        18.2504         20.0004
  24213918.0634   14365359.42045  11145497.95644                  24213925.2034
         9.2504          4.0004
  24289150.8444   -1347649.06844   -932052.85642                  24289169.3874
         6.2504          2.2504
  21442313.7814    2689144.80347   2133499.88247                  21442318.5634
        22.5004         27.0004
 00  5 11 20 31 30.0000000  0  9G13G 5G 6G26G10G17G24G23G30
  25053260.9614     155548.41644    124644.61142                  25053271.9804
         6.7504          2.0004
  23296865.1644   14540745.21645  11305797.39745                  23296874.7664
         9.0004          5.0004
  20797406.7584  -10536159.63947  -8144084.49447                  20797409.9454
        23.7504         29.5004
  24082727.7584   -1695485.08243  -1175655.07742                  24082737.1724
         5.0004          1.5004
  21843132.2344    2973680.53547   3248265.03346                  21843137.5084
        20.0004         20.0004
  22050898.2974  -13282886.23746 -10315555.63446                  22050903.7704
        18.2504         19.5004
  24221984.8524   14407750.59945  11178529.96544                  24221993.0124
         9.2504          3.5004
  24279943.4924   -1396031.29844   -969752.97743                  24279961.1334
         6.7504          2.7504
  21449253.5394    2725613.08647   2161916.67447                  21449258.2974
        22.5004         27.2504
 00  5 11 20 31 45.0000000  0  9G13G 5G 6G26G10G17G24G23G30
  25054539.6484     162268.81144    129881.24442                  25054545.9774
         6.2504          1.7504
  23307465.1414   14596446.61745  11349200.89145                  23307475.4574
         9.0004          4.7504
  20794449.2894  -10551702.00647  -8156195.42747                  20794452.5594
        23.7504         29.5004
  24075273.2734   -1734654.55442  -1206176.51542                  24075284.0474
         4.5004          1.5004
  21850265.2114    3011164.40747   3277473.23646                  21850270.5664
        20.0004         20.2504
  22046892.6954  -13303934.67746 -10331956.99346                  22046898.1454
        18.7504         20.2504
  24230051.4454   14450142.38145  11211562.45544                  24230057.9964
         9.0004          3.5004
  24270744.1724   -1444373.45344  -1007421.82643                  24270761.1684
         6.7504          2.5004
  21456216.9304    2762204.85947   2190429.69747                  21456221.5234
        22.5004         27.0004
 00  5 11 20 32  0.0000000  0  9G13G 5G 6G26G10G17G24G23G30
  25055844.0704     169123.88044    135222.88042                  25055849.8834
         6.5004          2.0004
  23318072.6724   14652189.90845  11392637.02845                  23318082.9654
         9.0004          5.2504
  20791506.9454  -10567163.65847  -8168243.46147                  20791510.3914
        23.7504         29.7504
  24067825.1334   -1773796.60243  -1236676.58442                  24067836.4804
         5.0004          1.5004
  21857420.9774    3048768.15146   3306774.83546                  21857426.3204
        19.7504         20.0004
  22042899.8594  -13324918.24746 -10348307.80646                  22042905.2854
        19.0004         20.7504
  24238118.8594   14492535.11445  11244595.70043                  24238125.7194
         9.2504          3.2504
  24261552.9924   -1492674.88544  -1045059.00743                  24261568.8524
         7.0004          3.0004
  21463203.5314    2798920.32847   2219039.10347                  21463208.1954
        22.7504         26.7504
 00  5 11 20 32 15.0000000  0  9G13G 5G 6G26G10G17G24G23G30
  25057174.7974     176113.89644    140669.62642                  25057179.9654
         6.2504          1.5004
  23328688.1884   14707974.87245  11436105.63045                  23328698.5394
         8.7504          5.5004
  20788579.9924  -10582544.35147  -8180228.41447                  20788583.3204
        23.7504         29.5004
  24060382.1254   -1812910.86643  -1267154.94842                  24060394.0004
         5.5004          2.0004
  21864599.5234    3086491.56246   3336169.68546                  21864604.8554
        19.7504         20.0004
  22038919.2194  -13345836.82146 -10364607.97146                  22038924.7384
        19.0004         20.7504
  24246185.8204   14534928.71245  11277629.64143                  24246192.3014
         9.0004          3.0004
  24252369.0554   -1540935.24844  -1082664.11543                  24252386.6954
         7.0004          2.5004
  21470213.7664    2835759.22947   2247744.69347                  21470218.2304
        23.0004         27.0004
 00  5 11 20 32 30.0000000  0  9G13G 5G 6G26G10G17G24G23G30
  25058530.7894     183240.38244    146222.75942                  25058537.1994
         6.5004          2.0004
  23339312.4694   14763802.66645  11479607.57945                  23339321.5554
         9.2504          5.2504
  20785669.1024  -10597842.40047  -8192148.96847                  20785672.6764
        23.7504         29.0004
  24052942.1564   -1851995.30842  -1297610.23042                  24052954.8874
         4.2504          1.7504
  21871801.2664    3124335.74646   3365658.64246                  21871806.7624
        19.7504         19.7504
  22034951.1414  -13366688.98746 -10380856.38946                  22034956.4144
        19.0004         21.5004
  24254253.0004   14577324.66145  11310665.35443                  24254260.5274
         8.2504          3.0004
  24243193.3444   -1589152.74744  -1120235.88343                  24243211.7704
         6.7504          2.7504
  21477247.8594    2872722.58347   2276547.25947                  21477252.3834
        23.2504         27.2504
 00  5 11 20 32 45.0000000  0  9G13G 5G 6G26G10G17G24G23G30
  25059913.2194     190501.90744    151881.07242                  25059920.1254
         6.2504          2.0004
  23349943.9304   14819671.55045  11523141.57745                  23349953.8134
         9.2504          5.7504
  20782773.4144  -10613058.94147  -8204006.00747                  20782777.0824
        23.2504         28.7504
  24045510.5554   -1891051.01642  -1328042.95742                  24045523.2504
         4.5004          2.0004
  21879025.2584    3162298.97446   3395240.36246                  21879030.6254
        19.7504         19.7504
  22030995.1334  -13387476.20846 -10397054.20046                  22031000.7114
        19.0004         21.2504
  24262321.5164   14619721.56845  11343701.86543                  24262328.0314
         8.5004          2.7504
  24234026.0554   -1637328.56444  -1157775.13343                  24234044.0124
         7.0004          2.7504
  21484305.0864    2909808.69447   2305445.48147                  21484309.5984
        23.0004         27.5004
 00  5 11 20 33  0.0000000  0  9G13G 5G 6G26G10G17G24G23G30
  25061318.6804     197897.01143    157643.51342                  25061326.1604
         6.0004          1.5004
  23360583.1174   14875579.59845  11566706.09245                  23360593.5274
         9.7504          5.5004
  20779892.9144  -10628195.33747  -8215800.59847                  20779896.5354
        23.2504         28.5004
  24038082.9224   -1930079.14443  -1358454.28342                  24038094.9844
         5.5004          2.0004
  21886271.7424    3200379.34846   3424913.35946                  21886276.9344
        19.7504         20.0004
  22027051.7344  -13408200.11646 -10413202.67646                  22027057.3714
        19.0004         21.2504
  24270388.8204   14662117.62745  11376737.72143                  24270396.1254
         8.0004          2.7504
  24224865.3524   -1685464.08244  -1195282.98443                  24224882.6414
         7.0004          3.0004
  21491385.4304    2947015.74547   2334437.94147                  21491389.9654
        23.0004         27.0004
